Time,TemperatureF,DewpointF,PressureIn,WindDirection,WindDirectionDegrees,WindSpeedMPH,WindSpeedGustMPH,Humidity,HourlyPrecipIn,Conditions,Clouds,dailyrainin,SoftwareType,DateUTC
2013-09-08 00:00:00,69.7,64.3,30.02,SSW,210,0.0,2.0,83,0.00,,---,0.00,VWS V14.01,2013-09-08 04:00:00,
2013-09-08 00:01:00,69.7,64.3,30.02,SSW,210,0.0,2.0,83,0.00,,---,0.00,VWS V14.01,2013-09-08 04:01:00,
2013-09-08 00:02:00,69.6,64.2,30.02,SSW,210,0.0,0.0,83,0.00,,---,0.00,VWS V14.01,2013-09-08 04:02:00,
2013-09-08 00:03:00,69.6,64.2,30.02,SSW,210,0.0,0.0,83,0.00,,---,0.00,VWS V14.01,2013-09-08 04:03:00,
2013-09-08 00:04:00,69.6,64.2,30.02,SW,217,0.0,0.0,83,0.00,,---,0.00,VWS V14.01,2013-09-08 04:04:00,
2013-09-08 00:05:00,69.6,64.2,30.02,SW,217,0.0,1.0,83,0.00,,---,0.00,VWS V14.01,2013-09-08 04:05:00,
2013-09-08 00:06:00,69.6,64.2,30.02,SW,217,0.0,1.0,83,0.00,,---,0.00,VWS V14.01,2013-09-08 04:06:00,
2013-09-08 00:07:00,69.7,64.3,30.02,SW,217,0.0,1.0,83,0.00,,---,0.00,VWS V14.01,2013-09-08 04:07:00,
2013-09-08 00:08:00,69.6,64.2,30.02,SW,217,0.0,0.0,83,0.00,,---,0.00,VWS V14.01,2013-09-08 04:08:00,
2013-09-08 00:09:00,69.6,64.2,30.02,SW,217,0.0,0.0,83,0.00,,---,0.00,VWS V14.01,2013-09-08 04:09:00,
2013-09-08 00:10:00,69.6,64.2,30.02,SW,217,0.0,0.0,83,0.00,,---,0.00,VWS V14.01,2013-09-08 04:10:00,
2013-09-08 00:11:00,69.6,64.2,30.02,SW,217,0.0,0.0,83,0.00,,---,0.00,VWS V14.01,2013-09-08 04:11:00,
2013-09-08 00:12:00,69.6,64.2,30.02,SW,217,0.0,0.0,83,0.00,,---,0.00,VWS V14.01,2013-09-08 04:12:00,
2013-09-08 00:13:00,69.6,64.2,30.02,SW,217,0.0,0.0,83,0.00,,---,0.00,VWS V14.01,2013-09-08 04:13:00,
2013-09-08 00:14:00,69.6,64.2,30.02,SW,217,0.0,1.0,83,0.00,,---,0.00,VWS V14.01,2013-09-08 04:14:00,
2013-09-08 00:15:00,69.6,64.6,30.02,SW,217,0.0,1.0,84,0.00,,---,0.00,VWS V14.01,2013-09-08 04:15:00,
2013-09-08 00:16:00,69.5,64.5,30.02,SW,217,1.0,1.0,84,0.00,,---,0.00,VWS V14.01,2013-09-08 04:16:00,
2013-09-08 00:17:00,69.5,64.5,30.02,SW,217,0.0,1.0,84,0.00,,---,0.00,VWS V14.01,2013-09-08 04:17:00,
2013-09-08 00:18:00,69.5,64.5,30.02,SW,217,0.0,1.0,84,0.00,,---,0.00,VWS V14.01,2013-09-08 04:18:00,
2013-09-08 00:19:00,69.5,64.5,30.02,SW,217,0.0,0.0,84,0.00,,---,0.00,VWS V14.01,2013-09-08 04:19:00,
2013-09-08 00:20:00,69.5,64.5,30.02,SW,217,0.0,0.0,84,0.00,,---,0.00,VWS V14.01,2013-09-08 04:20:00,
2013-09-08 00:21:00,69.5,64.5,30.02,SW,217,0.0,0.0,84,0.00,,---,0.00,VWS V14.01,2013-09-08 04:21:00,
2013-09-08 00:22:00,69.4,64.4,30.02,SW,217,0.0,0.0,84,0.00,,---,0.00,VWS V14.01,2013-09-08 04:22:00,
2013-09-08 00:23:00,69.4,64.4,30.02,SW,217,0.0,1.0,84,0.00,,---,0.00,VWS V14.01,2013-09-08 04:23:00,
2013-09-08 00:24:00,69.4,64.4,30.02,SW,217,0.0,0.0,84,0.00,,---,0.00,VWS V14.01,2013-09-08 04:24:00,
2013-09-08 00:25:00,69.4,64.4,30.02,SW,217,1.0,1.0,84,0.00,,---,0.00,VWS V14.01,2013-09-08 04:25:00,
2013-09-08 00:26:00,69.4,64.4,30.02,SW,217,0.0,1.0,84,0.00,,---,0.00,VWS V14.01,2013-09-08 04:26:00,
2013-09-08 00:27:00,69.3,64.3,30.02,SW,217,0.0,1.0,84,0.00,,---,0.00,VWS V14.01,2013-09-08 04:27:00,
2013-09-08 00:28:00,69.3,64.3,30.02,SW,226,0.0,1.0,84,0.00,,---,0.00,VWS V14.01,2013-09-08 04:28:00,
2013-09-08 00:29:00,69.3,64.3,30.02,SW,226,0.0,0.0,84,0.00,,---,0.00,VWS V14.01,2013-09-08 04:29:00,
2013-09-08 00:30:00,69.3,64.3,30.01,SW,226,0.0,0.0,84,0.00,,---,0.00,VWS V14.01,2013-09-08 04:30:00,
2013-09-08 00:31:00,69.3,64.3,30.01,SW,227,0.0,0.0,84,0.00,,---,0.00,VWS V14.01,2013-09-08 04:31:00,
2013-09-08 00:32:00,69.3,64.3,30.01,SW,226,0.0,0.0,84,0.00,,---,0.00,VWS V14.01,2013-09-08 04:32:00,
2013-09-08 00:33:00,69.3,64.3,30.01,SW,226,0.0,0.0,84,0.00,,---,0.00,VWS V14.01,2013-09-08 04:33:00,
2013-09-08 00:34:00,69.2,64.2,30.01,SW,227,0.0,0.0,84,0.00,,---,0.00,VWS V14.01,2013-09-08 04:34:00,
2013-09-08 00:35:00,69.2,64.2,30.01,SW,226,0.0,0.0,84,0.00,,---,0.00,VWS V14.01,2013-09-08 04:35:00,
2013-09-08 00:36:00,69.2,64.2,30.01,SW,226,0.0,1.0,84,0.00,,---,0.00,VWS V14.01,2013-09-08 04:36:00,
2013-09-08 00:37:00,69.2,64.2,30.01,WSW,247,1.0,1.0,84,0.00,,---,0.00,VWS V14.01,2013-09-08 04:37:00,
2013-09-08 00:38:00,69.2,64.2,30.01,SW,230,1.0,2.0,84,0.00,,---,0.00,VWS V14.01,2013-09-08 04:38:00,
2013-09-08 00:39:00,69.2,64.2,30.01,SW,230,0.0,1.0,84,0.00,,---,0.00,VWS V14.01,2013-09-08 04:39:00,
2013-09-08 00:40:00,69.2,64.2,30.01,SW,230,1.0,1.0,84,0.00,,---,0.00,VWS V14.01,2013-09-08 04:40:00,
2013-09-08 00:41:00,69.2,64.2,30.01,SW,230,1.0,1.0,84,0.00,,---,0.00,VWS V14.01,2013-09-08 04:41:00,
2013-09-08 00:42:00,69.2,64.2,30.01,SW,228,1.0,1.0,84,0.00,,---,0.00,VWS V14.01,2013-09-08 04:42:00,
2013-09-08 00:43:00,69.2,64.2,30.01,SW,232,0.0,1.0,84,0.00,,---,0.00,VWS V14.01,2013-09-08 04:43:00,
2013-09-08 00:44:00,69.2,64.2,30.01,SW,233,0.0,0.0,84,0.00,,---,0.00,VWS V14.01,2013-09-08 04:44:00,
2013-09-08 00:45:00,69.2,64.2,30.01,SW,232,0.0,1.0,84,0.00,,---,0.00,VWS V14.01,2013-09-08 04:45:00,
2013-09-08 00:46:00,69.2,64.2,30.01,SW,232,0.0,0.0,84,0.00,,---,0.00,VWS V14.01,2013-09-08 04:46:00,
2013-09-08 00:47:00,69.1,64.1,30.01,SW,232,0.0,0.0,84,0.00,,---,0.00,VWS V14.01,2013-09-08 04:47:00,
2013-09-08 00:48:00,69.1,64.1,30.01,SW,232,0.0,0.0,84,0.00,,---,0.00,VWS V14.01,2013-09-08 04:48:00,
2013-09-08 00:49:00,69.1,64.1,30.01,SW,233,0.0,0.0,84,0.00,,---,0.00,VWS V14.01,2013-09-08 04:49:00,
2013-09-08 00:50:00,69.1,64.1,30.01,SW,232,0.0,0.0,84,0.00,,---,0.00,VWS V14.01,2013-09-08 04:50:00,
2013-09-08 00:51:00,69.0,64.0,30.01,SW,232,0.0,1.0,84,0.00,,---,0.00,VWS V14.01,2013-09-08 04:51:00,
2013-09-08 00:52:00,69.0,64.0,30.01,SW,232,0.0,1.0,84,0.00,,---,0.00,VWS V14.01,2013-09-08 04:52:00,
2013-09-08 00:53:00,69.0,64.0,30.01,SW,233,0.0,0.0,84,0.00,,---,0.00,VWS V14.01,2013-09-08 04:53:00,
2013-09-08 00:54:00,69.0,64.0,30.01,SW,233,0.0,1.0,84,0.00,,---,0.00,VWS V14.01,2013-09-08 04:54:00,
2013-09-08 00:55:00,69.0,64.0,30.01,SW,233,0.0,0.0,84,0.00,,---,0.00,VWS V14.01,2013-09-08 04:55:00,
2013-09-08 00:56:00,68.9,63.9,30.01,SW,233,0.0,0.0,84,0.00,,---,0.00,VWS V14.01,2013-09-08 04:56:00,
2013-09-08 00:57:00,68.9,63.9,30.01,SW,217,1.0,1.0,84,0.00,,---,0.00,VWS V14.01,2013-09-08 04:57:00,
2013-09-08 00:58:00,68.9,63.9,30.01,SW,217,0.0,1.0,84,0.00,,---,0.00,VWS V14.01,2013-09-08 04:58:00,
2013-09-08 00:59:00,68.9,63.9,30.01,SW,217,0.0,0.0,84,0.00,,---,0.00,VWS V14.01,2013-09-08 04:59:00,
2013-09-08 01:00:00,68.8,63.8,30.01,SW,217,0.0,0.0,84,0.00,,---,0.00,VWS V14.01,2013-09-08 05:00:00,
2013-09-08 01:01:00,68.8,63.8,30.01,SW,217,0.0,0.0,84,0.00,,---,0.00,VWS V14.01,2013-09-08 05:01:00,
2013-09-08 01:02:00,68.8,63.8,30.01,SW,217,0.0,0.0,84,0.00,,---,0.00,VWS V14.01,2013-09-08 05:02:00,
2013-09-08 01:03:00,68.7,63.7,30.01,SW,217,0.0,0.0,84,0.00,,---,0.00,VWS V14.01,2013-09-08 05:03:00,
2013-09-08 01:04:00,68.7,63.7,30.01,SW,217,0.0,0.0,84,0.00,,---,0.00,VWS V14.01,2013-09-08 05:04:00,
2013-09-08 01:05:00,68.7,64.0,30.01,SW,217,0.0,0.0,85,0.00,,---,0.00,VWS V14.01,2013-09-08 05:05:00,
2013-09-08 01:06:00,68.7,64.0,30.01,SW,217,0.0,0.0,85,0.00,,---,0.00,VWS V14.01,2013-09-08 05:06:00,
2013-09-08 01:07:00,68.7,64.0,30.01,SW,217,0.0,1.0,85,0.00,,---,0.00,VWS V14.01,2013-09-08 05:07:00,
2013-09-08 01:08:00,68.7,64.0,30.01,SW,217,0.0,0.0,85,0.00,,---,0.00,VWS V14.01,2013-09-08 05:08:00,
2013-09-08 01:09:00,68.7,64.0,30.01,SW,227,1.0,1.0,85,0.00,,---,0.00,VWS V14.01,2013-09-08 05:09:00,
2013-09-08 01:10:00,68.6,63.9,30.01,SW,227,0.0,1.0,85,0.00,,---,0.00,VWS V14.01,2013-09-08 05:10:00,
2013-09-08 01:11:00,68.6,63.9,30.01,SW,227,0.0,0.0,85,0.00,,---,0.00,VWS V14.01,2013-09-08 05:11:00,
2013-09-08 01:12:00,68.6,63.9,30.01,SW,227,0.0,0.0,85,0.00,,---,0.00,VWS V14.01,2013-09-08 05:12:00,
2013-09-08 01:13:00,68.6,63.9,30.01,SW,227,0.0,0.0,85,0.00,,---,0.00,VWS V14.01,2013-09-08 05:13:00,
2013-09-08 01:14:00,68.6,63.9,30.01,SW,227,0.0,0.0,85,0.00,,---,0.00,VWS V14.01,2013-09-08 05:14:00,
2013-09-08 01:15:00,68.6,63.9,30.01,SSE,160,0.0,1.0,85,0.00,,---,0.00,VWS V14.01,2013-09-08 05:15:00,
2013-09-08 01:16:00,68.6,63.9,30.01,SSE,160,0.0,0.0,85,0.00,,---,0.00,VWS V14.01,2013-09-08 05:16:00,
2013-09-08 01:17:00,68.6,63.9,30.01,SSE,160,0.0,0.0,85,0.00,,---,0.00,VWS V14.01,2013-09-08 05:17:00,
2013-09-08 01:18:00,68.6,63.9,30.01,SSE,160,0.0,0.0,85,0.00,,---,0.00,VWS V14.01,2013-09-08 05:18:00,
2013-09-08 01:19:00,68.6,63.9,30.01,SSE,160,0.0,0.0,85,0.00,,---,0.00,VWS V14.01,2013-09-08 05:19:00,
2013-09-08 01:20:00,68.6,63.9,30.01,SSE,160,0.0,0.0,85,0.00,,---,0.00,VWS V14.01,2013-09-08 05:20:00,
2013-09-08 01:21:00,68.6,63.9,30.01,SSE,160,0.0,0.0,85,0.00,,---,0.00,VWS V14.01,2013-09-08 05:21:00,
2013-09-08 01:22:00,68.6,63.9,30.01,SSE,164,0.0,1.0,85,0.00,,---,0.00,VWS V14.01,2013-09-08 05:22:00,
2013-09-08 01:23:00,68.6,63.9,30.01,SSE,164,0.0,0.0,85,0.00,,---,0.00,VWS V14.01,2013-09-08 05:23:00,
2013-09-08 01:24:00,68.5,63.8,30.01,SSE,164,0.0,0.0,85,0.00,,---,0.00,VWS V14.01,2013-09-08 05:24:00,
2013-09-08 01:25:00,68.5,63.8,30.01,SSE,164,0.0,0.0,85,0.00,,---,0.00,VWS V14.01,2013-09-08 05:25:00,
2013-09-08 01:26:00,68.5,63.8,30.01,SSE,164,0.0,0.0,85,0.00,,---,0.00,VWS V14.01,2013-09-08 05:26:00,
2013-09-08 01:27:00,68.5,63.8,30.01,SSE,164,0.0,0.0,85,0.00,,---,0.00,VWS V14.01,2013-09-08 05:27:00,
2013-09-08 01:28:00,68.5,63.8,30.01,SSE,164,0.0,0.0,85,0.00,,---,0.00,VWS V14.01,2013-09-08 05:28:00,
2013-09-08 01:29:00,68.4,63.7,30.01,SSE,164,0.0,1.0,85,0.00,,---,0.00,VWS V14.01,2013-09-08 05:29:00,
2013-09-08 01:30:00,68.4,64.1,30.01,SSE,164,0.0,0.0,86,0.00,,---,0.00,VWS V14.01,2013-09-08 05:30:00,
2013-09-08 01:31:00,68.4,64.1,30.01,SSE,164,0.0,0.0,86,0.00,,---,0.00,VWS V14.01,2013-09-08 05:31:00,
2013-09-08 01:32:00,68.4,64.1,30.01,SSE,164,0.0,0.0,86,0.00,,---,0.00,VWS V14.01,2013-09-08 05:32:00,
2013-09-08 01:33:00,68.4,64.1,30.01,SSE,164,0.0,0.0,86,0.00,,---,0.00,VWS V14.01,2013-09-08 05:33:00,
2013-09-08 01:34:00,68.4,64.1,30.01,SSE,164,0.0,0.0,86,0.00,,---,0.00,VWS V14.01,2013-09-08 05:34:00,
2013-09-08 01:35:00,68.4,64.1,30.01,SSE,165,0.0,0.0,86,0.00,,---,0.00,VWS V14.01,2013-09-08 05:35:00,
2013-09-08 01:36:00,68.4,64.1,30.01,SSE,165,0.0,0.0,86,0.00,,---,0.00,VWS V14.01,2013-09-08 05:36:00,
2013-09-08 01:37:00,68.4,64.1,30.01,SSE,165,0.0,0.0,86,0.00,,---,0.00,VWS V14.01,2013-09-08 05:37:00,
2013-09-08 01:38:00,68.4,64.1,30.01,SSE,166,0.0,1.0,86,0.00,,---,0.00,VWS V14.01,2013-09-08 05:38:00,
2013-09-08 01:39:00,68.3,64.0,30.01,SSE,165,0.0,1.0,86,0.00,,---,0.00,VWS V14.01,2013-09-08 05:39:00,
2013-09-08 01:40:00,68.3,64.0,30.01,SW,219,0.0,3.0,86,0.00,,---,0.00,VWS V14.01,2013-09-08 05:40:00,
2013-09-08 01:41:00,68.3,64.0,30.01,SW,229,0.0,0.0,86,0.00,,---,0.00,VWS V14.01,2013-09-08 05:41:00,
2013-09-08 01:42:00,68.3,64.0,30.01,SW,229,0.0,0.0,86,0.00,,---,0.00,VWS V14.01,2013-09-08 05:42:00,
2013-09-08 01:43:00,68.3,64.0,30.01,SW,229,0.0,0.0,86,0.00,,---,0.00,VWS V14.01,2013-09-08 05:43:00,
2013-09-08 01:44:00,68.3,64.0,30.01,SW,229,0.0,1.0,86,0.00,,---,0.00,VWS V14.01,2013-09-08 05:44:00,
2013-09-08 01:45:00,68.3,64.0,30.01,SW,229,0.0,1.0,86,0.00,,---,0.00,VWS V14.01,2013-09-08 05:45:00,
2013-09-08 01:46:00,68.3,64.0,30.01,SW,228,0.0,1.0,86,0.00,,---,0.00,VWS V14.01,2013-09-08 05:46:00,
2013-09-08 01:47:00,68.3,64.0,30.01,SW,229,0.0,1.0,86,0.00,,---,0.00,VWS V14.01,2013-09-08 05:47:00,
2013-09-08 01:48:00,68.3,64.0,30.01,SW,229,0.0,1.0,86,0.00,,---,0.00,VWS V14.01,2013-09-08 05:48:00,
2013-09-08 01:49:00,68.3,64.0,30.01,SSW,208,1.0,1.0,86,0.00,,---,0.00,VWS V14.01,2013-09-08 05:49:00,
2013-09-08 01:50:00,68.3,64.0,30.01,SW,223,1.0,1.0,86,0.00,,---,0.00,VWS V14.01,2013-09-08 05:50:00,
2013-09-08 01:51:00,68.3,64.0,30.01,SW,229,0.0,0.0,86,0.00,,---,0.00,VWS V14.01,2013-09-08 05:51:00,
2013-09-08 01:52:00,68.3,64.0,30.01,SSW,212,1.0,1.0,86,0.00,,---,0.00,VWS V14.01,2013-09-08 05:52:00,
2013-09-08 01:53:00,68.3,64.0,30.01,WSW,248,0.0,2.0,86,0.00,,---,0.00,VWS V14.01,2013-09-08 05:53:00,
2013-09-08 01:54:00,68.3,64.0,30.01,WSW,238,1.0,1.0,86,0.00,,---,0.00,VWS V14.01,2013-09-08 05:54:00,
2013-09-08 01:55:00,68.3,64.0,30.01,West,260,1.0,1.0,86,0.00,,---,0.00,VWS V14.01,2013-09-08 05:55:00,
2013-09-08 01:56:00,68.3,64.0,30.01,WSW,244,1.0,1.0,86,0.00,,---,0.00,VWS V14.01,2013-09-08 05:56:00,
2013-09-08 01:57:00,68.3,64.0,30.01,WSW,240,0.0,2.0,86,0.00,,---,0.00,VWS V14.01,2013-09-08 05:57:00,
2013-09-08 01:58:00,68.3,64.0,30.01,WSW,240,1.0,1.0,86,0.00,,---,0.00,VWS V14.01,2013-09-08 05:58:00,
2013-09-08 01:59:00,68.3,64.0,30.01,SW,229,0.0,1.0,86,0.00,,---,0.00,VWS V14.01,2013-09-08 05:59:00,
2013-09-08 02:00:00,68.4,64.1,30.01,SSW,206,1.0,1.0,86,0.00,,---,0.00,VWS V14.01,2013-09-08 06:00:00,
2013-09-08 02:01:00,68.4,64.1,30.01,SSW,206,0.0,1.0,86,0.00,,---,0.00,VWS V14.01,2013-09-08 06:01:00,
2013-09-08 02:02:00,68.4,64.1,30.01,SSW,206,0.0,1.0,86,0.00,,---,0.00,VWS V14.01,2013-09-08 06:02:00,
2013-09-08 02:03:00,68.3,64.0,30.00,SSW,206,0.0,0.0,86,0.00,,---,0.00,VWS V14.01,2013-09-08 06:03:00,
2013-09-08 02:04:00,68.4,64.1,30.00,SSW,208,0.0,1.0,86,0.00,,---,0.00,VWS V14.01,2013-09-08 06:04:00,
2013-09-08 02:05:00,68.4,64.1,30.00,SW,223,1.0,1.0,86,0.00,,---,0.00,VWS V14.01,2013-09-08 06:05:00,
2013-09-08 02:06:00,68.3,64.0,30.00,SW,214,2.0,2.0,86,0.00,,---,0.00,VWS V14.01,2013-09-08 06:06:00,
2013-09-08 02:07:00,68.3,64.0,30.00,SW,226,1.0,2.0,86,0.00,,---,0.00,VWS V14.01,2013-09-08 06:07:00,
2013-09-08 02:08:00,68.3,64.0,30.00,SW,227,1.0,2.0,86,0.00,,---,0.00,VWS V14.01,2013-09-08 06:08:00,
2013-09-08 02:10:00,68.3,64.0,30.00,SW,232,1.0,1.0,86,0.00,,---,0.00,VWS V14.01,2013-09-08 06:10:00,
2013-09-08 02:11:00,68.3,64.0,30.00,SW,233,1.0,1.0,86,0.00,,---,0.00,VWS V14.01,2013-09-08 06:11:00,
2013-09-08 02:12:00,68.2,63.9,30.00,SW,233,0.0,1.0,86,0.00,,---,0.00,VWS V14.01,2013-09-08 06:12:00,
2013-09-08 02:13:00,68.3,64.0,30.00,SW,232,0.0,1.0,86,0.00,,---,0.00,VWS V14.01,2013-09-08 06:13:00,
2013-09-08 02:14:00,68.2,63.9,30.00,WSW,254,0.0,2.0,86,0.00,,---,0.00,VWS V14.01,2013-09-08 06:14:00,
2013-09-08 02:15:00,68.2,63.9,30.00,WSW,254,1.0,1.0,86,0.00,,---,0.00,VWS V14.01,2013-09-08 06:15:00,
2013-09-08 02:16:00,68.2,63.9,30.00,WSW,246,1.0,1.0,86,0.00,,---,0.00,VWS V14.01,2013-09-08 06:16:00,
2013-09-08 02:17:00,68.1,63.8,30.00,WSW,247,0.0,1.0,86,0.00,,---,0.00,VWS V14.01,2013-09-08 06:17:00,
2013-09-08 02:18:00,68.1,63.8,30.00,WSW,246,1.0,1.0,86,0.00,,---,0.00,VWS V14.01,2013-09-08 06:18:00,
2013-09-08 02:19:00,68.1,63.8,30.00,WSW,257,1.0,1.0,86,0.00,,---,0.00,VWS V14.01,2013-09-08 06:19:00,
2013-09-08 02:20:00,68.1,63.8,30.00,WSW,257,0.0,1.0,86,0.00,,---,0.00,VWS V14.01,2013-09-08 06:20:00,
2013-09-08 02:21:00,68.1,63.8,30.00,West,273,0.0,1.0,86,0.00,,---,0.00,VWS V14.01,2013-09-08 06:21:00,
2013-09-08 02:22:00,68.1,63.8,30.00,West,273,1.0,1.0,86,0.00,,---,0.00,VWS V14.01,2013-09-08 06:22:00,
2013-09-08 02:23:00,68.1,63.8,30.00,SW,233,1.0,1.0,86,0.00,,---,0.00,VWS V14.01,2013-09-08 06:23:00,
2013-09-08 02:24:00,68.1,63.8,30.00,SW,225,3.0,3.0,86,0.00,,---,0.00,VWS V14.01,2013-09-08 06:24:00,
2013-09-08 02:25:00,68.0,63.7,30.00,SW,236,1.0,3.0,86,0.00,,---,0.00,VWS V14.01,2013-09-08 06:25:00,
2013-09-08 02:26:00,68.0,63.7,30.00,SSW,200,2.0,2.0,86,0.00,,---,0.00,VWS V14.01,2013-09-08 06:26:00,
2013-09-08 02:27:00,68.0,63.7,30.00,West,273,1.0,2.0,86,0.00,,---,0.00,VWS V14.01,2013-09-08 06:27:00,
2013-09-08 02:28:00,68.0,63.7,30.00,West,273,0.0,1.0,86,0.00,,---,0.00,VWS V14.01,2013-09-08 06:28:00,
2013-09-08 02:29:00,68.0,63.7,30.00,West,271,0.0,1.0,86,0.00,,---,0.00,VWS V14.01,2013-09-08 06:29:00,
2013-09-08 02:30:00,68.0,63.7,30.00,SSE,160,1.0,1.0,86,0.00,,---,0.00,VWS V14.01,2013-09-08 06:30:00,
2013-09-08 02:31:00,68.0,63.7,30.00,SSE,160,0.0,0.0,86,0.00,,---,0.00,VWS V14.01,2013-09-08 06:31:00,
2013-09-08 02:32:00,68.0,63.7,30.00,SSE,160,0.0,0.0,86,0.00,,---,0.00,VWS V14.01,2013-09-08 06:32:00,
2013-09-08 02:33:00,68.0,63.7,30.00,SSE,160,0.0,0.0,86,0.00,,---,0.00,VWS V14.01,2013-09-08 06:33:00,
2013-09-08 02:34:00,68.0,63.7,30.00,SSE,160,0.0,0.0,86,0.00,,---,0.00,VWS V14.01,2013-09-08 06:34:00,
2013-09-08 02:35:00,68.0,63.7,30.00,West,273,1.0,1.0,86,0.00,,---,0.00,VWS V14.01,2013-09-08 06:35:00,
2013-09-08 02:36:00,67.9,63.6,30.00,West,273,1.0,1.0,86,0.00,,---,0.00,VWS V14.01,2013-09-08 06:36:00,
2013-09-08 02:37:00,67.9,63.6,30.00,West,273,1.0,1.0,86,0.00,,---,0.00,VWS V14.01,2013-09-08 06:37:00,
2013-09-08 02:38:00,67.9,63.6,30.00,West,272,0.0,1.0,86,0.00,,---,0.00,VWS V14.01,2013-09-08 06:38:00,
2013-09-08 02:39:00,67.9,63.6,30.00,West,271,1.0,1.0,86,0.00,,---,0.00,VWS V14.01,2013-09-08 06:39:00,
2013-09-08 02:40:00,67.9,63.6,30.00,West,265,1.0,1.0,86,0.00,,---,0.00,VWS V14.01,2013-09-08 06:40:00,
2013-09-08 02:41:00,67.9,63.6,30.00,West,276,0.0,1.0,86,0.00,,---,0.00,VWS V14.01,2013-09-08 06:41:00,
2013-09-08 02:42:00,67.9,63.6,30.00,WSW,245,1.0,2.0,86,0.00,,---,0.00,VWS V14.01,2013-09-08 06:42:00,
2013-09-08 02:43:00,67.8,63.5,30.00,SSW,210,1.0,1.0,86,0.00,,---,0.00,VWS V14.01,2013-09-08 06:43:00,
2013-09-08 02:44:00,67.8,63.5,30.00,SW,219,1.0,1.0,86,0.00,,---,0.00,VWS V14.01,2013-09-08 06:44:00,
2013-09-08 02:45:00,67.8,63.5,30.00,SW,219,0.0,1.0,86,0.00,,---,0.00,VWS V14.01,2013-09-08 06:45:00,
2013-09-08 02:46:00,67.8,63.5,30.00,SW,225,1.0,1.0,86,0.00,,---,0.00,VWS V14.01,2013-09-08 06:46:00,
2013-09-08 02:47:00,67.7,63.7,30.00,SW,225,0.0,1.0,87,0.00,,---,0.00,VWS V14.01,2013-09-08 06:47:00,
2013-09-08 02:48:00,67.7,63.7,30.00,SW,225,0.0,1.0,87,0.00,,---,0.00,VWS V14.01,2013-09-08 06:48:00,
2013-09-08 02:49:00,67.7,63.7,30.00,SW,225,0.0,0.0,87,0.00,,---,0.00,VWS V14.01,2013-09-08 06:49:00,
2013-09-08 02:50:00,67.7,63.7,30.00,SSW,206,1.0,2.0,87,0.00,,---,0.00,VWS V14.01,2013-09-08 06:50:00,
2013-09-08 02:51:00,67.7,63.7,30.00,SSW,209,0.0,1.0,87,0.00,,---,0.00,VWS V14.01,2013-09-08 06:51:00,
2013-09-08 02:52:00,67.7,63.7,30.00,SSW,209,0.0,1.0,87,0.00,,---,0.00,VWS V14.01,2013-09-08 06:52:00,
2013-09-08 02:53:00,67.7,63.7,30.00,SSW,209,1.0,2.0,87,0.00,,---,0.00,VWS V14.01,2013-09-08 06:53:00,
2013-09-08 02:54:00,67.7,63.7,30.00,SSW,208,0.0,1.0,87,0.00,,---,0.00,VWS V14.01,2013-09-08 06:54:00,
2013-09-08 02:55:00,67.7,63.7,29.99,SSW,209,1.0,1.0,87,0.00,,---,0.00,VWS V14.01,2013-09-08 06:55:00,
2013-09-08 02:56:00,67.7,63.7,29.99,SSW,199,1.0,1.0,87,0.00,,---,0.00,VWS V14.01,2013-09-08 06:56:00,
2013-09-08 02:57:00,67.7,63.7,29.99,SSW,206,0.0,1.0,87,0.00,,---,0.00,VWS V14.01,2013-09-08 06:57:00,
2013-09-08 02:58:00,67.7,63.7,29.99,SW,219,2.0,2.0,87,0.00,,---,0.00,VWS V14.01,2013-09-08 06:58:00,
2013-09-08 02:59:00,67.6,63.6,29.99,West,261,2.0,3.0,87,0.00,,---,0.00,VWS V14.01,2013-09-08 06:59:00,
2013-09-08 03:00:00,67.6,63.6,30.00,West,267,1.0,2.0,87,0.00,,---,0.00,VWS V14.01,2013-09-08 07:00:00,
2013-09-08 03:01:00,67.6,63.6,30.00,WSW,245,0.0,0.0,87,0.00,,---,0.00,VWS V14.01,2013-09-08 07:01:00,
2013-09-08 03:02:00,67.6,63.6,30.00,West,263,1.0,2.0,87,0.00,,---,0.00,VWS V14.01,2013-09-08 07:02:00,
2013-09-08 03:03:00,67.6,63.6,29.99,WSW,254,0.0,2.0,87,0.00,,---,0.00,VWS V14.01,2013-09-08 07:03:00,
2013-09-08 03:04:00,67.6,63.6,29.99,WSW,241,2.0,2.0,87,0.00,,---,0.00,VWS V14.01,2013-09-08 07:04:00,
2013-09-08 03:05:00,67.6,63.6,29.99,WSW,241,0.0,4.0,87,0.00,,---,0.00,VWS V14.01,2013-09-08 07:05:00,
2013-09-08 03:06:00,67.6,63.6,29.99,SSW,213,1.0,1.0,87,0.00,,---,0.00,VWS V14.01,2013-09-08 07:06:00,
2013-09-08 03:07:00,67.6,63.6,29.99,SW,236,0.0,2.0,87,0.00,,---,0.00,VWS V14.01,2013-09-08 07:07:00,
2013-09-08 03:08:00,67.5,63.5,29.99,SW,232,1.0,1.0,87,0.00,,---,0.00,VWS V14.01,2013-09-08 07:08:00,
2013-09-08 03:09:00,67.5,63.5,29.99,SW,217,1.0,2.0,87,0.00,,---,0.00,VWS V14.01,2013-09-08 07:09:00,
2013-09-08 03:10:00,67.5,63.5,29.99,West,265,2.0,2.0,87,0.00,,---,0.00,VWS V14.01,2013-09-08 07:10:00,
2013-09-08 03:11:00,67.5,63.5,29.99,WSW,238,1.0,2.0,87,0.00,,---,0.00,VWS V14.01,2013-09-08 07:11:00,
2013-09-08 03:12:00,67.5,63.5,29.99,South,184,1.0,2.0,87,0.00,,---,0.00,VWS V14.01,2013-09-08 07:12:00,
2013-09-08 03:13:00,67.5,63.5,29.99,WSW,257,1.0,2.0,87,0.00,,---,0.00,VWS V14.01,2013-09-08 07:13:00,
2013-09-08 03:14:00,67.5,63.5,29.99,SW,227,2.0,2.0,87,0.00,,---,0.00,VWS V14.01,2013-09-08 07:14:00,
2013-09-08 03:15:00,67.5,63.5,29.99,WSW,253,1.0,2.0,87,0.00,,---,0.00,VWS V14.01,2013-09-08 07:15:00,
2013-09-08 03:16:00,67.4,63.4,29.99,WSW,241,1.0,1.0,87,0.00,,---,0.00,VWS V14.01,2013-09-08 07:16:00,
2013-09-08 03:17:00,67.4,63.4,29.99,West,277,1.0,1.0,87,0.00,,---,0.00,VWS V14.01,2013-09-08 07:17:00,
2013-09-08 03:18:00,67.4,63.4,29.99,WSW,250,0.0,2.0,87,0.00,,---,0.00,VWS V14.01,2013-09-08 07:18:00,
2013-09-08 03:19:00,67.4,63.4,29.99,WSW,256,0.0,1.0,87,0.00,,---,0.00,VWS V14.01,2013-09-08 07:19:00,
2013-09-08 03:20:00,67.4,63.4,29.99,West,261,1.0,1.0,87,0.00,,---,0.00,VWS V14.01,2013-09-08 07:20:00,
2013-09-08 03:21:00,67.3,63.3,29.99,WSW,253,1.0,1.0,87,0.00,,---,0.00,VWS V14.01,2013-09-08 07:21:00,
2013-09-08 03:22:00,67.3,63.3,29.99,West,259,1.0,3.0,87,0.00,,---,0.00,VWS V14.01,2013-09-08 07:22:00,
2013-09-08 03:23:00,67.3,63.3,29.99,WSW,242,2.0,2.0,87,0.00,,---,0.00,VWS V14.01,2013-09-08 07:23:00,
2013-09-08 03:24:00,67.3,63.3,29.99,WSW,240,3.0,3.0,87,0.00,,---,0.00,VWS V14.01,2013-09-08 07:24:00,
2013-09-08 03:25:00,67.3,63.3,29.99,West,263,1.0,3.0,87,0.00,,---,0.00,VWS V14.01,2013-09-08 07:25:00,
2013-09-08 03:26:00,67.3,63.6,29.99,WSW,257,1.0,1.0,88,0.00,,---,0.00,VWS V14.01,2013-09-08 07:26:00,
2013-09-08 03:27:00,67.3,63.6,29.99,SSW,203,1.0,2.0,88,0.00,,---,0.00,VWS V14.01,2013-09-08 07:27:00,
2013-09-08 03:28:00,67.3,63.6,29.99,SSW,207,1.0,1.0,88,0.00,,---,0.00,VWS V14.01,2013-09-08 07:28:00,
2013-09-08 03:29:00,67.3,63.6,29.99,WSW,241,1.0,2.0,88,0.00,,---,0.00,VWS V14.01,2013-09-08 07:29:00,
2013-09-08 03:30:00,67.2,63.5,29.99,SW,229,2.0,2.0,88,0.00,,---,0.00,VWS V14.01,2013-09-08 07:30:00,
2013-09-08 03:31:00,67.2,63.5,29.99,West,275,0.0,0.0,88,0.00,,---,0.00,VWS V14.01,2013-09-08 07:31:00,
2013-09-08 03:32:00,67.2,63.5,29.99,WSW,252,1.0,1.0,88,0.00,,---,0.00,VWS V14.01,2013-09-08 07:32:00,
2013-09-08 03:33:00,67.1,63.4,29.99,WSW,249,1.0,1.0,88,0.00,,---,0.00,VWS V14.01,2013-09-08 07:33:00,
2013-09-08 03:34:00,67.1,63.4,29.99,WSW,238,3.0,3.0,88,0.00,,---,0.00,VWS V14.01,2013-09-08 07:34:00,
2013-09-08 03:35:00,67.1,63.4,29.99,WSW,252,2.0,3.0,88,0.00,,---,0.00,VWS V14.01,2013-09-08 07:35:00,
2013-09-08 03:36:00,67.1,63.4,29.99,West,269,1.0,1.0,88,0.00,,---,0.00,VWS V14.01,2013-09-08 07:36:00,
2013-09-08 03:37:00,67.1,63.4,29.99,West,267,2.0,2.0,88,0.00,,---,0.00,VWS V14.01,2013-09-08 07:37:00,
2013-09-08 03:38:00,67.0,63.3,29.99,WSW,252,1.0,2.0,88,0.00,,---,0.00,VWS V14.01,2013-09-08 07:38:00,
2013-09-08 03:39:00,67.0,63.3,29.99,SW,229,2.0,2.0,88,0.00,,---,0.00,VWS V14.01,2013-09-08 07:39:00,
2013-09-08 03:40:00,67.0,63.3,29.99,WSW,246,1.0,2.0,88,0.00,,---,0.00,VWS V14.01,2013-09-08 07:40:00,
2013-09-08 03:41:00,66.9,63.2,29.99,SW,217,0.0,0.0,88,0.00,,---,0.00,VWS V14.01,2013-09-08 07:41:00,
2013-09-08 03:42:00,66.9,63.2,29.99,SW,234,1.0,2.0,88,0.00,,---,0.00,VWS V14.01,2013-09-08 07:42:00,
2013-09-08 03:43:00,66.9,63.2,29.98,SW,234,0.0,1.0,88,0.00,,---,0.00,VWS V14.01,2013-09-08 07:43:00,
2013-09-08 03:44:00,66.8,63.1,29.98,SW,234,0.0,1.0,88,0.00,,---,0.00,VWS V14.01,2013-09-08 07:44:00,
2013-09-08 03:45:00,66.8,63.1,29.98,SW,233,2.0,2.0,88,0.00,,---,0.00,VWS V14.01,2013-09-08 07:45:00,
2013-09-08 03:46:00,66.8,63.1,29.98,WSW,237,2.0,3.0,88,0.00,,---,0.00,VWS V14.01,2013-09-08 07:46:00,
2013-09-08 03:47:00,66.8,63.1,29.98,West,259,2.0,2.0,88,0.00,,---,0.00,VWS V14.01,2013-09-08 07:47:00,
2013-09-08 03:48:00,66.7,63.0,29.98,WSW,244,1.0,2.0,88,0.00,,---,0.00,VWS V14.01,2013-09-08 07:48:00,
2013-09-08 03:49:00,66.7,63.4,29.98,SW,219,3.0,3.0,89,0.00,,---,0.00,VWS V14.01,2013-09-08 07:49:00,
2013-09-08 03:50:00,66.6,63.3,29.98,WSW,237,1.0,3.0,89,0.00,,---,0.00,VWS V14.01,2013-09-08 07:50:00,
2013-09-08 03:51:00,66.6,63.3,29.98,WSW,238,3.0,3.0,89,0.00,,---,0.00,VWS V14.01,2013-09-08 07:51:00,
2013-09-08 03:52:00,66.6,63.3,29.98,SSW,194,0.0,3.0,89,0.00,,---,0.00,VWS V14.01,2013-09-08 07:52:00,
2013-09-08 03:53:00,66.6,63.3,29.98,SSW,205,1.0,1.0,89,0.00,,---,0.00,VWS V14.01,2013-09-08 07:53:00,
2013-09-08 03:54:00,66.6,63.3,29.98,South,175,1.0,3.0,89,0.00,,---,0.00,VWS V14.01,2013-09-08 07:54:00,
2013-09-08 03:55:00,66.5,63.2,29.98,SW,225,2.0,2.0,89,0.00,,---,0.00,VWS V14.01,2013-09-08 07:55:00,
2013-09-08 03:56:00,66.5,63.2,29.98,SSW,213,2.0,2.0,89,0.00,,---,0.00,VWS V14.01,2013-09-08 07:56:00,
2013-09-08 03:57:00,66.5,63.2,29.98,WSW,245,2.0,2.0,89,0.00,,---,0.00,VWS V14.01,2013-09-08 07:57:00,
2013-09-08 03:58:00,66.5,63.2,29.98,SW,230,1.0,3.0,89,0.00,,---,0.00,VWS V14.01,2013-09-08 07:58:00,
2013-09-08 03:59:00,66.4,63.1,29.98,SSE,152,1.0,1.0,89,0.00,,---,0.00,VWS V14.01,2013-09-08 07:59:00,
2013-09-08 04:00:00,66.4,63.1,29.98,SSW,195,0.0,1.0,89,0.00,,---,0.00,VWS V14.01,2013-09-08 08:00:00,
2013-09-08 04:01:00,66.4,63.1,29.98,SW,232,2.0,2.0,89,0.00,,---,0.00,VWS V14.01,2013-09-08 08:01:00,
2013-09-08 04:02:00,66.4,63.1,29.98,WSW,245,0.0,2.0,89,0.00,,---,0.00,VWS V14.01,2013-09-08 08:02:00,
2013-09-08 04:03:00,66.4,63.1,29.98,WSW,245,0.0,0.0,89,0.00,,---,0.00,VWS V14.01,2013-09-08 08:03:00,
2013-09-08 04:04:00,66.4,63.1,29.98,West,261,1.0,2.0,89,0.00,,---,0.00,VWS V14.01,2013-09-08 08:04:00,
2013-09-08 04:05:00,66.3,63.0,29.98,West,266,2.0,2.0,89,0.00,,---,0.00,VWS V14.01,2013-09-08 08:05:00,
2013-09-08 04:06:00,66.3,63.0,29.98,SW,226,1.0,2.0,89,0.00,,---,0.00,VWS V14.01,2013-09-08 08:06:00,
2013-09-08 04:07:00,66.3,63.0,29.98,SW,215,2.0,2.0,89,0.00,,---,0.00,VWS V14.01,2013-09-08 08:07:00,
2013-09-08 04:09:00,66.2,62.9,29.98,SSW,206,1.0,1.0,89,0.00,,---,0.00,VWS V14.01,2013-09-08 08:09:00,
2013-09-08 04:10:00,66.2,62.9,29.98,South,189,0.0,3.0,89,0.00,,---,0.00,VWS V14.01,2013-09-08 08:10:00,
2013-09-08 04:11:00,66.2,62.9,29.98,SW,230,2.0,2.0,89,0.00,,---,0.00,VWS V14.01,2013-09-08 08:11:00,
2013-09-08 04:12:00,66.2,62.9,29.98,SSW,193,1.0,3.0,89,0.00,,---,0.00,VWS V14.01,2013-09-08 08:12:00,
2013-09-08 04:13:00,66.2,62.9,29.98,South,176,1.0,1.0,89,0.00,,---,0.00,VWS V14.01,2013-09-08 08:13:00,
2013-09-08 04:14:00,66.2,62.9,29.98,SSW,199,1.0,1.0,89,0.00,,---,0.00,VWS V14.01,2013-09-08 08:14:00,
2013-09-08 04:15:00,66.1,62.8,29.98,SSW,195,0.0,1.0,89,0.00,,---,0.00,VWS V14.01,2013-09-08 08:15:00,
2013-09-08 04:16:00,66.1,62.8,29.98,SSW,195,0.0,1.0,89,0.00,,---,0.00,VWS V14.01,2013-09-08 08:16:00,
2013-09-08 04:17:00,66.1,62.8,29.98,SSW,195,0.0,0.0,89,0.00,,---,0.00,VWS V14.01,2013-09-08 08:17:00,
2013-09-08 04:18:00,66.0,62.7,29.98,SSW,195,1.0,1.0,89,0.00,,---,0.00,VWS V14.01,2013-09-08 08:18:00,
2013-09-08 04:19:00,66.0,63.0,29.98,WSW,241,1.0,2.0,90,0.00,,---,0.00,VWS V14.01,2013-09-08 08:19:00,
2013-09-08 04:20:00,66.0,63.0,29.98,WSW,241,1.0,1.0,90,0.00,,---,0.00,VWS V14.01,2013-09-08 08:20:00,
2013-09-08 04:21:00,66.0,63.0,29.98,WSW,241,0.0,1.0,90,0.00,,---,0.00,VWS V14.01,2013-09-08 08:21:00,
2013-09-08 04:22:00,65.9,62.9,29.98,WSW,241,0.0,1.0,90,0.00,,---,0.00,VWS V14.01,2013-09-08 08:22:00,
2013-09-08 04:23:00,65.9,62.9,29.98,WSW,241,0.0,0.0,90,0.00,,---,0.00,VWS V14.01,2013-09-08 08:23:00,
2013-09-08 04:25:00,65.9,62.9,29.98,South,191,0.0,0.0,90,0.00,,---,0.00,VWS V14.01,2013-09-08 08:25:00,
2013-09-08 04:26:00,65.9,62.9,29.98,SSW,194,0.0,0.0,90,0.00,,---,0.00,VWS V14.01,2013-09-08 08:26:00,
2013-09-08 04:27:00,65.8,62.8,29.98,SSW,207,1.0,1.0,90,0.00,,---,0.00,VWS V14.01,2013-09-08 08:27:00,
2013-09-08 04:28:00,65.8,62.8,29.98,SSW,198,0.0,2.0,90,0.00,,---,0.00,VWS V14.01,2013-09-08 08:28:00,
2013-09-08 04:29:00,65.8,62.8,29.98,SSW,199,0.0,0.0,90,0.00,,---,0.00,VWS V14.01,2013-09-08 08:29:00,
2013-09-08 04:30:00,65.8,62.8,29.98,SW,223,1.0,2.0,90,0.00,,---,0.00,VWS V14.01,2013-09-08 08:30:00,
2013-09-08 04:31:00,65.7,62.7,29.98,SW,223,0.0,1.0,90,0.00,,---,0.00,VWS V14.01,2013-09-08 08:31:00,
2013-09-08 04:32:00,65.7,62.7,29.98,SW,223,0.0,0.0,90,0.00,,---,0.00,VWS V14.01,2013-09-08 08:32:00,
2013-09-08 04:34:00,65.7,62.7,29.98,SW,223,0.0,1.0,90,0.00,,---,0.00,VWS V14.01,2013-09-08 08:34:00,
2013-09-08 04:35:00,65.7,62.7,29.98,SW,223,0.0,0.0,90,0.00,,---,0.00,VWS V14.01,2013-09-08 08:35:00,
2013-09-08 04:36:00,65.6,62.6,29.98,SW,214,1.0,2.0,90,0.00,,---,0.00,VWS V14.01,2013-09-08 08:36:00,
2013-09-08 04:37:00,65.6,62.6,29.98,SW,214,1.0,1.0,90,0.00,,---,0.00,VWS V14.01,2013-09-08 08:37:00,
2013-09-08 04:38:00,65.6,62.6,29.98,SW,214,0.0,1.0,90,0.00,,---,0.00,VWS V14.01,2013-09-08 08:38:00,
2013-09-08 04:39:00,65.7,62.7,29.98,SW,214,1.0,1.0,90,0.00,,---,0.00,VWS V14.01,2013-09-08 08:39:00,
2013-09-08 04:40:00,65.6,62.6,29.98,SW,214,1.0,1.0,90,0.00,,---,0.00,VWS V14.01,2013-09-08 08:40:00,
2013-09-08 04:41:00,65.6,62.6,29.98,SW,229,1.0,2.0,90,0.00,,---,0.00,VWS V14.01,2013-09-08 08:41:00,
2013-09-08 04:42:00,65.6,62.6,29.98,SW,229,0.0,1.0,90,0.00,,---,0.00,VWS V14.01,2013-09-08 08:42:00,
2013-09-08 04:43:00,65.6,62.6,29.98,SW,233,1.0,1.0,90,0.00,,---,0.00,VWS V14.01,2013-09-08 08:43:00,
2013-09-08 04:44:00,65.6,62.6,29.98,SW,225,0.0,2.0,90,0.00,,---,0.00,VWS V14.01,2013-09-08 08:44:00,
2013-09-08 04:45:00,65.6,62.6,29.98,SW,225,0.0,0.0,90,0.00,,---,0.00,VWS V14.01,2013-09-08 08:45:00,
2013-09-08 04:46:00,65.6,62.6,29.98,SW,225,1.0,1.0,90,0.00,,---,0.00,VWS V14.01,2013-09-08 08:46:00,
2013-09-08 04:47:00,65.6,62.6,29.97,SW,219,2.0,2.0,90,0.00,,---,0.00,VWS V14.01,2013-09-08 08:47:00,
2013-09-08 04:48:00,65.6,62.6,29.97,SW,219,1.0,2.0,90,0.00,,---,0.00,VWS V14.01,2013-09-08 08:48:00,
2013-09-08 04:49:00,65.6,62.6,29.98,SW,219,1.0,2.0,90,0.00,,---,0.00,VWS V14.01,2013-09-08 08:49:00,
2013-09-08 04:50:00,65.6,62.6,29.97,SW,219,1.0,1.0,90,0.00,,---,0.00,VWS V14.01,2013-09-08 08:50:00,
2013-09-08 04:51:00,65.6,62.6,29.98,SW,219,0.0,1.0,90,0.00,,---,0.00,VWS V14.01,2013-09-08 08:51:00,
2013-09-08 04:52:00,65.6,62.6,29.97,SW,219,0.0,0.0,90,0.00,,---,0.00,VWS V14.01,2013-09-08 08:52:00,
2013-09-08 04:53:00,65.6,62.6,29.97,SW,217,1.0,1.0,90,0.00,,---,0.00,VWS V14.01,2013-09-08 08:53:00,
2013-09-08 04:54:00,65.6,62.6,29.97,SSE,152,1.0,1.0,90,0.00,,---,0.00,VWS V14.01,2013-09-08 08:54:00,
2013-09-08 04:55:00,65.6,62.6,29.97,SSE,152,0.0,1.0,90,0.00,,---,0.00,VWS V14.01,2013-09-08 08:55:00,
2013-09-08 04:56:00,65.6,62.6,29.97,SSE,152,0.0,0.0,90,0.00,,---,0.00,VWS V14.01,2013-09-08 08:56:00,
2013-09-08 04:57:00,65.6,62.6,29.97,SW,225,2.0,2.0,90,0.00,,---,0.00,VWS V14.01,2013-09-08 08:57:00,
2013-09-08 04:58:00,65.6,62.6,29.97,SW,232,0.0,2.0,90,0.00,,---,0.00,VWS V14.01,2013-09-08 08:58:00,
2013-09-08 04:59:00,65.5,62.5,29.97,SW,236,0.0,0.0,90,0.00,,---,0.00,VWS V14.01,2013-09-08 08:59:00,
2013-09-08 05:00:00,65.6,62.6,29.97,SW,214,2.0,2.0,90,0.00,,---,0.00,VWS V14.01,2013-09-08 09:00:00,
2013-09-08 05:01:00,65.6,62.6,29.97,SW,225,0.0,2.0,90,0.00,,---,0.00,VWS V14.01,2013-09-08 09:01:00,
2013-09-08 05:02:00,65.6,62.6,29.97,SSW,195,2.0,2.0,90,0.00,,---,0.00,VWS V14.01,2013-09-08 09:02:00,
2013-09-08 05:03:00,65.5,62.5,29.97,SSW,209,1.0,2.0,90,0.00,,---,0.00,VWS V14.01,2013-09-08 09:03:00,
2013-09-08 05:04:00,65.5,62.5,29.97,SW,218,1.0,1.0,90,0.00,,---,0.00,VWS V14.01,2013-09-08 09:04:00,
2013-09-08 05:05:00,65.5,62.5,29.98,West,263,1.0,2.0,90,0.00,,---,0.00,VWS V14.01,2013-09-08 09:05:00,
2013-09-08 05:06:00,65.5,62.5,29.98,West,263,1.0,2.0,90,0.00,,---,0.00,VWS V14.01,2013-09-08 09:06:00,
2013-09-08 05:07:00,65.5,62.5,29.97,WSW,252,0.0,1.0,90,0.00,,---,0.00,VWS V14.01,2013-09-08 09:07:00,
2013-09-08 05:08:00,65.5,62.5,29.97,WSW,242,1.0,2.0,90,0.00,,---,0.00,VWS V14.01,2013-09-08 09:08:00,
2013-09-08 05:09:00,65.5,62.5,29.98,WSW,246,1.0,2.0,90,0.00,,---,0.00,VWS V14.01,2013-09-08 09:09:00,
2013-09-08 05:10:00,65.5,62.5,29.98,SW,236,2.0,2.0,90,0.00,,---,0.00,VWS V14.01,2013-09-08 09:10:00,
2013-09-08 05:11:00,65.5,62.5,29.98,SW,236,1.0,2.0,90,0.00,,---,0.00,VWS V14.01,2013-09-08 09:11:00,
2013-09-08 05:12:00,65.5,62.5,29.97,WSW,256,2.0,2.0,90,0.00,,---,0.00,VWS V14.01,2013-09-08 09:12:00,
2013-09-08 05:13:00,65.5,62.5,29.97,WSW,249,0.0,2.0,90,0.00,,---,0.00,VWS V14.01,2013-09-08 09:13:00,
2013-09-08 05:14:00,65.4,62.4,29.97,WSW,249,0.0,0.0,90,0.00,,---,0.00,VWS V14.01,2013-09-08 09:14:00,
2013-09-08 05:15:00,65.4,62.4,29.97,SSW,210,2.0,2.0,90,0.00,,---,0.00,VWS V14.01,2013-09-08 09:15:00,
2013-09-08 05:16:00,65.4,62.4,29.97,SW,223,2.0,2.0,90,0.00,,---,0.00,VWS V14.01,2013-09-08 09:16:00,
2013-09-08 05:17:00,65.4,62.4,29.97,SW,223,0.0,2.0,90,0.00,,---,0.00,VWS V14.01,2013-09-08 09:17:00,
2013-09-08 05:18:00,65.4,62.4,29.97,South,169,1.0,2.0,90,0.00,,---,0.00,VWS V14.01,2013-09-08 09:18:00,
2013-09-08 05:19:00,65.4,62.4,29.97,SSW,213,0.0,2.0,90,0.00,,---,0.00,VWS V14.01,2013-09-08 09:19:00,
2013-09-08 05:20:00,65.4,62.4,29.97,SW,214,2.0,2.0,90,0.00,,---,0.00,VWS V14.01,2013-09-08 09:20:00,
2013-09-08 05:21:00,65.4,62.4,29.97,SW,228,3.0,3.0,90,0.00,,---,0.00,VWS V14.01,2013-09-08 09:21:00,
2013-09-08 05:22:00,65.4,62.4,29.97,WSW,238,2.0,3.0,90,0.00,,---,0.00,VWS V14.01,2013-09-08 09:22:00,
2013-09-08 05:23:00,65.4,62.4,29.97,SW,223,1.0,2.0,90,0.00,,---,0.00,VWS V14.01,2013-09-08 09:23:00,
2013-09-08 05:24:00,65.3,62.3,29.97,SW,225,1.0,1.0,90,0.00,,---,0.00,VWS V14.01,2013-09-08 09:24:00,
2013-09-08 05:25:00,65.3,62.3,29.97,West,263,0.0,2.0,90,0.00,,---,0.00,VWS V14.01,2013-09-08 09:25:00,
2013-09-08 05:26:00,65.3,62.3,29.97,West,264,0.0,2.0,90,0.00,,---,0.00,VWS V14.01,2013-09-08 09:26:00,
2013-09-08 05:27:00,65.3,62.3,29.97,SW,226,0.0,2.0,90,0.00,,---,0.00,VWS V14.01,2013-09-08 09:27:00,
2013-09-08 05:28:00,65.3,62.3,29.97,SW,226,0.0,1.0,90,0.00,,---,0.00,VWS V14.01,2013-09-08 09:28:00,
2013-09-08 05:29:00,65.3,62.3,29.97,SW,226,1.0,1.0,90,0.00,,---,0.00,VWS V14.01,2013-09-08 09:29:00,
2013-09-08 05:30:00,65.3,62.3,29.97,SSW,206,2.0,2.0,90,0.00,,---,0.00,VWS V14.01,2013-09-08 09:30:00,
2013-09-08 05:31:00,65.3,62.3,29.97,SSW,208,2.0,2.0,90,0.00,,---,0.00,VWS V14.01,2013-09-08 09:31:00,
2013-09-08 05:32:00,65.2,62.2,29.97,SSW,213,0.0,2.0,90,0.00,,---,0.00,VWS V14.01,2013-09-08 09:32:00,
2013-09-08 05:33:00,65.2,62.2,29.97,SW,233,2.0,2.0,90,0.00,,---,0.00,VWS V14.01,2013-09-08 09:33:00,
2013-09-08 05:34:00,65.2,62.2,29.97,WSW,247,0.0,2.0,90,0.00,,---,0.00,VWS V14.01,2013-09-08 09:34:00,
2013-09-08 05:35:00,65.2,62.2,29.97,SW,232,0.0,2.0,90,0.00,,---,0.00,VWS V14.01,2013-09-08 09:35:00,
2013-09-08 05:36:00,65.2,62.2,29.97,SW,232,0.0,2.0,90,0.00,,---,0.00,VWS V14.01,2013-09-08 09:36:00,
2013-09-08 05:37:00,65.2,62.2,29.97,SW,231,0.0,0.0,90,0.00,,---,0.00,VWS V14.01,2013-09-08 09:37:00,
2013-09-08 05:38:00,65.2,62.2,29.97,SW,230,0.0,1.0,90,0.00,,---,0.00,VWS V14.01,2013-09-08 09:38:00,
2013-09-08 05:39:00,65.2,62.2,29.97,SW,216,1.0,2.0,90,0.00,,---,0.00,VWS V14.01,2013-09-08 09:39:00,
2013-09-08 05:40:00,65.2,62.2,29.97,West,277,2.0,2.0,90,0.00,,---,0.00,VWS V14.01,2013-09-08 09:40:00,
2013-09-08 05:41:00,65.2,62.2,29.97,West,277,1.0,2.0,90,0.00,,---,0.00,VWS V14.01,2013-09-08 09:41:00,
2013-09-08 05:42:00,65.2,62.2,29.97,WSW,256,0.0,1.0,90,0.00,,---,0.00,VWS V14.01,2013-09-08 09:42:00,
2013-09-08 05:43:00,65.2,62.2,29.97,SW,217,2.0,2.0,90,0.00,,---,0.00,VWS V14.01,2013-09-08 09:43:00,
2013-09-08 05:44:00,65.2,62.2,29.97,SW,233,1.0,2.0,90,0.00,,---,0.00,VWS V14.01,2013-09-08 09:44:00,
2013-09-08 05:45:00,65.2,62.2,29.97,WSW,238,0.0,2.0,90,0.00,,---,0.00,VWS V14.01,2013-09-08 09:45:00,
2013-09-08 05:46:00,65.2,62.2,29.97,WSW,238,0.0,2.0,90,0.00,,---,0.00,VWS V14.01,2013-09-08 09:46:00,
2013-09-08 05:47:00,65.2,62.2,29.97,SW,217,2.0,2.0,90,0.00,,---,0.00,VWS V14.01,2013-09-08 09:47:00,
2013-09-08 05:48:00,65.2,62.5,29.97,SW,223,2.0,2.0,91,0.00,,---,0.00,VWS V14.01,2013-09-08 09:48:00,
2013-09-08 05:49:00,65.2,62.2,29.97,WSW,241,1.0,2.0,90,0.00,,---,0.00,VWS V14.01,2013-09-08 09:49:00,
2013-09-08 05:50:00,65.1,62.4,29.97,WSW,241,0.0,0.0,91,0.00,,---,0.00,VWS V14.01,2013-09-08 09:50:00,
2013-09-08 05:51:00,65.1,62.4,29.97,WSW,241,0.0,0.0,91,0.00,,---,0.00,VWS V14.01,2013-09-08 09:51:00,
2013-09-08 05:52:00,65.1,62.4,29.97,SW,233,1.0,1.0,91,0.00,,---,0.00,VWS V14.01,2013-09-08 09:52:00,
2013-09-08 05:53:00,65.1,62.4,29.97,SW,215,0.0,1.0,91,0.00,,---,0.00,VWS V14.01,2013-09-08 09:53:00,
2013-09-08 05:54:00,65.1,62.4,29.97,SSW,198,2.0,2.0,91,0.00,,---,0.00,VWS V14.01,2013-09-08 09:54:00,
2013-09-08 05:55:00,65.1,62.4,29.97,WSW,242,0.0,0.0,91,0.00,,---,0.00,VWS V14.01,2013-09-08 09:55:00,
2013-09-08 05:56:00,65.1,62.4,29.97,WSW,242,0.0,0.0,91,0.00,,---,0.00,VWS V14.01,2013-09-08 09:56:00,
2013-09-08 05:57:00,65.1,62.4,29.97,WSW,237,0.0,0.0,91,0.00,,---,0.00,VWS V14.01,2013-09-08 09:57:00,
2013-09-08 05:58:00,65.0,62.3,29.97,WSW,237,0.0,0.0,91,0.00,,---,0.00,VWS V14.01,2013-09-08 09:58:00,
2013-09-08 05:59:00,65.0,62.3,29.97,SSW,213,0.0,0.0,91,0.00,,---,0.00,VWS V14.01,2013-09-08 09:59:00,
2013-09-08 06:00:00,65.0,62.3,29.97,SW,233,2.0,2.0,91,0.00,,---,0.00,VWS V14.01,2013-09-08 10:00:00,
2013-09-08 06:01:00,65.0,62.3,29.97,WSW,247,2.0,2.0,91,0.00,,---,0.00,VWS V14.01,2013-09-08 10:01:00,
2013-09-08 06:02:00,65.0,62.3,29.97,WSW,250,0.0,2.0,91,0.00,,---,0.00,VWS V14.01,2013-09-08 10:02:00,
2013-09-08 06:03:00,65.0,62.3,29.98,WSW,249,1.0,1.0,91,0.00,,---,0.00,VWS V14.01,2013-09-08 10:03:00,
2013-09-08 06:04:00,65.0,62.3,29.97,WSW,249,0.0,1.0,91,0.00,,---,0.00,VWS V14.01,2013-09-08 10:04:00,
2013-09-08 06:05:00,65.0,62.3,29.97,SW,227,1.0,2.0,91,0.00,,---,0.00,VWS V14.01,2013-09-08 10:05:00,
2013-09-08 06:06:00,65.0,62.3,29.97,SSW,213,2.0,2.0,91,0.00,,---,0.00,VWS V14.01,2013-09-08 10:06:00,
2013-09-08 06:07:00,64.9,62.2,29.97,SW,225,1.0,2.0,91,0.00,,---,0.00,VWS V14.01,2013-09-08 10:07:00,
2013-09-08 06:08:00,65.0,62.3,29.98,SW,214,0.0,1.0,91,0.00,,---,0.00,VWS V14.01,2013-09-08 10:08:00,
2013-09-08 06:09:00,64.9,62.2,29.98,SW,236,1.0,2.0,91,0.00,,---,0.00,VWS V14.01,2013-09-08 10:09:00,
2013-09-08 06:10:00,64.9,62.2,29.97,SW,232,0.0,0.0,91,0.00,,---,0.00,VWS V14.01,2013-09-08 10:10:00,
2013-09-08 06:12:00,64.9,62.2,29.98,SW,232,0.0,0.0,91,0.00,,---,0.00,VWS V14.01,2013-09-08 10:12:00,
2013-09-08 06:13:00,64.9,62.2,29.98,WSW,244,1.0,3.0,91,0.00,,---,0.00,VWS V14.01,2013-09-08 10:13:00,
2013-09-08 06:14:00,64.9,62.2,29.98,WSW,246,1.0,2.0,91,0.00,,---,0.00,VWS V14.01,2013-09-08 10:14:00,
2013-09-08 06:15:00,64.9,62.2,29.98,SW,231,1.0,2.0,91,0.00,,---,0.00,VWS V14.01,2013-09-08 10:15:00,
2013-09-08 06:16:00,64.9,62.2,29.98,WSW,242,1.0,2.0,91,0.00,,---,0.00,VWS V14.01,2013-09-08 10:16:00,
2013-09-08 06:17:00,64.8,62.1,29.98,WSW,242,0.0,1.0,91,0.00,,---,0.00,VWS V14.01,2013-09-08 10:17:00,
2013-09-08 06:18:00,64.8,62.1,29.98,WSW,242,0.0,0.0,91,0.00,,---,0.00,VWS V14.01,2013-09-08 10:18:00,
2013-09-08 06:19:00,64.9,62.2,29.98,WSW,242,0.0,1.0,91,0.00,,---,0.00,VWS V14.01,2013-09-08 10:19:00,
2013-09-08 06:20:00,64.8,62.1,29.98,WSW,246,1.0,3.0,91,0.00,,---,0.00,VWS V14.01,2013-09-08 10:20:00,
2013-09-08 06:21:00,64.8,62.1,29.98,WSW,246,1.0,3.0,91,0.00,,---,0.00,VWS V14.01,2013-09-08 10:21:00,
2013-09-08 06:22:00,64.8,62.1,29.98,WSW,249,1.0,1.0,91,0.00,,---,0.00,VWS V14.01,2013-09-08 10:22:00,
2013-09-08 06:23:00,64.8,62.1,29.98,WSW,240,1.0,2.0,91,0.00,,---,0.00,VWS V14.01,2013-09-08 10:23:00,
2013-09-08 06:24:00,64.8,62.1,29.98,WSW,240,0.0,1.0,91,0.00,,---,0.00,VWS V14.01,2013-09-08 10:24:00,
2013-09-08 06:25:00,64.8,62.1,29.98,WSW,240,0.0,0.0,91,0.00,,---,0.00,VWS V14.01,2013-09-08 10:25:00,
2013-09-08 06:26:00,64.8,62.1,29.98,WSW,240,0.0,0.0,91,0.00,,---,0.00,VWS V14.01,2013-09-08 10:26:00,
2013-09-08 06:27:00,64.8,62.1,29.98,WSW,240,0.0,0.0,91,0.00,,---,0.00,VWS V14.01,2013-09-08 10:27:00,
2013-09-08 06:28:00,64.8,62.1,29.98,WSW,240,0.0,0.0,91,0.00,,---,0.00,VWS V14.01,2013-09-08 10:28:00,
2013-09-08 06:29:00,64.8,62.1,29.98,WSW,240,0.0,0.0,91,0.00,,---,0.00,VWS V14.01,2013-09-08 10:29:00,
2013-09-08 06:30:00,64.8,62.1,29.98,West,272,0.0,0.0,91,0.00,,---,0.00,VWS V14.01,2013-09-08 10:30:00,
2013-09-08 06:31:00,64.8,62.1,29.98,West,273,2.0,2.0,91,0.00,,---,0.00,VWS V14.01,2013-09-08 10:31:00,
2013-09-08 06:32:00,64.8,62.1,29.98,West,275,1.0,2.0,91,0.00,,---,0.00,VWS V14.01,2013-09-08 10:32:00,
2013-09-08 06:33:00,64.8,62.1,29.98,West,275,0.0,1.0,91,0.00,,---,0.00,VWS V14.01,2013-09-08 10:33:00,
2013-09-08 06:34:00,64.8,62.1,29.98,West,275,0.0,0.0,91,0.00,,---,0.00,VWS V14.01,2013-09-08 10:34:00,
2013-09-08 06:35:00,64.8,62.1,29.98,West,274,0.0,0.0,91,0.00,,---,0.00,VWS V14.01,2013-09-08 10:35:00,
2013-09-08 06:36:00,64.8,62.1,29.98,West,275,0.0,0.0,91,0.00,,---,0.00,VWS V14.01,2013-09-08 10:36:00,
2013-09-08 06:37:00,64.8,62.1,29.98,West,275,0.0,0.0,91,0.00,,---,0.00,VWS V14.01,2013-09-08 10:37:00,
2013-09-08 06:38:00,64.8,62.1,29.98,West,275,0.0,0.0,91,0.00,,---,0.00,VWS V14.01,2013-09-08 10:38:00,
2013-09-08 06:39:00,64.8,62.1,29.98,West,275,0.0,0.0,91,0.00,,---,0.00,VWS V14.01,2013-09-08 10:39:00,
2013-09-08 06:40:00,64.8,62.1,29.98,West,275,0.0,0.0,91,0.00,,---,0.00,VWS V14.01,2013-09-08 10:40:00,
2013-09-08 06:41:00,64.8,62.1,29.98,West,275,0.0,0.0,91,0.00,,---,0.00,VWS V14.01,2013-09-08 10:41:00,
2013-09-08 06:42:00,64.8,62.1,29.98,West,275,0.0,0.0,91,0.00,,---,0.00,VWS V14.01,2013-09-08 10:42:00,
2013-09-08 06:43:00,64.8,62.1,29.98,West,275,0.0,0.0,91,0.00,,---,0.00,VWS V14.01,2013-09-08 10:43:00,
2013-09-08 06:44:00,64.8,62.1,29.98,West,275,0.0,0.0,91,0.00,,---,0.00,VWS V14.01,2013-09-08 10:44:00,
2013-09-08 06:45:00,64.8,62.1,29.98,West,275,0.0,0.0,91,0.00,,---,0.00,VWS V14.01,2013-09-08 10:45:00,
2013-09-08 06:46:00,64.8,62.1,29.98,West,275,0.0,0.0,91,0.00,,---,0.00,VWS V14.01,2013-09-08 10:46:00,
2013-09-08 06:47:00,64.8,62.1,29.98,West,275,0.0,0.0,91,0.00,,---,0.00,VWS V14.01,2013-09-08 10:47:00,
2013-09-08 06:48:00,64.8,62.1,29.98,West,275,0.0,0.0,91,0.00,,---,0.00,VWS V14.01,2013-09-08 10:48:00,
2013-09-08 06:49:00,64.8,62.1,29.98,West,275,0.0,0.0,91,0.00,,---,0.00,VWS V14.01,2013-09-08 10:49:00,
2013-09-08 06:50:00,64.8,62.1,29.98,West,275,0.0,0.0,91,0.00,,---,0.00,VWS V14.01,2013-09-08 10:50:00,
2013-09-08 06:51:00,64.8,62.1,29.98,West,275,0.0,0.0,91,0.00,,---,0.00,VWS V14.01,2013-09-08 10:51:00,
2013-09-08 06:52:00,64.7,62.0,29.98,West,275,0.0,0.0,91,0.00,,---,0.00,VWS V14.01,2013-09-08 10:52:00,
2013-09-08 06:53:00,64.8,62.1,29.98,West,275,0.0,0.0,91,0.00,,---,0.00,VWS V14.01,2013-09-08 10:53:00,
2013-09-08 06:54:00,64.7,62.0,29.98,West,275,0.0,0.0,91,0.00,,---,0.00,VWS V14.01,2013-09-08 10:54:00,
2013-09-08 06:55:00,64.7,62.0,29.98,West,275,0.0,0.0,91,0.00,,---,0.00,VWS V14.01,2013-09-08 10:55:00,
2013-09-08 06:56:00,64.7,62.0,29.98,West,275,0.0,0.0,91,0.00,,---,0.00,VWS V14.01,2013-09-08 10:56:00,
2013-09-08 06:57:00,64.7,62.0,29.98,West,275,0.0,0.0,91,0.00,,---,0.00,VWS V14.01,2013-09-08 10:57:00,
2013-09-08 06:58:00,64.7,62.0,29.98,West,275,0.0,0.0,91,0.00,,---,0.00,VWS V14.01,2013-09-08 10:58:00,
2013-09-08 06:59:00,64.7,62.0,29.98,West,275,0.0,0.0,91,0.00,,---,0.00,VWS V14.01,2013-09-08 10:59:00,
2013-09-08 07:00:00,64.7,62.0,29.98,West,275,0.0,0.0,91,0.00,,---,0.00,VWS V14.01,2013-09-08 11:00:00,
2013-09-08 07:01:00,64.7,62.0,29.98,West,275,0.0,0.0,91,0.00,,---,0.00,VWS V14.01,2013-09-08 11:01:00,
2013-09-08 07:02:00,64.7,62.0,29.98,West,275,0.0,0.0,91,0.00,,---,0.00,VWS V14.01,2013-09-08 11:02:00,
2013-09-08 07:03:00,64.7,62.0,29.99,West,275,0.0,0.0,91,0.00,,---,0.00,VWS V14.01,2013-09-08 11:03:00,
2013-09-08 07:04:00,64.7,62.0,29.99,West,275,0.0,0.0,91,0.00,,---,0.00,VWS V14.01,2013-09-08 11:04:00,
2013-09-08 07:05:00,64.7,62.0,29.99,West,275,0.0,0.0,91,0.00,,---,0.00,VWS V14.01,2013-09-08 11:05:00,
2013-09-08 07:06:00,64.8,62.1,29.99,West,275,0.0,0.0,91,0.00,,---,0.00,VWS V14.01,2013-09-08 11:06:00,
2013-09-08 07:07:00,64.8,62.1,29.99,West,275,0.0,0.0,91,0.00,,---,0.00,VWS V14.01,2013-09-08 11:07:00,
2013-09-08 07:08:00,64.8,62.1,29.99,West,275,0.0,0.0,91,0.00,,---,0.00,VWS V14.01,2013-09-08 11:08:00,
2013-09-08 07:09:00,64.9,62.2,29.99,West,275,0.0,0.0,91,0.00,,---,0.00,VWS V14.01,2013-09-08 11:09:00,
2013-09-08 07:10:00,64.9,62.2,29.99,West,275,0.0,0.0,91,0.00,,---,0.00,VWS V14.01,2013-09-08 11:10:00,
2013-09-08 07:11:00,64.9,62.2,29.99,West,275,0.0,0.0,91,0.00,,---,0.00,VWS V14.01,2013-09-08 11:11:00,
2013-09-08 07:12:00,65.0,62.3,29.99,West,275,0.0,0.0,91,0.00,,---,0.00,VWS V14.01,2013-09-08 11:12:00,
2013-09-08 07:13:00,65.0,62.3,29.98,West,275,0.0,0.0,91,0.00,,---,0.00,VWS V14.01,2013-09-08 11:13:00,
2013-09-08 07:14:00,65.0,62.3,29.98,West,275,0.0,0.0,91,0.00,,---,0.00,VWS V14.01,2013-09-08 11:14:00,
2013-09-08 07:15:00,65.0,62.3,29.98,West,275,0.0,0.0,91,0.00,,---,0.00,VWS V14.01,2013-09-08 11:15:00,
2013-09-08 07:17:00,65.1,62.4,29.98,West,273,0.0,0.0,91,0.00,,---,0.00,VWS V14.01,2013-09-08 11:17:00,
2013-09-08 07:18:00,65.1,62.4,29.98,WSW,257,0.0,0.0,91,0.00,,---,0.00,VWS V14.01,2013-09-08 11:18:00,
2013-09-08 07:19:00,65.1,62.4,29.98,West,261,0.0,0.0,91,0.00,,---,0.00,VWS V14.01,2013-09-08 11:19:00,
2013-09-08 07:20:00,65.2,62.5,29.99,West,271,2.0,2.0,91,0.00,,---,0.00,VWS V14.01,2013-09-08 11:20:00,
2013-09-08 07:21:00,65.2,62.5,29.99,West,270,1.0,2.0,91,0.00,,---,0.00,VWS V14.01,2013-09-08 11:21:00,
2013-09-08 07:22:00,65.2,62.5,29.99,West,267,1.0,1.0,91,0.00,,---,0.00,VWS V14.01,2013-09-08 11:22:00,
2013-09-08 07:23:00,65.2,62.5,29.99,West,264,3.0,3.0,91,0.00,,---,0.00,VWS V14.01,2013-09-08 11:23:00,
2013-09-08 07:24:00,65.2,62.5,29.99,West,276,2.0,3.0,91,0.00,,---,0.00,VWS V14.01,2013-09-08 11:24:00,
2013-09-08 07:25:00,65.3,62.6,29.99,West,279,1.0,1.0,91,0.00,,---,0.00,VWS V14.01,2013-09-08 11:25:00,
2013-09-08 07:26:00,65.4,62.7,29.99,WSW,252,1.0,2.0,91,0.00,,---,0.00,VWS V14.01,2013-09-08 11:26:00,
2013-09-08 07:28:00,65.4,62.7,29.98,West,259,1.0,3.0,91,0.00,,---,0.00,VWS V14.01,2013-09-08 11:28:00,
2013-09-08 07:29:00,65.5,62.8,29.98,West,263,2.0,3.0,91,0.00,,---,0.00,VWS V14.01,2013-09-08 11:29:00,
2013-09-08 07:30:00,65.6,62.9,29.98,West,260,1.0,2.0,91,0.00,,---,0.00,VWS V14.01,2013-09-08 11:30:00,
2013-09-08 07:31:00,65.6,62.6,29.98,West,259,2.0,2.0,90,0.00,,---,0.00,VWS V14.01,2013-09-08 11:31:00,
2013-09-08 07:32:00,65.7,62.7,29.98,WSW,257,3.0,3.0,90,0.00,,---,0.00,VWS V14.01,2013-09-08 11:32:00,
2013-09-08 07:33:00,65.7,62.7,29.98,West,264,1.0,3.0,90,0.00,,---,0.00,VWS V14.01,2013-09-08 11:33:00,
2013-09-08 07:34:00,65.8,62.8,29.98,WSW,246,2.0,2.0,90,0.00,,---,0.00,VWS V14.01,2013-09-08 11:34:00,
2013-09-08 07:35:00,65.8,62.8,29.98,West,259,1.0,2.0,90,0.00,,---,0.00,VWS V14.01,2013-09-08 11:35:00,
2013-09-08 07:36:00,65.9,62.9,29.98,West,259,2.0,2.0,90,0.00,,---,0.00,VWS V14.01,2013-09-08 11:36:00,
2013-09-08 07:37:00,65.9,62.9,29.98,West,264,1.0,2.0,90,0.00,,---,0.00,VWS V14.01,2013-09-08 11:37:00,
2013-09-08 07:38:00,65.9,62.9,29.98,WSW,256,3.0,3.0,90,0.00,,---,0.00,VWS V14.01,2013-09-08 11:38:00,
2013-09-08 07:39:00,66.0,63.0,29.99,WSW,256,1.0,3.0,90,0.00,,---,0.00,VWS V14.01,2013-09-08 11:39:00,
2013-09-08 07:40:00,66.1,63.1,29.99,WSW,256,0.0,0.0,90,0.00,,---,0.00,VWS V14.01,2013-09-08 11:40:00,
2013-09-08 07:41:00,66.1,63.1,29.99,WSW,256,0.0,0.0,90,0.00,,---,0.00,VWS V14.01,2013-09-08 11:41:00,
2013-09-08 07:42:00,66.2,63.2,29.98,WSW,256,1.0,1.0,90,0.00,,---,0.00,VWS V14.01,2013-09-08 11:42:00,
2013-09-08 07:43:00,66.2,63.2,29.98,WSW,254,1.0,2.0,90,0.00,,---,0.00,VWS V14.01,2013-09-08 11:43:00,
2013-09-08 07:44:00,66.3,63.3,29.98,West,268,3.0,3.0,90,0.00,,---,0.00,VWS V14.01,2013-09-08 11:44:00,
2013-09-08 07:45:00,66.4,63.4,29.98,WSW,253,2.0,2.0,90,0.00,,---,0.00,VWS V14.01,2013-09-08 11:45:00,
2013-09-08 07:46:00,66.4,63.4,29.98,West,268,1.0,2.0,90,0.00,,---,0.00,VWS V14.01,2013-09-08 11:46:00,
2013-09-08 07:47:00,66.5,63.5,29.98,West,271,2.0,2.0,90,0.00,,---,0.00,VWS V14.01,2013-09-08 11:47:00,
2013-09-08 07:48:00,66.6,63.6,29.98,West,265,1.0,4.0,90,0.00,,---,0.00,VWS V14.01,2013-09-08 11:48:00,
2013-09-08 07:49:00,66.7,63.4,29.98,WSW,247,2.0,3.0,89,0.00,,---,0.00,VWS V14.01,2013-09-08 11:49:00,
2013-09-08 07:50:00,66.8,63.5,29.98,West,273,2.0,2.0,89,0.00,,---,0.00,VWS V14.01,2013-09-08 11:50:00,
2013-09-08 07:51:00,66.9,63.6,29.98,WSW,256,2.0,5.0,89,0.00,,---,0.00,VWS V14.01,2013-09-08 11:51:00,
2013-09-08 07:52:00,67.0,63.7,29.98,WNW,291,3.0,5.0,89,0.00,,---,0.00,VWS V14.01,2013-09-08 11:52:00,
2013-09-08 07:53:00,67.1,63.8,29.98,WSW,258,4.0,4.0,89,0.00,,---,0.00,VWS V14.01,2013-09-08 11:53:00,
2013-09-08 07:54:00,67.2,63.8,29.98,WSW,250,2.0,4.0,89,0.00,,---,0.00,VWS V14.01,2013-09-08 11:54:00,
2013-09-08 07:55:00,67.3,64.0,29.98,West,279,2.0,4.0,89,0.00,,---,0.00,VWS V14.01,2013-09-08 11:55:00,
2013-09-08 07:56:00,67.4,64.1,29.98,West,277,3.0,4.0,89,0.00,,---,0.00,VWS V14.01,2013-09-08 11:56:00,
2013-09-08 07:57:00,67.5,63.8,29.98,West,267,1.0,3.0,88,0.00,,---,0.00,VWS V14.01,2013-09-08 11:57:00,
2013-09-08 07:58:00,67.6,63.9,29.98,West,280,3.0,3.0,88,0.00,,---,0.00,VWS V14.01,2013-09-08 11:58:00,
2013-09-08 07:59:00,67.7,64.0,29.98,WNW,294,1.0,3.0,88,0.00,,---,0.00,VWS V14.01,2013-09-08 11:59:00,
2013-09-08 08:00:00,67.8,64.1,29.98,WNW,287,2.0,3.0,88,0.00,,---,0.00,VWS V14.01,2013-09-08 12:00:00,
2013-09-08 08:01:00,67.9,64.2,29.98,NW,310,2.0,3.0,88,0.00,,---,0.00,VWS V14.01,2013-09-08 12:01:00,
2013-09-08 08:02:00,68.0,64.3,29.98,WNW,292,0.0,2.0,88,0.00,,---,0.00,VWS V14.01,2013-09-08 12:02:00,
2013-09-08 08:03:00,68.1,64.4,29.98,West,263,3.0,3.0,88,0.00,,---,0.00,VWS V14.01,2013-09-08 12:03:00,
2013-09-08 08:04:00,68.2,64.2,29.98,West,279,2.0,3.0,87,0.00,,---,0.00,VWS V14.01,2013-09-08 12:04:00,
2013-09-08 08:05:00,68.3,64.3,29.98,West,271,5.0,5.0,87,0.00,,---,0.00,VWS V14.01,2013-09-08 12:05:00,
2013-09-08 08:06:00,68.3,64.3,29.98,West,273,3.0,5.0,87,0.00,,---,0.00,VWS V14.01,2013-09-08 12:06:00,
2013-09-08 08:07:00,68.4,64.4,29.98,West,278,3.0,3.0,87,0.00,,---,0.00,VWS V14.01,2013-09-08 12:07:00,
2013-09-08 08:08:00,68.5,64.5,29.98,West,262,3.0,3.0,87,0.00,,---,0.00,VWS V14.01,2013-09-08 12:08:00,
2013-09-08 08:09:00,68.6,64.6,29.98,West,276,3.0,4.0,87,0.00,,---,0.00,VWS V14.01,2013-09-08 12:09:00,
2013-09-08 08:10:00,68.7,64.3,29.98,West,266,5.0,5.0,86,0.00,,---,0.00,VWS V14.01,2013-09-08 12:10:00,
2013-09-08 08:11:00,68.7,64.3,29.98,West,279,4.0,5.0,86,0.00,,---,0.00,VWS V14.01,2013-09-08 12:11:00,
2013-09-08 08:12:00,68.8,64.4,29.98,West,276,1.0,4.0,86,0.00,,---,0.00,VWS V14.01,2013-09-08 12:12:00,
2013-09-08 08:13:00,68.9,64.9,29.98,WNW,283,2.0,2.0,87,0.00,,---,0.00,VWS V14.01,2013-09-08 12:13:00,
2013-09-08 08:14:00,68.9,64.5,29.98,West,281,4.0,5.0,86,0.00,,---,0.00,VWS V14.01,2013-09-08 12:14:00,
2013-09-08 08:15:00,69.0,64.6,29.98,West,277,1.0,2.0,86,0.00,,---,0.00,VWS V14.01,2013-09-08 12:15:00,
2013-09-08 08:16:00,69.0,64.6,29.98,West,267,2.0,3.0,86,0.00,,---,0.00,VWS V14.01,2013-09-08 12:16:00,
2013-09-08 08:17:00,69.1,64.7,29.98,WNW,301,3.0,3.0,86,0.00,,---,0.00,VWS V14.01,2013-09-08 12:17:00,
2013-09-08 08:18:00,69.2,64.8,29.98,West,278,2.0,3.0,86,0.00,,---,0.00,VWS V14.01,2013-09-08 12:18:00,
2013-09-08 08:19:00,69.2,64.8,29.98,WNW,288,2.0,3.0,86,0.00,,---,0.00,VWS V14.01,2013-09-08 12:19:00,
2013-09-08 08:20:00,69.3,64.9,29.98,West,267,1.0,2.0,86,0.00,,---,0.00,VWS V14.01,2013-09-08 12:20:00,
2013-09-08 08:21:00,69.4,65.0,29.98,WNW,291,1.0,2.0,86,0.00,,---,0.00,VWS V14.01,2013-09-08 12:21:00,
2013-09-08 08:22:00,69.4,65.0,29.98,West,277,4.0,6.0,86,0.00,,---,0.00,VWS V14.01,2013-09-08 12:22:00,
2013-09-08 08:23:00,69.4,65.0,29.98,West,277,3.0,5.0,86,0.00,,---,0.00,VWS V14.01,2013-09-08 12:23:00,
2013-09-08 08:24:00,69.4,64.7,29.98,WNW,298,3.0,4.0,85,0.00,,---,0.00,VWS V14.01,2013-09-08 12:24:00,
2013-09-08 08:25:00,69.5,65.1,29.98,West,266,3.0,4.0,86,0.00,,---,0.00,VWS V14.01,2013-09-08 12:25:00,
2013-09-08 08:26:00,69.5,65.1,29.98,West,271,3.0,4.0,86,0.00,,---,0.00,VWS V14.01,2013-09-08 12:26:00,
2013-09-08 08:27:00,69.6,65.2,29.98,WNW,292,4.0,4.0,86,0.00,,---,0.00,VWS V14.01,2013-09-08 12:27:00,
2013-09-08 08:28:00,69.6,64.9,29.98,West,265,3.0,5.0,85,0.00,,---,0.00,VWS V14.01,2013-09-08 12:28:00,
2013-09-08 08:29:00,69.7,65.3,29.98,West,265,2.0,3.0,86,0.00,,---,0.00,VWS V14.01,2013-09-08 12:29:00,
2013-09-08 08:30:00,69.8,65.4,29.98,WNW,288,2.0,3.0,86,0.00,,---,0.00,VWS V14.01,2013-09-08 12:30:00,
2013-09-08 08:31:00,69.8,65.1,29.98,West,267,2.0,3.0,85,0.00,,---,0.00,VWS V14.01,2013-09-08 12:31:00,
2013-09-08 08:32:00,69.9,65.2,29.98,WNW,301,2.0,3.0,85,0.00,,---,0.00,VWS V14.01,2013-09-08 12:32:00,
2013-09-08 08:33:00,69.9,65.5,29.98,West,280,4.0,4.0,86,0.00,,---,0.00,VWS V14.01,2013-09-08 12:33:00,
2013-09-08 08:34:00,70.0,65.3,29.98,West,269,2.0,4.0,85,0.00,,---,0.00,VWS V14.01,2013-09-08 12:34:00,
2013-09-08 08:35:00,70.1,65.4,29.98,West,260,4.0,5.0,85,0.00,,---,0.00,VWS V14.01,2013-09-08 12:35:00,
2013-09-08 08:36:00,70.1,65.4,29.98,West,260,2.0,5.0,85,0.00,,---,0.00,VWS V14.01,2013-09-08 12:36:00,
2013-09-08 08:37:00,70.1,65.4,29.98,West,265,2.0,3.0,85,0.00,,---,0.00,VWS V14.01,2013-09-08 12:37:00,
2013-09-08 08:38:00,70.2,65.5,29.98,West,281,3.0,5.0,85,0.00,,---,0.00,VWS V14.01,2013-09-08 12:38:00,
2013-09-08 08:39:00,70.2,65.5,29.98,West,263,3.0,5.0,85,0.00,,---,0.00,VWS V14.01,2013-09-08 12:39:00,
2013-09-08 08:40:00,70.3,65.6,29.98,West,278,3.0,3.0,85,0.00,,---,0.00,VWS V14.01,2013-09-08 12:40:00,
2013-09-08 08:41:00,70.3,65.6,29.98,WNW,300,2.0,4.0,85,0.00,,---,0.00,VWS V14.01,2013-09-08 12:41:00,
2013-09-08 08:42:00,70.4,65.7,29.98,WSW,256,1.0,3.0,85,0.00,,---,0.00,VWS V14.01,2013-09-08 12:42:00,
2013-09-08 08:43:00,70.5,65.8,29.98,WNW,295,3.0,3.0,85,0.00,,---,0.00,VWS V14.01,2013-09-08 12:43:00,
2013-09-08 08:44:00,70.6,65.9,29.98,West,272,3.0,3.0,85,0.00,,---,0.00,VWS V14.01,2013-09-08 12:44:00,
2013-09-08 08:45:00,70.7,66.0,29.98,West,278,4.0,4.0,85,0.00,,---,0.00,VWS V14.01,2013-09-08 12:45:00,
2013-09-08 08:46:00,70.7,66.0,29.98,WNW,286,3.0,4.0,85,0.00,,---,0.00,VWS V14.01,2013-09-08 12:46:00,
2013-09-08 08:47:00,70.8,66.1,29.98,West,273,1.0,3.0,85,0.00,,---,0.00,VWS V14.01,2013-09-08 12:47:00,
2013-09-08 08:48:00,70.8,66.1,29.98,WNW,294,3.0,5.0,85,0.00,,---,0.00,VWS V14.01,2013-09-08 12:48:00,
2013-09-08 08:49:00,70.9,66.2,29.98,WSW,250,3.0,3.0,85,0.00,,---,0.00,VWS V14.01,2013-09-08 12:49:00,
2013-09-08 08:50:00,71.0,66.3,29.98,WSW,244,2.0,2.0,85,0.00,,---,0.00,VWS V14.01,2013-09-08 12:50:00,
2013-09-08 08:51:00,71.1,66.4,29.98,NW,311,2.0,2.0,85,0.00,,---,0.00,VWS V14.01,2013-09-08 12:51:00,
2013-09-08 08:52:00,71.2,66.5,29.98,NW,313,1.0,2.0,85,0.00,,---,0.00,VWS V14.01,2013-09-08 12:52:00,
2013-09-08 08:53:00,71.3,66.2,29.98,West,268,0.0,2.0,84,0.00,,---,0.00,VWS V14.01,2013-09-08 12:53:00,
2013-09-08 08:54:00,71.3,66.2,29.98,NW,317,2.0,2.0,84,0.00,,---,0.00,VWS V14.01,2013-09-08 12:54:00,
2013-09-08 08:55:00,71.4,66.3,29.98,NW,311,2.0,2.0,84,0.00,,---,0.00,VWS V14.01,2013-09-08 12:55:00,
2013-09-08 08:56:00,71.5,66.4,29.98,NNE,32,0.0,2.0,84,0.00,,---,0.00,VWS V14.01,2013-09-08 12:56:00,
2013-09-08 08:57:00,71.6,66.5,29.98,WSW,250,1.0,2.0,84,0.00,,---,0.00,VWS V14.01,2013-09-08 12:57:00,
2013-09-08 08:58:00,71.7,66.6,29.98,WSW,248,3.0,3.0,84,0.00,,---,0.00,VWS V14.01,2013-09-08 12:58:00,
2013-09-08 08:59:00,71.7,66.6,29.98,SSW,205,1.0,4.0,84,0.00,,---,0.00,VWS V14.01,2013-09-08 12:59:00,
2013-09-08 09:00:00,71.8,66.7,29.98,West,259,2.0,2.0,84,0.00,,---,0.00,VWS V14.01,2013-09-08 13:00:00,
2013-09-08 09:01:00,71.9,66.8,29.98,WNW,291,1.0,3.0,84,0.00,,---,0.00,VWS V14.01,2013-09-08 13:01:00,
2013-09-08 09:02:00,72.0,66.9,29.98,WSW,245,0.0,1.0,84,0.00,,---,0.00,VWS V14.01,2013-09-08 13:02:00,
2013-09-08 09:03:00,72.0,66.9,29.98,West,259,0.0,3.0,84,0.00,,---,0.00,VWS V14.01,2013-09-08 13:03:00,
2013-09-08 09:04:00,72.1,66.7,29.98,WNW,286,3.0,3.0,83,0.00,,---,0.00,VWS V14.01,2013-09-08 13:04:00,
2013-09-08 09:05:00,72.2,66.8,29.98,West,278,1.0,1.0,83,0.00,,---,0.00,VWS V14.01,2013-09-08 13:05:00,
2013-09-08 09:06:00,72.2,66.8,29.98,WNW,287,2.0,3.0,83,0.00,,---,0.00,VWS V14.01,2013-09-08 13:06:00,
2013-09-08 09:07:00,72.2,66.8,29.98,WNW,288,1.0,3.0,83,0.00,,---,0.00,VWS V14.01,2013-09-08 13:07:00,
2013-09-08 09:08:00,72.2,66.8,29.98,NW,308,1.0,3.0,83,0.00,,---,0.00,VWS V14.01,2013-09-08 13:08:00,
2013-09-08 09:09:00,72.3,66.8,29.98,WNW,291,0.0,1.0,83,0.00,,---,0.00,VWS V14.01,2013-09-08 13:09:00,
2013-09-08 09:10:00,72.4,67.3,29.98,West,281,0.0,0.0,84,0.00,,---,0.00,VWS V14.01,2013-09-08 13:10:00,
2013-09-08 09:11:00,72.4,66.9,29.98,NW,311,0.0,2.0,83,0.00,,---,0.00,VWS V14.01,2013-09-08 13:11:00,
2013-09-08 09:12:00,72.5,66.7,29.98,NW,323,2.0,3.0,82,0.00,,---,0.00,VWS V14.01,2013-09-08 13:12:00,
2013-09-08 09:13:00,72.6,66.8,29.98,NNE,18,1.0,2.0,82,0.00,,---,0.00,VWS V14.01,2013-09-08 13:13:00,
2013-09-08 09:14:00,72.6,66.8,29.98,NNE,23,0.0,2.0,82,0.00,,---,0.00,VWS V14.01,2013-09-08 13:14:00,
2013-09-08 09:15:00,72.7,67.2,29.98,WSW,254,0.0,0.0,83,0.00,,---,0.00,VWS V14.01,2013-09-08 13:15:00,
2013-09-08 09:16:00,72.8,67.3,29.98,NNW,330,2.0,2.0,83,0.00,,---,0.00,VWS V14.01,2013-09-08 13:16:00,
2013-09-08 09:17:00,72.9,67.1,29.98,West,281,2.0,4.0,82,0.00,,---,0.00,VWS V14.01,2013-09-08 13:17:00,
2013-09-08 09:18:00,72.9,66.7,29.98,North,10,2.0,2.0,81,0.00,,---,0.00,VWS V14.01,2013-09-08 13:18:00,
2013-09-08 09:19:00,73.0,66.8,29.97,NW,325,0.0,2.0,81,0.00,,---,0.00,VWS V14.01,2013-09-08 13:19:00,
2013-09-08 09:20:00,73.0,67.2,29.98,NW,314,2.0,2.0,82,0.00,,---,0.00,VWS V14.01,2013-09-08 13:20:00,
2013-09-08 09:21:00,73.0,66.8,29.98,NW,310,1.0,2.0,81,0.00,,---,0.00,VWS V14.01,2013-09-08 13:21:00,
2013-09-08 09:22:00,73.1,66.9,29.98,NW,311,0.0,1.0,81,0.00,,---,0.00,VWS V14.01,2013-09-08 13:22:00,
2013-09-08 09:23:00,73.1,66.9,29.98,WSW,244,0.0,0.0,81,0.00,,---,0.00,VWS V14.01,2013-09-08 13:23:00,
2013-09-08 09:24:00,73.3,67.1,29.98,NNE,28,1.0,1.0,81,0.00,,---,0.00,VWS V14.01,2013-09-08 13:24:00,
2013-09-08 09:25:00,73.3,66.8,29.98,NNE,22,1.0,1.0,80,0.00,,---,0.00,VWS V14.01,2013-09-08 13:25:00,
2013-09-08 09:26:00,73.4,66.9,29.98,NNE,22,0.0,1.0,80,0.00,,---,0.00,VWS V14.01,2013-09-08 13:26:00,
2013-09-08 09:27:00,73.5,67.0,29.98,NNE,28,2.0,2.0,80,0.00,,---,0.00,VWS V14.01,2013-09-08 13:27:00,
2013-09-08 09:28:00,73.7,67.2,29.98,NNW,338,0.0,2.0,80,0.00,,---,0.00,VWS V14.01,2013-09-08 13:28:00,
2013-09-08 09:29:00,73.7,66.8,29.98,NNW,337,0.0,2.0,79,0.00,,---,0.00,VWS V14.01,2013-09-08 13:29:00,
2013-09-08 09:30:00,73.8,66.9,29.98,NNW,337,0.0,0.0,79,0.00,,---,0.00,VWS V14.01,2013-09-08 13:30:00,
2013-09-08 09:31:00,73.9,67.0,29.98,NNW,336,0.0,0.0,79,0.00,,---,0.00,VWS V14.01,2013-09-08 13:31:00,
2013-09-08 09:32:00,74.0,67.1,29.98,NE,52,2.0,2.0,79,0.00,,---,0.00,VWS V14.01,2013-09-08 13:32:00,
2013-09-08 09:33:00,74.1,67.2,29.98,WNW,299,0.0,3.0,79,0.00,,---,0.00,VWS V14.01,2013-09-08 13:33:00,
2013-09-08 09:34:00,74.2,66.9,29.98,WNW,300,1.0,1.0,78,0.00,,---,0.00,VWS V14.01,2013-09-08 13:34:00,
2013-09-08 09:35:00,74.3,67.0,29.98,NNW,344,3.0,3.0,78,0.00,,---,0.00,VWS V14.01,2013-09-08 13:35:00,
2013-09-08 09:36:00,74.3,66.6,29.98,NW,309,4.0,4.0,77,0.00,,---,0.00,VWS V14.01,2013-09-08 13:36:00,
2013-09-08 09:37:00,74.3,66.6,29.98,NE,34,2.0,4.0,77,0.00,,---,0.00,VWS V14.01,2013-09-08 13:37:00,
2013-09-08 09:38:00,74.3,66.2,29.98,NNE,31,2.0,2.0,76,0.00,,---,0.00,VWS V14.01,2013-09-08 13:38:00,
2013-09-08 09:39:00,74.2,66.2,29.98,NE,44,2.0,3.0,76,0.00,,---,0.00,VWS V14.01,2013-09-08 13:39:00,
2013-09-08 09:40:00,74.2,66.2,29.98,NNE,31,0.0,0.0,76,0.00,,---,0.00,VWS V14.01,2013-09-08 13:40:00,
2013-09-08 09:41:00,74.2,66.2,29.98,NNE,31,1.0,1.0,76,0.00,,---,0.00,VWS V14.01,2013-09-08 13:41:00,
2013-09-08 09:42:00,74.3,66.2,29.98,North,349,1.0,1.0,76,0.00,,---,0.00,VWS V14.01,2013-09-08 13:42:00,
2013-09-08 09:43:00,74.4,66.3,29.98,West,277,1.0,4.0,76,0.00,,---,0.00,VWS V14.01,2013-09-08 13:43:00,
2013-09-08 09:44:00,74.4,66.0,29.98,WSW,238,0.0,2.0,75,0.00,,---,0.00,VWS V14.01,2013-09-08 13:44:00,
2013-09-08 09:45:00,74.5,66.1,29.98,West,272,1.0,2.0,75,0.00,,---,0.00,VWS V14.01,2013-09-08 13:45:00,
2013-09-08 09:46:00,74.6,66.5,29.98,West,276,1.0,2.0,76,0.00,,---,0.00,VWS V14.01,2013-09-08 13:46:00,
2013-09-08 09:47:00,74.7,66.3,29.98,NW,325,1.0,2.0,75,0.00,,---,0.00,VWS V14.01,2013-09-08 13:47:00,
2013-09-08 09:48:00,74.7,66.3,29.98,WNW,287,0.0,1.0,75,0.00,,---,0.00,VWS V14.01,2013-09-08 13:48:00,
2013-09-08 09:49:00,74.8,66.3,29.98,NE,36,3.0,3.0,75,0.00,,---,0.00,VWS V14.01,2013-09-08 13:49:00,
2013-09-08 09:50:00,74.9,66.4,29.98,NNE,30,2.0,2.0,75,0.00,,---,0.00,VWS V14.01,2013-09-08 13:50:00,
2013-09-08 09:51:00,74.9,66.1,29.98,NE,39,2.0,4.0,74,0.00,,---,0.00,VWS V14.01,2013-09-08 13:51:00,
2013-09-08 09:52:00,74.9,65.3,29.98,NE,34,2.0,2.0,72,0.00,,---,0.00,VWS V14.01,2013-09-08 13:52:00,
2013-09-08 09:53:00,74.9,65.3,29.98,NNE,27,2.0,3.0,72,0.00,,---,0.00,VWS V14.01,2013-09-08 13:53:00,
2013-09-08 09:54:00,74.9,65.7,29.98,NNE,27,1.0,2.0,73,0.00,,---,0.00,VWS V14.01,2013-09-08 13:54:00,
2013-09-08 09:55:00,74.9,65.3,29.98,NNE,20,1.0,2.0,72,0.00,,---,0.00,VWS V14.01,2013-09-08 13:55:00,
2013-09-08 09:56:00,75.0,65.8,29.98,NE,49,2.0,2.0,73,0.00,,---,0.00,VWS V14.01,2013-09-08 13:56:00,
2013-09-08 09:57:00,75.0,65.8,29.98,NE,51,3.0,3.0,73,0.00,,---,0.00,VWS V14.01,2013-09-08 13:57:00,
2013-09-08 09:58:00,75.1,65.9,29.98,ENE,61,3.0,3.0,73,0.00,,---,0.00,VWS V14.01,2013-09-08 13:58:00,
2013-09-08 09:59:00,75.1,65.5,29.98,ENE,65,2.0,3.0,72,0.00,,---,0.00,VWS V14.01,2013-09-08 13:59:00,
2013-09-08 10:00:00,75.3,66.1,29.98,ENE,65,1.0,1.0,73,0.00,,---,0.00,VWS V14.01,2013-09-08 14:00:00,
2013-09-08 10:01:00,75.3,66.1,29.98,ENE,65,1.0,1.0,73,0.00,,---,0.00,VWS V14.01,2013-09-08 14:01:00,
2013-09-08 10:02:00,75.4,66.2,29.98,NE,44,2.0,2.0,73,0.00,,---,0.00,VWS V14.01,2013-09-08 14:02:00,
2013-09-08 10:03:00,75.5,66.2,29.98,ENE,59,2.0,3.0,73,0.00,,---,0.00,VWS V14.01,2013-09-08 14:03:00,
2013-09-08 10:04:00,75.5,65.8,29.98,ENE,59,1.0,3.0,72,0.00,,---,0.00,VWS V14.01,2013-09-08 14:04:00,
2013-09-08 10:05:00,75.5,65.8,29.98,ENE,61,1.0,1.0,72,0.00,,---,0.00,VWS V14.01,2013-09-08 14:05:00,
2013-09-08 10:06:00,75.6,65.9,29.98,ENE,58,1.0,2.0,72,0.00,,---,0.00,VWS V14.01,2013-09-08 14:06:00,
2013-09-08 10:07:00,75.7,66.0,29.98,NNE,19,1.0,1.0,72,0.00,,---,0.00,VWS V14.01,2013-09-08 14:07:00,
2013-09-08 10:08:00,75.8,66.1,29.98,NW,312,1.0,2.0,72,0.00,,---,0.00,VWS V14.01,2013-09-08 14:08:00,
2013-09-08 10:09:00,75.8,65.7,29.98,NW,306,1.0,2.0,71,0.00,,---,0.00,VWS V14.01,2013-09-08 14:09:00,
2013-09-08 10:10:00,75.9,65.4,29.98,NW,306,0.0,0.0,70,0.00,,---,0.00,VWS V14.01,2013-09-08 14:10:00,
2013-09-08 10:11:00,75.9,65.8,29.98,NW,307,1.0,1.0,71,0.00,,---,0.00,VWS V14.01,2013-09-08 14:11:00,
2013-09-08 10:12:00,76.0,65.9,29.98,NNE,31,2.0,3.0,71,0.00,,---,0.00,VWS V14.01,2013-09-08 14:12:00,
2013-09-08 10:13:00,76.0,65.5,29.98,NNE,20,1.0,2.0,70,0.00,,---,0.00,VWS V14.01,2013-09-08 14:13:00,
2013-09-08 10:14:00,76.0,65.1,29.98,NW,315,1.0,1.0,69,0.00,,---,0.00,VWS V14.01,2013-09-08 14:14:00,
2013-09-08 10:15:00,76.1,65.2,29.98,NNE,31,0.0,1.0,69,0.00,,---,0.00,VWS V14.01,2013-09-08 14:15:00,
2013-09-08 10:16:00,76.1,65.2,29.98,NNE,31,1.0,1.0,69,0.00,,---,0.00,VWS V14.01,2013-09-08 14:16:00,
2013-09-08 10:17:00,76.1,65.2,29.98,North,360,2.0,3.0,69,0.00,,---,0.00,VWS V14.01,2013-09-08 14:17:00,
2013-09-08 10:18:00,76.2,65.3,29.98,NE,48,2.0,3.0,69,0.00,,---,0.00,VWS V14.01,2013-09-08 14:18:00,
2013-09-08 10:19:00,76.2,65.3,29.98,ENE,61,2.0,3.0,69,0.00,,---,0.00,VWS V14.01,2013-09-08 14:19:00,
2013-09-08 10:20:00,76.2,65.7,29.98,ENE,65,2.0,2.0,70,0.00,,---,0.00,VWS V14.01,2013-09-08 14:20:00,
2013-09-08 10:21:00,76.3,65.8,29.98,ENE,63,2.0,2.0,70,0.00,,---,0.00,VWS V14.01,2013-09-08 14:21:00,
2013-09-08 10:22:00,76.4,65.5,29.98,NNE,29,2.0,2.0,69,0.00,,---,0.00,VWS V14.01,2013-09-08 14:22:00,
2013-09-08 10:23:00,76.5,65.6,29.98,NNE,30,2.0,2.0,69,0.00,,---,0.00,VWS V14.01,2013-09-08 14:23:00,
2013-09-08 10:24:00,76.6,65.7,29.99,NNE,30,0.0,2.0,69,0.00,,---,0.00,VWS V14.01,2013-09-08 14:24:00,
2013-09-08 10:25:00,76.7,65.8,29.99,NE,36,3.0,3.0,69,0.00,,---,0.00,VWS V14.01,2013-09-08 14:25:00,
2013-09-08 10:26:00,76.8,65.4,29.99,NE,51,2.0,3.0,68,0.00,,---,0.00,VWS V14.01,2013-09-08 14:26:00,
2013-09-08 10:27:00,76.8,65.4,29.99,NNE,31,3.0,3.0,68,0.00,,---,0.00,VWS V14.01,2013-09-08 14:27:00,
2013-09-08 10:28:00,76.8,65.4,29.99,NE,39,2.0,3.0,68,0.00,,---,0.00,VWS V14.01,2013-09-08 14:28:00,
2013-09-08 10:29:00,76.8,65.4,29.99,NE,38,1.0,2.0,68,0.00,,---,0.00,VWS V14.01,2013-09-08 14:29:00,
2013-09-08 10:30:00,76.8,65.4,29.99,NE,38,1.0,2.0,68,0.00,,---,0.00,VWS V14.01,2013-09-08 14:30:00,
2013-09-08 10:31:00,76.9,65.5,29.99,ENE,59,1.0,3.0,68,0.00,,---,0.00,VWS V14.01,2013-09-08 14:31:00,
2013-09-08 10:32:00,77.0,66.1,29.99,NNE,33,2.0,3.0,69,0.00,,---,0.00,VWS V14.01,2013-09-08 14:32:00,
2013-09-08 10:33:00,77.1,66.2,29.99,NE,34,2.0,2.0,69,0.00,,---,0.00,VWS V14.01,2013-09-08 14:33:00,
2013-09-08 10:34:00,77.2,65.8,29.99,NNE,24,2.0,2.0,68,0.00,,---,0.00,VWS V14.01,2013-09-08 14:34:00,
2013-09-08 10:35:00,77.2,65.8,29.99,NNE,33,1.0,2.0,68,0.00,,---,0.00,VWS V14.01,2013-09-08 14:35:00,
2013-09-08 10:36:00,77.3,65.9,29.98,NNE,27,2.0,2.0,68,0.00,,---,0.00,VWS V14.01,2013-09-08 14:36:00,
2013-09-08 10:37:00,77.3,65.5,29.99,NNE,13,2.0,2.0,67,0.00,,---,0.00,VWS V14.01,2013-09-08 14:37:00,
2013-09-08 10:38:00,77.4,66.0,29.99,NNE,33,2.0,2.0,68,0.00,,---,0.00,VWS V14.01,2013-09-08 14:38:00,
2013-09-08 10:39:00,77.4,66.0,29.99,NNE,33,2.0,2.0,68,0.00,,---,0.00,VWS V14.01,2013-09-08 14:39:00,
2013-09-08 10:40:00,77.4,66.0,29.99,NE,46,2.0,2.0,68,0.00,,---,0.00,VWS V14.01,2013-09-08 14:40:00,
2013-09-08 10:41:00,77.4,66.0,29.99,NE,46,0.0,2.0,68,0.00,,---,0.00,VWS V14.01,2013-09-08 14:41:00,
2013-09-08 10:42:00,77.5,66.5,29.99,NE,39,0.0,0.0,69,0.00,,---,0.00,VWS V14.01,2013-09-08 14:42:00,
2013-09-08 10:43:00,77.6,66.6,29.99,NE,36,2.0,2.0,69,0.00,,---,0.00,VWS V14.01,2013-09-08 14:43:00,
2013-09-08 10:44:00,77.7,65.9,29.99,ENE,64,5.0,5.0,67,0.00,,---,0.00,VWS V14.01,2013-09-08 14:44:00,
2013-09-08 10:45:00,77.8,66.0,29.99,NE,37,2.0,5.0,67,0.00,,---,0.00,VWS V14.01,2013-09-08 14:45:00,
2013-09-08 10:46:00,77.8,65.5,29.99,NE,43,1.0,3.0,66,0.00,,---,0.00,VWS V14.01,2013-09-08 14:46:00,
2013-09-08 10:47:00,77.9,65.6,29.99,NNE,15,3.0,3.0,66,0.00,,---,0.00,VWS V14.01,2013-09-08 14:47:00,
2013-09-08 10:48:00,77.9,66.1,29.99,North,350,3.0,3.0,67,0.00,,---,0.00,VWS V14.01,2013-09-08 14:48:00,
2013-09-08 10:49:00,77.9,65.6,29.99,NE,51,3.0,4.0,66,0.00,,---,0.00,VWS V14.01,2013-09-08 14:49:00,
2013-09-08 10:50:00,77.9,65.2,29.99,NNE,30,3.0,4.0,65,0.00,,---,0.00,VWS V14.01,2013-09-08 14:50:00,
2013-09-08 10:51:00,77.9,65.2,29.99,NE,36,2.0,3.0,65,0.00,,---,0.00,VWS V14.01,2013-09-08 14:51:00,
2013-09-08 10:52:00,77.9,65.2,29.99,NW,325,1.0,2.0,65,0.00,,---,0.00,VWS V14.01,2013-09-08 14:52:00,
2013-09-08 10:53:00,77.9,65.2,29.99,NE,46,1.0,2.0,65,0.00,,---,0.00,VWS V14.01,2013-09-08 14:53:00,
2013-09-08 10:54:00,78.0,65.3,29.99,ENE,65,2.0,3.0,65,0.00,,---,0.00,VWS V14.01,2013-09-08 14:54:00,
2013-09-08 10:55:00,78.0,65.3,29.99,ENE,57,3.0,3.0,65,0.00,,---,0.00,VWS V14.01,2013-09-08 14:55:00,
2013-09-08 10:56:00,78.0,65.3,29.99,NE,36,2.0,4.0,65,0.00,,---,0.00,VWS V14.01,2013-09-08 14:56:00,
2013-09-08 10:57:00,78.0,65.3,29.99,NE,44,2.0,2.0,65,0.00,,---,0.00,VWS V14.01,2013-09-08 14:57:00,
2013-09-08 10:58:00,78.0,65.3,29.99,NE,44,2.0,2.0,65,0.00,,---,0.00,VWS V14.01,2013-09-08 14:58:00,
2013-09-08 10:59:00,78.0,65.3,29.99,NE,46,1.0,2.0,65,0.00,,---,0.00,VWS V14.01,2013-09-08 14:59:00,
2013-09-08 11:00:00,78.0,65.7,29.99,NE,45,0.0,0.0,66,0.00,,---,0.00,VWS V14.01,2013-09-08 15:00:00,
2013-09-08 11:01:00,78.2,65.9,29.99,NNE,27,3.0,3.0,66,0.00,,---,0.00,VWS V14.01,2013-09-08 15:01:00,
2013-09-08 11:02:00,78.3,65.1,29.99,SW,229,1.0,3.0,64,0.00,,---,0.00,VWS V14.01,2013-09-08 15:02:00,
2013-09-08 11:03:00,78.4,65.2,29.99,WSW,240,1.0,1.0,64,0.00,,---,0.00,VWS V14.01,2013-09-08 15:03:00,
2013-09-08 11:04:00,78.5,65.3,29.99,WSW,240,2.0,2.0,64,0.00,,---,0.00,VWS V14.01,2013-09-08 15:04:00,
2013-09-08 11:05:00,78.7,65.1,29.99,ENE,58,3.0,4.0,63,0.00,,---,0.00,VWS V14.01,2013-09-08 15:05:00,
2013-09-08 11:06:00,78.8,64.7,29.99,ENE,61,1.0,3.0,62,0.00,,---,0.00,VWS V14.01,2013-09-08 15:06:00,
2013-09-08 11:07:00,78.8,64.7,29.99,ENE,61,3.0,3.0,62,0.00,,---,0.00,VWS V14.01,2013-09-08 15:07:00,
2013-09-08 11:08:00,78.9,64.3,29.99,ENE,61,3.0,3.0,61,0.00,,---,0.00,VWS V14.01,2013-09-08 15:08:00,
2013-09-08 11:09:00,78.9,64.3,29.99,NE,51,1.0,3.0,61,0.00,,---,0.00,VWS V14.01,2013-09-08 15:09:00,
2013-09-08 11:10:00,78.9,64.3,29.99,ENE,74,1.0,1.0,61,0.00,,---,0.00,VWS V14.01,2013-09-08 15:10:00,
2013-09-08 11:11:00,78.9,64.8,29.99,ENE,70,4.0,4.0,62,0.00,,---,0.00,VWS V14.01,2013-09-08 15:11:00,
2013-09-08 11:12:00,78.9,65.2,29.99,ENE,73,3.0,4.0,63,0.00,,---,0.00,VWS V14.01,2013-09-08 15:12:00,
2013-09-08 11:13:00,79.0,65.3,29.99,NNE,23,2.0,3.0,63,0.00,,---,0.00,VWS V14.01,2013-09-08 15:13:00,
2013-09-08 11:14:00,79.0,65.3,29.99,ENE,59,2.0,4.0,63,0.00,,---,0.00,VWS V14.01,2013-09-08 15:14:00,
2013-09-08 11:15:00,79.0,65.3,29.99,ENE,59,1.0,2.0,63,0.00,,---,0.00,VWS V14.01,2013-09-08 15:15:00,
2013-09-08 11:16:00,79.0,65.8,29.99,NNE,24,3.0,3.0,64,0.00,,---,0.00,VWS V14.01,2013-09-08 15:16:00,
2013-09-08 11:17:00,79.1,65.0,29.99,NE,49,2.0,3.0,62,0.00,,---,0.00,VWS V14.01,2013-09-08 15:17:00,
2013-09-08 11:18:00,79.1,64.5,29.99,NE,44,4.0,4.0,61,0.00,,---,0.00,VWS V14.01,2013-09-08 15:18:00,
2013-09-08 11:19:00,79.1,65.0,29.99,NE,46,2.0,4.0,62,0.00,,---,0.00,VWS V14.01,2013-09-08 15:19:00,
2013-09-08 11:20:00,79.0,64.9,29.99,NE,46,1.0,2.0,62,0.00,,---,0.00,VWS V14.01,2013-09-08 15:20:00,
2013-09-08 11:21:00,79.1,65.0,29.98,NE,46,1.0,2.0,62,0.00,,---,0.00,VWS V14.01,2013-09-08 15:21:00,
2013-09-08 11:22:00,79.2,64.6,29.98,NNE,32,1.0,1.0,61,0.00,,---,0.00,VWS V14.01,2013-09-08 15:22:00,
2013-09-08 11:23:00,79.3,63.7,29.99,ENE,57,2.0,2.0,59,0.00,,---,0.00,VWS V14.01,2013-09-08 15:23:00,
2013-09-08 11:24:00,79.4,64.3,29.98,ENE,62,3.0,3.0,60,0.00,,---,0.00,VWS V14.01,2013-09-08 15:24:00,
2013-09-08 11:25:00,79.4,64.3,29.98,ENE,57,2.0,3.0,60,0.00,,---,0.00,VWS V14.01,2013-09-08 15:25:00,
2013-09-08 11:26:00,79.5,64.9,29.99,NE,38,2.0,2.0,61,0.00,,---,0.00,VWS V14.01,2013-09-08 15:26:00,
2013-09-08 11:27:00,79.6,65.4,29.99,ENE,74,4.0,4.0,62,0.00,,---,0.00,VWS V14.01,2013-09-08 15:27:00,
2013-09-08 11:28:00,79.6,64.0,29.99,ENE,75,2.0,4.0,59,0.00,,---,0.00,VWS V14.01,2013-09-08 15:28:00,
2013-09-08 11:29:00,79.6,64.0,29.99,ENE,70,3.0,3.0,59,0.00,,---,0.00,VWS V14.01,2013-09-08 15:29:00,
2013-09-08 11:30:00,79.6,64.5,29.99,ENE,70,2.0,3.0,60,0.00,,---,0.00,VWS V14.01,2013-09-08 15:30:00,
2013-09-08 11:31:00,79.6,65.0,29.99,ENE,59,2.0,3.0,61,0.00,,---,0.00,VWS V14.01,2013-09-08 15:31:00,
2013-09-08 11:32:00,79.7,65.1,29.99,East,98,5.0,5.0,61,0.00,,---,0.00,VWS V14.01,2013-09-08 15:32:00,
2013-09-08 11:33:00,79.7,64.6,29.98,East,93,3.0,6.0,60,0.00,,---,0.00,VWS V14.01,2013-09-08 15:33:00,
2013-09-08 11:34:00,79.8,64.7,29.98,NE,54,1.0,3.0,60,0.00,,---,0.00,VWS V14.01,2013-09-08 15:34:00,
2013-09-08 11:35:00,79.9,64.8,29.98,ESE,104,1.0,1.0,60,0.00,,---,0.00,VWS V14.01,2013-09-08 15:35:00,
2013-09-08 11:36:00,80.1,65.4,29.98,East,98,3.0,3.0,61,0.00,,---,0.00,VWS V14.01,2013-09-08 15:36:00,
2013-09-08 11:37:00,80.2,65.1,29.98,ESE,111,4.0,4.0,60,0.00,,---,0.00,VWS V14.01,2013-09-08 15:37:00,
2013-09-08 11:38:00,80.3,65.2,29.98,ENE,77,2.0,4.0,60,0.00,,---,0.00,VWS V14.01,2013-09-08 15:38:00,
2013-09-08 11:39:00,80.3,65.2,29.98,NE,38,3.0,3.0,60,0.00,,---,0.00,VWS V14.01,2013-09-08 15:39:00,
2013-09-08 11:40:00,80.4,65.3,29.98,NNE,19,1.0,3.0,60,0.00,,---,0.00,VWS V14.01,2013-09-08 15:40:00,
2013-09-08 11:41:00,80.4,65.3,29.98,NE,48,3.0,4.0,60,0.00,,---,0.00,VWS V14.01,2013-09-08 15:41:00,
2013-09-08 11:42:00,80.4,64.3,29.98,ENE,57,3.0,4.0,58,0.00,,---,0.00,VWS V14.01,2013-09-08 15:42:00,
2013-09-08 11:43:00,80.4,64.3,29.98,NE,53,1.0,3.0,58,0.00,,---,0.00,VWS V14.01,2013-09-08 15:43:00,
2013-09-08 11:44:00,80.3,64.7,29.98,ENE,69,4.0,4.0,59,0.00,,---,0.00,VWS V14.01,2013-09-08 15:44:00,
2013-09-08 11:45:00,80.3,64.7,29.98,ENE,57,2.0,4.0,59,0.00,,---,0.00,VWS V14.01,2013-09-08 15:45:00,
2013-09-08 11:46:00,80.3,64.2,29.98,NNE,31,2.0,3.0,58,0.00,,---,0.00,VWS V14.01,2013-09-08 15:46:00,
2013-09-08 11:47:00,80.4,64.8,29.98,NE,46,1.0,2.0,59,0.00,,---,0.00,VWS V14.01,2013-09-08 15:47:00,
2013-09-08 11:48:00,80.5,64.4,29.98,ENE,61,1.0,2.0,58,0.00,,---,0.00,VWS V14.01,2013-09-08 15:48:00,
2013-09-08 11:49:00,80.5,64.4,29.98,ESE,104,3.0,3.0,58,0.00,,---,0.00,VWS V14.01,2013-09-08 15:49:00,
2013-09-08 11:50:00,80.5,63.9,29.98,South,178,1.0,3.0,57,0.00,,---,0.00,VWS V14.01,2013-09-08 15:50:00,
2013-09-08 11:51:00,80.5,63.9,29.98,East,84,0.0,1.0,57,0.00,,---,0.00,VWS V14.01,2013-09-08 15:51:00,
2013-09-08 11:52:00,80.7,64.6,29.98,NNE,15,2.0,2.0,58,0.00,,---,0.00,VWS V14.01,2013-09-08 15:52:00,
2013-09-08 11:53:00,80.8,64.7,29.98,NNE,15,1.0,2.0,58,0.00,,---,0.00,VWS V14.01,2013-09-08 15:53:00,
2013-09-08 11:54:00,81.0,64.3,29.98,SSE,161,0.0,1.0,57,0.00,,---,0.00,VWS V14.01,2013-09-08 15:54:00,
2013-09-08 11:55:00,81.0,64.3,29.98,SW,225,1.0,1.0,57,0.00,,---,0.00,VWS V14.01,2013-09-08 15:55:00,
2013-09-08 11:56:00,81.2,64.5,29.98,NNW,329,2.0,2.0,57,0.00,,---,0.00,VWS V14.01,2013-09-08 15:56:00,
2013-09-08 11:57:00,81.4,64.2,29.98,NW,307,0.0,2.0,56,0.00,,---,0.00,VWS V14.01,2013-09-08 15:57:00,
2013-09-08 11:58:00,81.5,64.8,29.98,NW,306,0.0,1.0,57,0.00,,---,0.00,VWS V14.01,2013-09-08 15:58:00,
2013-09-08 11:59:00,82.0,64.3,29.98,NW,317,1.0,2.0,55,0.00,,---,0.00,VWS V14.01,2013-09-08 15:59:00,
2013-09-08 12:00:00,82.1,63.3,29.98,NW,317,1.0,2.0,53,0.00,,---,0.00,VWS V14.01,2013-09-08 16:00:00,
2013-09-08 12:01:00,82.1,63.3,29.98,NE,34,2.0,2.0,53,0.00,,---,0.00,VWS V14.01,2013-09-08 16:01:00,
2013-09-08 12:02:00,82.2,63.9,29.98,West,269,2.0,2.0,54,0.00,,---,0.00,VWS V14.01,2013-09-08 16:02:00,
2013-09-08 12:03:00,82.3,64.0,29.98,WSW,257,2.0,4.0,54,0.00,,---,0.00,VWS V14.01,2013-09-08 16:03:00,
2013-09-08 12:04:00,82.4,64.6,29.98,West,279,2.0,3.0,55,0.00,,---,0.00,VWS V14.01,2013-09-08 16:04:00,
2013-09-08 12:05:00,82.4,64.6,29.98,West,272,3.0,3.0,55,0.00,,---,0.00,VWS V14.01,2013-09-08 16:05:00,
2013-09-08 12:06:00,82.5,64.7,29.98,WSW,253,2.0,3.0,55,0.00,,---,0.00,VWS V14.01,2013-09-08 16:06:00,
2013-09-08 12:07:00,82.4,64.1,29.98,WNW,294,3.0,4.0,54,0.00,,---,0.00,VWS V14.01,2013-09-08 16:07:00,
2013-09-08 12:08:00,82.3,63.5,29.98,WSW,249,2.0,3.0,53,0.00,,---,0.00,VWS V14.01,2013-09-08 16:08:00,
2013-09-08 12:09:00,81.9,63.1,29.98,West,273,2.0,5.0,53,0.00,,---,0.00,VWS V14.01,2013-09-08 16:09:00,
2013-09-08 12:10:00,81.9,63.1,29.98,West,274,3.0,5.0,53,0.00,,---,0.00,VWS V14.01,2013-09-08 16:10:00,
2013-09-08 12:11:00,81.8,63.5,29.98,SW,236,2.0,3.0,54,0.00,,---,0.00,VWS V14.01,2013-09-08 16:11:00,
2013-09-08 12:12:00,81.6,63.4,29.98,SW,234,2.0,3.0,54,0.00,,---,0.00,VWS V14.01,2013-09-08 16:12:00,
2013-09-08 12:13:00,81.6,63.4,29.98,SSW,211,1.0,2.0,54,0.00,,---,0.00,VWS V14.01,2013-09-08 16:13:00,
2013-09-08 12:14:00,81.7,63.5,29.98,SW,225,0.0,1.0,54,0.00,,---,0.00,VWS V14.01,2013-09-08 16:14:00,
2013-09-08 12:15:00,81.7,63.5,29.98,SSW,202,0.0,1.0,54,0.00,,---,0.00,VWS V14.01,2013-09-08 16:15:00,
2013-09-08 12:16:00,82.0,63.7,29.98,SSW,202,0.0,1.0,54,0.00,,---,0.00,VWS V14.01,2013-09-08 16:16:00,
2013-09-08 12:17:00,82.2,65.0,29.98,SSW,202,0.0,1.0,56,0.00,,---,0.00,VWS V14.01,2013-09-08 16:17:00,
2013-09-08 12:18:00,82.4,64.1,29.98,NW,322,2.0,2.0,54,0.00,,---,0.00,VWS V14.01,2013-09-08 16:18:00,
2013-09-08 12:19:00,82.6,64.3,29.98,ENE,61,2.0,2.0,54,0.00,,---,0.00,VWS V14.01,2013-09-08 16:19:00,
2013-09-08 12:20:00,82.6,64.3,29.98,ENE,61,2.0,2.0,54,0.00,,---,0.00,VWS V14.01,2013-09-08 16:20:00,
2013-09-08 12:21:00,82.7,63.8,29.98,ENE,61,3.0,4.0,53,0.00,,---,0.00,VWS V14.01,2013-09-08 16:21:00,
2013-09-08 12:22:00,82.5,63.7,29.98,NE,52,1.0,4.0,53,0.00,,---,0.00,VWS V14.01,2013-09-08 16:22:00,
2013-09-08 12:23:00,82.4,63.6,29.98,ENE,77,3.0,4.0,53,0.00,,---,0.00,VWS V14.01,2013-09-08 16:23:00,
2013-09-08 12:24:00,82.1,63.3,29.98,ESE,108,4.0,5.0,53,0.00,,---,0.00,VWS V14.01,2013-09-08 16:24:00,
2013-09-08 12:25:00,82.1,63.3,29.98,ESE,107,3.0,5.0,53,0.00,,---,0.00,VWS V14.01,2013-09-08 16:25:00,
2013-09-08 12:26:00,81.9,63.6,29.98,NNE,27,4.0,4.0,54,0.00,,---,0.00,VWS V14.01,2013-09-08 16:26:00,
2013-09-08 12:27:00,81.9,63.6,29.98,ESE,121,3.0,4.0,54,0.00,,---,0.00,VWS V14.01,2013-09-08 16:27:00,
2013-09-08 12:28:00,81.9,63.1,29.98,ESE,102,2.0,3.0,53,0.00,,---,0.00,VWS V14.01,2013-09-08 16:28:00,
2013-09-08 12:29:00,81.9,63.6,29.98,ENE,70,3.0,5.0,54,0.00,,---,0.00,VWS V14.01,2013-09-08 16:29:00,
2013-09-08 12:30:00,81.9,63.1,29.98,ENE,70,2.0,5.0,53,0.00,,---,0.00,VWS V14.01,2013-09-08 16:30:00,
2013-09-08 12:31:00,81.8,63.5,29.98,NE,50,2.0,3.0,54,0.00,,---,0.00,VWS V14.01,2013-09-08 16:31:00,
2013-09-08 12:32:00,81.8,63.5,29.98,NE,51,1.0,2.0,54,0.00,,---,0.00,VWS V14.01,2013-09-08 16:32:00,
2013-09-08 12:33:00,81.9,64.2,29.97,North,360,1.0,1.0,55,0.00,,---,0.00,VWS V14.01,2013-09-08 16:33:00,
2013-09-08 12:34:00,82.2,63.4,29.97,SW,232,1.0,1.0,53,0.00,,---,0.00,VWS V14.01,2013-09-08 16:34:00,
2013-09-08 12:35:00,82.2,63.4,29.97,SW,233,1.0,1.0,53,0.00,,---,0.00,VWS V14.01,2013-09-08 16:35:00,
2013-09-08 12:36:00,82.5,63.7,29.97,SW,226,0.0,1.0,53,0.00,,---,0.00,VWS V14.01,2013-09-08 16:36:00,
2013-09-08 12:37:00,82.7,63.3,29.97,SW,236,2.0,2.0,52,0.00,,---,0.00,VWS V14.01,2013-09-08 16:37:00,
2013-09-08 12:38:00,82.8,63.9,29.97,WSW,254,3.0,3.0,53,0.00,,---,0.00,VWS V14.01,2013-09-08 16:38:00,
2013-09-08 12:39:00,82.9,64.0,29.97,West,263,3.0,6.0,53,0.00,,---,0.00,VWS V14.01,2013-09-08 16:39:00,
2013-09-08 12:40:00,82.9,64.0,29.97,West,267,1.0,6.0,53,0.00,,---,0.00,VWS V14.01,2013-09-08 16:40:00,
2013-09-08 12:41:00,82.8,62.8,29.97,West,271,4.0,5.0,51,0.00,,---,0.00,VWS V14.01,2013-09-08 16:41:00,
2013-09-08 12:42:00,82.6,63.2,29.97,West,260,3.0,4.0,52,0.00,,---,0.00,VWS V14.01,2013-09-08 16:42:00,
2013-09-08 12:43:00,82.5,63.1,29.97,WSW,245,2.0,4.0,52,0.00,,---,0.00,VWS V14.01,2013-09-08 16:43:00,
2013-09-08 12:44:00,82.6,63.8,29.97,NE,36,1.0,2.0,53,0.00,,---,0.00,VWS V14.01,2013-09-08 16:44:00,
2013-09-08 12:45:00,82.6,63.8,29.97,ENE,57,2.0,2.0,53,0.00,,---,0.00,VWS V14.01,2013-09-08 16:45:00,
2013-09-08 12:46:00,82.8,65.0,29.97,ENE,57,0.0,2.0,55,0.00,,---,0.00,VWS V14.01,2013-09-08 16:46:00,
2013-09-08 12:47:00,82.9,63.5,29.97,ENE,59,1.0,2.0,52,0.00,,---,0.00,VWS V14.01,2013-09-08 16:47:00,
2013-09-08 12:48:00,82.9,63.5,29.97,East,82,1.0,1.0,52,0.00,,---,0.00,VWS V14.01,2013-09-08 16:48:00,
2013-09-08 12:49:00,83.1,63.1,29.97,East,84,3.0,5.0,51,0.00,,---,0.00,VWS V14.01,2013-09-08 16:49:00,
2013-09-08 12:50:00,83.1,63.1,29.97,ESE,113,4.0,5.0,51,0.00,,---,0.00,VWS V14.01,2013-09-08 16:50:00,
2013-09-08 12:51:00,83.0,63.0,29.97,ENE,76,3.0,5.0,51,0.00,,---,0.00,VWS V14.01,2013-09-08 16:51:00,
2013-09-08 12:52:00,83.0,63.0,29.97,ENE,67,3.0,4.0,51,0.00,,---,0.00,VWS V14.01,2013-09-08 16:52:00,
2013-09-08 12:53:00,82.9,62.9,29.97,NE,55,2.0,4.0,51,0.00,,---,0.00,VWS V14.01,2013-09-08 16:53:00,
2013-09-08 12:54:00,83.0,64.1,29.97,East,101,1.0,1.0,53,0.00,,---,0.00,VWS V14.01,2013-09-08 16:54:00,
2013-09-08 12:55:00,83.0,64.1,29.97,East,93,1.0,1.0,53,0.00,,---,0.00,VWS V14.01,2013-09-08 16:55:00,
2013-09-08 12:56:00,83.2,63.8,29.97,NE,53,0.0,1.0,52,0.00,,---,0.00,VWS V14.01,2013-09-08 16:56:00,
2013-09-08 12:57:00,83.5,63.5,29.97,NE,51,0.0,0.0,51,0.00,,---,0.00,VWS V14.01,2013-09-08 16:57:00,
2013-09-08 12:58:00,83.8,63.8,29.97,NNE,33,2.0,2.0,51,0.00,,---,0.00,VWS V14.01,2013-09-08 16:58:00,
2013-09-08 12:59:00,83.9,63.3,29.97,ENE,70,2.0,3.0,50,0.00,,---,0.00,VWS V14.01,2013-09-08 16:59:00,
2013-09-08 13:00:00,83.8,63.2,29.97,ENE,69,2.0,3.0,50,0.00,,---,0.00,VWS V14.01,2013-09-08 17:00:00,
2013-09-08 13:01:00,83.7,63.7,29.97,ENE,63,2.0,2.0,51,0.00,,---,0.00,VWS V14.01,2013-09-08 17:01:00,
2013-09-08 13:02:00,83.7,63.1,29.97,ENE,63,1.0,2.0,50,0.00,,---,0.00,VWS V14.01,2013-09-08 17:02:00,
2013-09-08 13:03:00,83.6,63.0,29.97,NE,36,2.0,2.0,50,0.00,,---,0.00,VWS V14.01,2013-09-08 17:03:00,
2013-09-08 13:04:00,83.5,62.9,29.97,North,360,1.0,2.0,50,0.00,,---,0.00,VWS V14.01,2013-09-08 17:04:00,
2013-09-08 13:05:00,83.5,63.5,29.97,North,360,0.0,2.0,51,0.00,,---,0.00,VWS V14.01,2013-09-08 17:05:00,
2013-09-08 13:06:00,83.6,63.6,29.97,NNE,30,0.0,0.0,51,0.00,,---,0.00,VWS V14.01,2013-09-08 17:06:00,
2013-09-08 13:07:00,83.8,64.3,29.97,NE,53,2.0,2.0,52,0.00,,---,0.00,VWS V14.01,2013-09-08 17:07:00,
2013-09-08 13:08:00,83.9,63.3,29.97,ENE,74,1.0,2.0,50,0.00,,---,0.00,VWS V14.01,2013-09-08 17:08:00,
2013-09-08 13:09:00,83.8,62.0,29.97,ESE,112,1.0,2.0,48,0.00,,---,0.00,VWS V14.01,2013-09-08 17:09:00,
2013-09-08 13:10:00,83.8,62.0,29.97,East,99,1.0,2.0,48,0.00,,---,0.00,VWS V14.01,2013-09-08 17:10:00,
2013-09-08 13:12:00,83.6,63.0,29.97,East,98,1.0,3.0,50,0.00,,---,0.00,VWS V14.01,2013-09-08 17:12:00,
2013-09-08 13:13:00,83.6,62.4,29.97,East,101,0.0,2.0,49,0.00,,---,0.00,VWS V14.01,2013-09-08 17:13:00,
2013-09-08 13:14:00,83.9,63.8,29.97,NNE,28,2.0,2.0,51,0.00,,---,0.00,VWS V14.01,2013-09-08 17:14:00,
2013-09-08 13:15:00,83.9,63.8,29.97,NE,46,2.0,2.0,51,0.00,,---,0.00,VWS V14.01,2013-09-08 17:15:00,
2013-09-08 13:16:00,84.1,63.5,29.97,NNW,331,1.0,2.0,50,0.00,,---,0.00,VWS V14.01,2013-09-08 17:16:00,
2013-09-08 13:17:00,84.1,62.9,29.97,NE,40,2.0,4.0,49,0.00,,---,0.00,VWS V14.01,2013-09-08 17:17:00,
2013-09-08 13:18:00,84.1,62.9,29.97,NNE,24,2.0,2.0,49,0.00,,---,0.00,VWS V14.01,2013-09-08 17:18:00,
2013-09-08 13:19:00,84.0,62.8,29.97,ENE,66,1.0,2.0,49,0.00,,---,0.00,VWS V14.01,2013-09-08 17:19:00,
2013-09-08 13:20:00,84.0,62.8,29.97,ENE,65,1.0,2.0,49,0.00,,---,0.00,VWS V14.01,2013-09-08 17:20:00,
2013-09-08 13:21:00,83.9,63.3,29.97,ENE,65,1.0,1.0,50,0.00,,---,0.00,VWS V14.01,2013-09-08 17:21:00,
2013-09-08 13:22:00,84.0,63.4,29.97,ENE,65,1.0,1.0,50,0.00,,---,0.00,VWS V14.01,2013-09-08 17:22:00,
2013-09-08 13:23:00,84.1,62.9,29.97,East,94,2.0,3.0,49,0.00,,---,0.00,VWS V14.01,2013-09-08 17:23:00,
2013-09-08 13:24:00,84.1,62.3,29.96,NE,44,3.0,4.0,48,0.00,,---,0.00,VWS V14.01,2013-09-08 17:24:00,
2013-09-08 13:25:00,84.0,62.2,29.96,NE,44,2.0,4.0,48,0.00,,---,0.00,VWS V14.01,2013-09-08 17:25:00,
2013-09-08 13:26:00,83.9,62.7,29.96,North,5,0.0,2.0,49,0.00,,---,0.00,VWS V14.01,2013-09-08 17:26:00,
2013-09-08 13:27:00,84.0,62.2,29.96,North,5,0.0,0.0,48,0.00,,---,0.00,VWS V14.01,2013-09-08 17:27:00,
2013-09-08 13:28:00,84.1,61.7,29.96,North,5,0.0,0.0,47,0.00,,---,0.00,VWS V14.01,2013-09-08 17:28:00,
2013-09-08 13:29:00,84.4,62.6,29.96,NNW,335,0.0,0.0,48,0.00,,---,0.00,VWS V14.01,2013-09-08 17:29:00,
2013-09-08 13:30:00,84.5,62.7,29.96,NNW,336,0.0,0.0,48,0.00,,---,0.00,VWS V14.01,2013-09-08 17:30:00,
2013-09-08 13:31:00,84.8,63.0,29.96,ENE,67,1.0,2.0,48,0.00,,---,0.00,VWS V14.01,2013-09-08 17:31:00,
2013-09-08 13:32:00,85.0,62.5,29.96,ENE,63,5.0,7.0,47,0.00,,---,0.00,VWS V14.01,2013-09-08 17:32:00,
2013-09-08 13:33:00,84.8,61.1,29.96,ENE,71,4.0,7.0,45,0.00,,---,0.00,VWS V14.01,2013-09-08 17:33:00,
2013-09-08 13:34:00,84.4,61.4,29.96,ENE,62,4.0,4.0,46,0.00,,---,0.00,VWS V14.01,2013-09-08 17:34:00,
2013-09-08 13:35:00,84.4,62.0,29.96,East,80,6.0,8.0,47,0.00,,---,0.00,VWS V14.01,2013-09-08 17:35:00,
2013-09-08 13:36:00,84.2,61.8,29.96,ENE,76,5.0,8.0,47,0.00,,---,0.00,VWS V14.01,2013-09-08 17:36:00,
2013-09-08 13:37:00,84.0,61.6,29.96,ESE,107,2.0,6.0,47,0.00,,---,0.00,VWS V14.01,2013-09-08 17:37:00,
2013-09-08 13:38:00,83.9,62.1,29.96,ENE,65,4.0,5.0,48,0.00,,---,0.00,VWS V14.01,2013-09-08 17:38:00,
2013-09-08 13:39:00,83.8,62.6,29.96,East,99,5.0,5.0,49,0.00,,---,0.00,VWS V14.01,2013-09-08 17:39:00,
2013-09-08 13:40:00,83.8,62.0,29.96,ESE,105,4.0,5.0,48,0.00,,---,0.00,VWS V14.01,2013-09-08 17:40:00,
2013-09-08 13:41:00,83.7,62.0,29.96,ESE,116,2.0,4.0,48,0.00,,---,0.00,VWS V14.01,2013-09-08 17:41:00,
2013-09-08 13:42:00,83.5,61.8,29.96,ESE,117,3.0,3.0,48,0.00,,---,0.00,VWS V14.01,2013-09-08 17:42:00,
2013-09-08 13:43:00,83.5,62.3,29.95,ESE,103,3.0,3.0,49,0.00,,---,0.00,VWS V14.01,2013-09-08 17:43:00,
2013-09-08 13:44:00,83.6,62.4,29.96,NE,54,2.0,2.0,49,0.00,,---,0.00,VWS V14.01,2013-09-08 17:44:00,
2013-09-08 13:45:00,83.6,62.4,29.96,ENE,70,3.0,3.0,49,0.00,,---,0.00,VWS V14.01,2013-09-08 17:45:00,
2013-09-08 13:46:00,83.6,61.8,29.95,East,80,2.0,3.0,48,0.00,,---,0.00,VWS V14.01,2013-09-08 17:46:00,
2013-09-08 13:47:00,83.6,62.4,29.95,ENE,77,1.0,2.0,49,0.00,,---,0.00,VWS V14.01,2013-09-08 17:47:00,
2013-09-08 13:48:00,83.7,62.0,29.95,ENE,77,0.0,1.0,48,0.00,,---,0.00,VWS V14.01,2013-09-08 17:48:00,
2013-09-08 13:49:00,83.8,60.8,29.95,SE,125,1.0,4.0,46,0.00,,---,0.00,VWS V14.01,2013-09-08 17:49:00,
2013-09-08 13:50:00,83.9,60.9,29.95,ESE,105,2.0,4.0,46,0.00,,---,0.00,VWS V14.01,2013-09-08 17:50:00,
2013-09-08 13:51:00,84.0,61.0,29.95,ESE,110,3.0,3.0,46,0.00,,---,0.00,VWS V14.01,2013-09-08 17:51:00,
2013-09-08 13:52:00,84.0,60.4,29.95,ESE,102,1.0,3.0,45,0.00,,---,0.00,VWS V14.01,2013-09-08 17:52:00,
2013-09-08 13:53:00,84.0,60.4,29.95,ESE,102,0.0,1.0,45,0.00,,---,0.00,VWS V14.01,2013-09-08 17:53:00,
2013-09-08 13:54:00,84.0,60.4,29.95,ESE,103,0.0,1.0,45,0.00,,---,0.00,VWS V14.01,2013-09-08 17:54:00,
2013-09-08 13:55:00,84.1,60.5,29.95,East,86,1.0,1.0,45,0.00,,---,0.00,VWS V14.01,2013-09-08 17:55:00,
2013-09-08 13:56:00,84.2,60.6,29.95,ENE,67,2.0,3.0,45,0.00,,---,0.00,VWS V14.01,2013-09-08 17:56:00,
2013-09-08 13:57:00,84.2,61.2,29.95,East,81,0.0,2.0,46,0.00,,---,0.00,VWS V14.01,2013-09-08 17:57:00,
2013-09-08 13:58:00,84.2,61.2,29.95,East,80,1.0,1.0,46,0.00,,---,0.00,VWS V14.01,2013-09-08 17:58:00,
2013-09-08 13:59:00,84.3,60.0,29.95,East,82,0.0,3.0,44,0.00,,---,0.00,VWS V14.01,2013-09-08 17:59:00,
2013-09-08 14:00:00,84.3,60.0,29.95,East,82,0.0,3.0,44,0.00,,---,0.00,VWS V14.01,2013-09-08 18:00:00,
2013-09-08 14:01:00,84.3,60.0,29.95,ENE,61,1.0,2.0,44,0.00,,---,0.00,VWS V14.01,2013-09-08 18:01:00,
2013-09-08 14:02:00,84.3,60.7,29.95,ENE,61,0.0,1.0,45,0.00,,---,0.00,VWS V14.01,2013-09-08 18:02:00,
2013-09-08 14:03:00,84.4,61.4,29.95,ENE,61,2.0,2.0,46,0.00,,---,0.00,VWS V14.01,2013-09-08 18:03:00,
2013-09-08 14:04:00,84.4,60.1,29.95,East,94,2.0,2.0,44,0.00,,---,0.00,VWS V14.01,2013-09-08 18:04:00,
2013-09-08 14:06:00,84.3,60.7,29.95,ENE,76,2.0,2.0,45,0.00,,---,0.00,VWS V14.01,2013-09-08 18:06:00,
2013-09-08 14:07:00,84.3,60.7,29.95,ENE,70,3.0,5.0,45,0.00,,---,0.00,VWS V14.01,2013-09-08 18:07:00,
2013-09-08 14:08:00,84.3,60.7,29.95,East,80,2.0,3.0,45,0.00,,---,0.00,VWS V14.01,2013-09-08 18:08:00,
2013-09-08 14:09:00,84.4,60.8,29.95,East,100,3.0,3.0,45,0.00,,---,0.00,VWS V14.01,2013-09-08 18:09:00,
2013-09-08 14:10:00,84.4,60.1,29.95,East,100,3.0,5.0,44,0.00,,---,0.00,VWS V14.01,2013-09-08 18:10:00,
2013-09-08 14:11:00,84.4,60.8,29.95,ENE,61,1.0,3.0,45,0.00,,---,0.00,VWS V14.01,2013-09-08 18:11:00,
2013-09-08 14:12:00,84.5,60.8,29.95,ENE,71,0.0,1.0,45,0.00,,---,0.00,VWS V14.01,2013-09-08 18:12:00,
2013-09-08 14:13:00,84.7,60.4,29.95,SE,136,0.0,1.0,44,0.00,,---,0.00,VWS V14.01,2013-09-08 18:13:00,
2013-09-08 14:14:00,85.0,61.9,29.95,WNW,288,3.0,3.0,46,0.00,,---,0.00,VWS V14.01,2013-09-08 18:14:00,
2013-09-08 14:15:00,85.1,61.4,29.95,WNW,294,2.0,3.0,45,0.00,,---,0.00,VWS V14.01,2013-09-08 18:15:00,
2013-09-08 14:16:00,85.1,62.0,29.95,WNW,285,2.0,2.0,46,0.00,,---,0.00,VWS V14.01,2013-09-08 18:16:00,
2013-09-08 14:17:00,85.1,62.6,29.95,WSW,254,2.0,4.0,47,0.00,,---,0.00,VWS V14.01,2013-09-08 18:17:00,
2013-09-08 14:19:00,85.2,61.5,29.95,WSW,242,0.0,2.0,45,0.00,,---,0.00,VWS V14.01,2013-09-08 18:19:00,
2013-09-08 14:20:00,85.2,61.5,29.95,WSW,242,0.0,2.0,45,0.00,,---,0.00,VWS V14.01,2013-09-08 18:20:00,
2013-09-08 14:21:00,85.4,61.0,29.95,SW,227,1.0,2.0,44,0.00,,---,0.00,VWS V14.01,2013-09-08 18:21:00,
2013-09-08 14:22:00,85.5,61.8,29.95,WSW,249,1.0,1.0,45,0.00,,---,0.00,VWS V14.01,2013-09-08 18:22:00,
2013-09-08 14:23:00,85.6,61.8,29.95,ESE,122,0.0,1.0,45,0.00,,---,0.00,VWS V14.01,2013-09-08 18:23:00,
2013-09-08 14:24:00,86.0,62.2,29.95,South,182,0.0,0.0,45,0.00,,---,0.00,VWS V14.01,2013-09-08 18:24:00,
2013-09-08 14:25:00,86.1,62.3,29.95,West,269,1.0,1.0,45,0.00,,---,0.00,VWS V14.01,2013-09-08 18:25:00,
2013-09-08 14:26:00,86.3,61.8,29.95,NW,313,1.0,1.0,44,0.00,,---,0.00,VWS V14.01,2013-09-08 18:26:00,
2013-09-08 14:27:00,86.4,62.6,29.95,WNW,283,3.0,3.0,45,0.00,,---,0.00,VWS V14.01,2013-09-08 18:27:00,
2013-09-08 14:28:00,86.4,63.2,29.95,West,276,2.0,3.0,46,0.00,,---,0.00,VWS V14.01,2013-09-08 18:28:00,
2013-09-08 14:29:00,86.4,62.6,29.95,WSW,250,0.0,1.0,45,0.00,,---,0.00,VWS V14.01,2013-09-08 18:29:00,
2013-09-08 14:30:00,86.5,62.7,29.95,WNW,283,1.0,1.0,45,0.00,,---,0.00,VWS V14.01,2013-09-08 18:30:00,
2013-09-08 14:31:00,86.5,62.0,29.95,WSW,245,2.0,2.0,44,0.00,,---,0.00,VWS V14.01,2013-09-08 18:31:00,
2013-09-08 14:32:00,86.6,62.1,29.95,West,269,4.0,5.0,44,0.00,,---,0.00,VWS V14.01,2013-09-08 18:32:00,
2013-09-08 14:33:00,86.4,61.9,29.95,NW,304,3.0,5.0,44,0.00,,---,0.00,VWS V14.01,2013-09-08 18:33:00,
2013-09-08 14:34:00,86.3,62.5,29.95,NNW,344,5.0,5.0,45,0.00,,---,0.00,VWS V14.01,2013-09-08 18:34:00,
2013-09-08 14:35:00,86.3,61.8,29.95,West,280,3.0,5.0,44,0.00,,---,0.00,VWS V14.01,2013-09-08 18:35:00,
2013-09-08 14:36:00,86.3,63.1,29.95,NNW,329,2.0,3.0,46,0.00,,---,0.00,VWS V14.01,2013-09-08 18:36:00,
2013-09-08 14:37:00,86.3,62.5,29.95,West,272,2.0,3.0,45,0.00,,---,0.00,VWS V14.01,2013-09-08 18:37:00,
2013-09-08 14:38:00,86.3,61.2,29.95,West,275,4.0,5.0,43,0.00,,---,0.00,VWS V14.01,2013-09-08 18:38:00,
2013-09-08 14:39:00,86.1,61.7,29.95,West,269,4.0,4.0,44,0.00,,---,0.00,VWS V14.01,2013-09-08 18:39:00,
2013-09-08 14:40:00,86.0,62.2,29.95,WNW,290,4.0,5.0,45,0.00,,---,0.00,VWS V14.01,2013-09-08 18:40:00,
2013-09-08 14:41:00,85.9,60.8,29.95,WNW,283,4.0,5.0,43,0.00,,---,0.00,VWS V14.01,2013-09-08 18:41:00,
2013-09-08 14:42:00,85.7,61.3,29.95,West,279,4.0,5.0,44,0.00,,---,0.00,VWS V14.01,2013-09-08 18:42:00,
2013-09-08 14:43:00,85.5,61.1,29.95,West,259,5.0,5.0,44,0.00,,---,0.00,VWS V14.01,2013-09-08 18:43:00,
2013-09-08 14:44:00,85.3,60.9,29.95,SW,236,5.0,5.0,44,0.00,,---,0.00,VWS V14.01,2013-09-08 18:44:00,
2013-09-08 14:45:00,85.3,61.6,29.95,West,273,4.0,6.0,45,0.00,,---,0.00,VWS V14.01,2013-09-08 18:45:00,
2013-09-08 14:46:00,85.1,60.8,29.95,West,277,4.0,4.0,44,0.00,,---,0.00,VWS V14.01,2013-09-08 18:46:00,
2013-09-08 14:47:00,85.0,60.7,29.95,WNW,284,2.0,4.0,44,0.00,,---,0.00,VWS V14.01,2013-09-08 18:47:00,
2013-09-08 14:48:00,85.0,61.3,29.95,West,278,2.0,6.0,45,0.00,,---,0.00,VWS V14.01,2013-09-08 18:48:00,
2013-09-08 14:49:00,85.1,61.4,29.94,WNW,295,1.0,3.0,45,0.00,,---,0.00,VWS V14.01,2013-09-08 18:49:00,
2013-09-08 14:50:00,85.1,61.4,29.94,West,281,1.0,3.0,45,0.00,,---,0.00,VWS V14.01,2013-09-08 18:50:00,
2013-09-08 14:51:00,85.2,60.8,29.94,WNW,295,1.0,3.0,44,0.00,,---,0.00,VWS V14.01,2013-09-08 18:51:00,
2013-09-08 14:52:00,85.3,60.9,29.94,NNW,327,0.0,2.0,44,0.00,,---,0.00,VWS V14.01,2013-09-08 18:52:00,
2013-09-08 14:53:00,85.4,61.7,29.94,West,275,4.0,5.0,45,0.00,,---,0.00,VWS V14.01,2013-09-08 18:53:00,
2013-09-08 14:54:00,85.3,60.9,29.94,WNW,287,4.0,5.0,44,0.00,,---,0.00,VWS V14.01,2013-09-08 18:54:00,
2013-09-08 14:55:00,85.2,60.8,29.94,WNW,288,4.0,5.0,44,0.00,,---,0.00,VWS V14.01,2013-09-08 18:55:00,
2013-09-08 14:56:00,85.1,60.8,29.94,West,259,2.0,4.0,44,0.00,,---,0.00,VWS V14.01,2013-09-08 18:56:00,
2013-09-08 14:57:00,85.1,60.8,29.94,WSW,248,0.0,2.0,44,0.00,,---,0.00,VWS V14.01,2013-09-08 18:57:00,
2013-09-08 14:58:00,85.2,60.8,29.94,WSW,250,0.0,0.0,44,0.00,,---,0.00,VWS V14.01,2013-09-08 18:58:00,
2013-09-08 14:59:00,85.4,59.7,29.94,West,275,5.0,5.0,42,0.00,,---,0.00,VWS V14.01,2013-09-08 18:59:00,
2013-09-08 15:00:00,85.4,59.7,29.94,WSW,253,4.0,5.0,42,0.00,,---,0.00,VWS V14.01,2013-09-08 19:00:00,
2013-09-08 15:01:00,85.3,60.3,29.94,West,276,2.0,4.0,43,0.00,,---,0.00,VWS V14.01,2013-09-08 19:01:00,
2013-09-08 15:02:00,85.4,60.4,29.94,WNW,292,5.0,5.0,43,0.00,,---,0.00,VWS V14.01,2013-09-08 19:02:00,
2013-09-08 15:03:00,85.4,59.0,29.94,West,268,4.0,5.0,41,0.00,,---,0.00,VWS V14.01,2013-09-08 19:03:00,
2013-09-08 15:04:00,85.3,59.6,29.94,West,268,2.0,4.0,42,0.00,,---,0.00,VWS V14.01,2013-09-08 19:04:00,
2013-09-08 15:05:00,85.2,58.9,29.94,West,275,2.0,4.0,41,0.00,,---,0.00,VWS V14.01,2013-09-08 19:05:00,
2013-09-08 15:06:00,85.1,58.8,29.94,WSW,250,3.0,3.0,41,0.00,,---,0.00,VWS V14.01,2013-09-08 19:06:00,
2013-09-08 15:07:00,85.1,59.5,29.94,WSW,253,0.0,3.0,42,0.00,,---,0.00,VWS V14.01,2013-09-08 19:07:00,
2013-09-08 15:08:00,85.2,59.5,29.94,West,279,3.0,3.0,42,0.00,,---,0.00,VWS V14.01,2013-09-08 19:08:00,
2013-09-08 15:09:00,85.3,60.3,29.94,WNW,292,1.0,2.0,43,0.00,,---,0.00,VWS V14.01,2013-09-08 19:09:00,
2013-09-08 15:10:00,85.4,60.4,29.94,West,261,1.0,2.0,43,0.00,,---,0.00,VWS V14.01,2013-09-08 19:10:00,
2013-09-08 15:11:00,85.5,60.5,29.94,SSW,198,2.0,2.0,43,0.00,,---,0.00,VWS V14.01,2013-09-08 19:11:00,
2013-09-08 15:12:00,85.7,60.7,29.94,SW,236,2.0,2.0,43,0.00,,---,0.00,VWS V14.01,2013-09-08 19:12:00,
2013-09-08 15:13:00,85.9,61.5,29.94,SSE,167,2.0,2.0,44,0.00,,---,0.00,VWS V14.01,2013-09-08 19:13:00,
2013-09-08 15:14:00,86.2,60.4,29.94,SW,222,1.0,3.0,42,0.00,,---,0.00,VWS V14.01,2013-09-08 19:14:00,
2013-09-08 15:15:00,86.3,60.5,29.94,SSW,193,1.0,3.0,42,0.00,,---,0.00,VWS V14.01,2013-09-08 19:15:00,
2013-09-08 15:16:00,86.5,60.7,29.94,SSE,165,0.0,2.0,42,0.00,,---,0.00,VWS V14.01,2013-09-08 19:16:00,
2013-09-08 15:17:00,86.6,60.8,29.94,WSW,256,2.0,2.0,42,0.00,,---,0.00,VWS V14.01,2013-09-08 19:17:00,
2013-09-08 15:18:00,86.8,61.6,29.94,WSW,249,2.0,4.0,43,0.00,,---,0.00,VWS V14.01,2013-09-08 19:18:00,
2013-09-08 15:19:00,86.8,61.6,29.94,WNW,302,1.0,2.0,43,0.00,,---,0.00,VWS V14.01,2013-09-08 19:19:00,
2013-09-08 15:20:00,86.8,61.0,29.94,WNW,301,2.0,2.0,42,0.00,,---,0.00,VWS V14.01,2013-09-08 19:20:00,
2013-09-08 15:21:00,86.9,61.7,29.94,NNW,330,1.0,2.0,43,0.00,,---,0.00,VWS V14.01,2013-09-08 19:21:00,
2013-09-08 15:22:00,87.0,62.5,29.94,NE,51,2.0,2.0,44,0.00,,---,0.00,VWS V14.01,2013-09-08 19:22:00,
2013-09-08 15:23:00,87.1,62.6,29.94,NE,52,0.0,2.0,44,0.00,,---,0.00,VWS V14.01,2013-09-08 19:23:00,
2013-09-08 15:24:00,87.2,61.3,29.94,NE,44,2.0,2.0,42,0.00,,---,0.00,VWS V14.01,2013-09-08 19:24:00,
2013-09-08 15:25:00,87.2,61.3,29.94,North,360,2.0,2.0,42,0.00,,---,0.00,VWS V14.01,2013-09-08 19:25:00,
2013-09-08 15:27:00,87.0,61.2,29.94,West,259,5.0,5.0,42,0.00,,---,0.00,VWS V14.01,2013-09-08 19:27:00,
2013-09-08 15:28:00,86.8,60.3,29.94,West,261,1.0,5.0,41,0.00,,---,0.00,VWS V14.01,2013-09-08 19:28:00,
2013-09-08 15:29:00,86.6,61.5,29.94,NNE,26,3.0,3.0,43,0.00,,---,0.00,VWS V14.01,2013-09-08 19:29:00,
2013-09-08 15:30:00,86.6,61.5,29.94,NE,54,3.0,3.0,43,0.00,,---,0.00,VWS V14.01,2013-09-08 19:30:00,
2013-09-08 15:31:00,86.5,61.4,29.94,NE,51,3.0,3.0,43,0.00,,---,0.00,VWS V14.01,2013-09-08 19:31:00,
2013-09-08 15:32:00,86.4,60.6,29.94,ENE,61,3.0,3.0,42,0.00,,---,0.00,VWS V14.01,2013-09-08 19:32:00,
2013-09-08 15:33:00,86.2,61.1,29.94,ESE,103,3.0,3.0,43,0.00,,---,0.00,VWS V14.01,2013-09-08 19:33:00,
2013-09-08 15:34:00,86.1,61.7,29.94,NW,325,3.0,4.0,44,0.00,,---,0.00,VWS V14.01,2013-09-08 19:34:00,
2013-09-08 15:35:00,86.0,61.6,29.94,NNW,331,4.0,4.0,44,0.00,,---,0.00,VWS V14.01,2013-09-08 19:35:00,
2013-09-08 15:36:00,86.0,61.6,29.94,NW,321,1.0,4.0,44,0.00,,---,0.00,VWS V14.01,2013-09-08 19:36:00,
2013-09-08 15:37:00,86.0,60.9,29.94,SSW,198,1.0,1.0,43,0.00,,---,0.00,VWS V14.01,2013-09-08 19:37:00,
2013-09-08 15:38:00,86.2,61.1,29.94,SE,146,3.0,3.0,43,0.00,,---,0.00,VWS V14.01,2013-09-08 19:38:00,
2013-09-08 15:39:00,86.3,61.2,29.94,East,84,1.0,4.0,43,0.00,,---,0.00,VWS V14.01,2013-09-08 19:39:00,
2013-09-08 15:40:00,86.3,60.5,29.94,East,99,1.0,4.0,42,0.00,,---,0.00,VWS V14.01,2013-09-08 19:40:00,
2013-09-08 15:41:00,86.3,60.5,29.94,SSE,161,2.0,2.0,42,0.00,,---,0.00,VWS V14.01,2013-09-08 19:41:00,
2013-09-08 15:42:00,86.4,60.6,29.94,South,184,2.0,3.0,42,0.00,,---,0.00,VWS V14.01,2013-09-08 19:42:00,
2013-09-08 15:43:00,86.5,60.7,29.94,SSE,157,1.0,2.0,42,0.00,,---,0.00,VWS V14.01,2013-09-08 19:43:00,
2013-09-08 15:44:00,86.8,61.0,29.94,SE,137,1.0,1.0,42,0.00,,---,0.00,VWS V14.01,2013-09-08 19:44:00,
2013-09-08 15:45:00,86.9,61.1,29.94,SE,129,1.0,1.0,42,0.00,,---,0.00,VWS V14.01,2013-09-08 19:45:00,
2013-09-08 15:46:00,87.0,61.2,29.94,SSE,161,1.0,1.0,42,0.00,,---,0.00,VWS V14.01,2013-09-08 19:46:00,
2013-09-08 15:47:00,87.3,60.8,29.94,East,84,1.0,1.0,41,0.00,,---,0.00,VWS V14.01,2013-09-08 19:47:00,
2013-09-08 15:48:00,87.5,62.3,29.94,East,82,1.0,1.0,43,0.00,,---,0.00,VWS V14.01,2013-09-08 19:48:00,
2013-09-08 15:49:00,87.7,61.8,29.94,ENE,61,2.0,2.0,42,0.00,,---,0.00,VWS V14.01,2013-09-08 19:49:00,
2013-09-08 15:50:00,87.7,61.8,29.94,ENE,59,2.0,2.0,42,0.00,,---,0.00,VWS V14.01,2013-09-08 19:50:00,
2013-09-08 15:51:00,87.5,60.9,29.94,ENE,63,2.0,3.0,41,0.00,,---,0.00,VWS V14.01,2013-09-08 19:51:00,
2013-09-08 15:52:00,87.4,60.8,29.94,NW,310,3.0,3.0,41,0.00,,---,0.00,VWS V14.01,2013-09-08 19:52:00,
2013-09-08 15:53:00,87.2,60.0,29.94,West,265,1.0,3.0,40,0.00,,---,0.00,VWS V14.01,2013-09-08 19:53:00,
2013-09-08 15:54:00,87.1,60.6,29.94,NE,53,2.0,2.0,41,0.00,,---,0.00,VWS V14.01,2013-09-08 19:54:00,
2013-09-08 15:56:00,87.0,61.2,29.94,NE,52,0.0,1.0,42,0.00,,---,0.00,VWS V14.01,2013-09-08 19:56:00,
2013-09-08 15:57:00,87.0,60.5,29.94,WNW,295,1.0,1.0,41,0.00,,---,0.00,VWS V14.01,2013-09-08 19:57:00,
2013-09-08 15:58:00,87.0,60.5,29.94,West,259,0.0,2.0,41,0.00,,---,0.00,VWS V14.01,2013-09-08 19:58:00,
2013-09-08 15:59:00,87.2,61.3,29.94,West,260,1.0,1.0,42,0.00,,---,0.00,VWS V14.01,2013-09-08 19:59:00,
2013-09-08 16:00:00,87.3,61.4,29.94,ENE,63,1.0,2.0,42,0.00,,---,0.00,VWS V14.01,2013-09-08 20:00:00,
2013-09-08 16:01:00,87.4,61.5,29.94,ENE,63,0.0,1.0,42,0.00,,---,0.00,VWS V14.01,2013-09-08 20:01:00,
2013-09-08 16:02:00,87.5,60.9,29.94,ENE,77,2.0,2.0,41,0.00,,---,0.00,VWS V14.01,2013-09-08 20:02:00,
2013-09-08 16:03:00,87.4,60.8,29.94,East,94,0.0,3.0,41,0.00,,---,0.00,VWS V14.01,2013-09-08 20:03:00,
2013-09-08 16:04:00,87.3,60.8,29.94,ESE,113,3.0,3.0,41,0.00,,---,0.00,VWS V14.01,2013-09-08 20:04:00,
2013-09-08 16:05:00,87.2,60.7,29.94,ESE,113,2.0,3.0,41,0.00,,---,0.00,VWS V14.01,2013-09-08 20:05:00,
2013-09-08 16:06:00,87.1,60.6,29.93,SSW,213,1.0,2.0,41,0.00,,---,0.00,VWS V14.01,2013-09-08 20:06:00,
2013-09-08 16:07:00,87.1,60.6,29.94,SSE,164,1.0,3.0,41,0.00,,---,0.00,VWS V14.01,2013-09-08 20:07:00,
2013-09-08 16:08:00,87.3,60.8,29.93,SSE,159,1.0,1.0,41,0.00,,---,0.00,VWS V14.01,2013-09-08 20:08:00,
2013-09-08 16:09:00,87.6,61.0,29.94,SSW,213,1.0,3.0,41,0.00,,---,0.00,VWS V14.01,2013-09-08 20:09:00,
2013-09-08 16:10:00,87.7,60.4,29.94,SSE,157,1.0,3.0,40,0.00,,---,0.00,VWS V14.01,2013-09-08 20:10:00,
2013-09-08 16:11:00,87.9,60.6,29.93,WSW,252,1.0,1.0,40,0.00,,---,0.00,VWS V14.01,2013-09-08 20:11:00,
2013-09-08 16:12:00,88.1,60.8,29.94,West,271,0.0,1.0,40,0.00,,---,0.00,VWS V14.01,2013-09-08 20:12:00,
2013-09-08 16:13:00,88.2,60.8,29.93,West,271,0.0,1.0,40,0.00,,---,0.00,VWS V14.01,2013-09-08 20:13:00,
2013-09-08 16:14:00,88.4,61.0,29.94,WSW,244,2.0,2.0,40,0.00,,---,0.00,VWS V14.01,2013-09-08 20:14:00,
2013-09-08 16:15:00,88.4,61.0,29.94,WSW,240,0.0,2.0,40,0.00,,---,0.00,VWS V14.01,2013-09-08 20:15:00,
2013-09-08 16:16:00,88.5,61.1,29.94,West,272,1.0,2.0,40,0.00,,---,0.00,VWS V14.01,2013-09-08 20:16:00,
2013-09-08 16:17:00,88.5,61.1,29.94,NNW,344,1.0,2.0,40,0.00,,---,0.00,VWS V14.01,2013-09-08 20:17:00,
2013-09-08 16:18:00,88.6,61.2,29.94,NNW,344,1.0,1.0,40,0.00,,---,0.00,VWS V14.01,2013-09-08 20:18:00,
2013-09-08 16:19:00,88.6,61.2,29.94,NNW,327,2.0,2.0,40,0.00,,---,0.00,VWS V14.01,2013-09-08 20:19:00,
2013-09-08 16:20:00,88.6,61.2,29.94,West,277,2.0,2.0,40,0.00,,---,0.00,VWS V14.01,2013-09-08 20:20:00,
2013-09-08 16:21:00,88.6,60.5,29.94,NW,317,0.0,2.0,39,0.00,,---,0.00,VWS V14.01,2013-09-08 20:21:00,
2013-09-08 16:22:00,88.6,60.5,29.94,NW,318,0.0,0.0,39,0.00,,---,0.00,VWS V14.01,2013-09-08 20:22:00,
2013-09-08 16:23:00,88.6,60.5,29.94,NW,310,1.0,1.0,39,0.00,,---,0.00,VWS V14.01,2013-09-08 20:23:00,
2013-09-08 16:24:00,88.8,60.7,29.93,SE,144,2.0,2.0,39,0.00,,---,0.00,VWS V14.01,2013-09-08 20:24:00,
2013-09-08 16:25:00,89.0,60.8,29.93,South,190,0.0,2.0,39,0.00,,---,0.00,VWS V14.01,2013-09-08 20:25:00,
2013-09-08 16:26:00,89.2,61.0,29.93,South,190,0.0,0.0,39,0.00,,---,0.00,VWS V14.01,2013-09-08 20:26:00,
2013-09-08 16:27:00,89.4,61.2,29.93,SE,140,1.0,1.0,39,0.00,,---,0.00,VWS V14.01,2013-09-08 20:27:00,
2013-09-08 16:28:00,89.7,60.7,29.93,SE,134,1.0,1.0,38,0.00,,---,0.00,VWS V14.01,2013-09-08 20:28:00,
2013-09-08 16:29:00,89.9,61.7,29.93,West,265,1.0,1.0,39,0.00,,---,0.00,VWS V14.01,2013-09-08 20:29:00,
2013-09-08 16:30:00,90.0,61.7,29.93,SSW,194,1.0,2.0,39,0.00,,---,0.00,VWS V14.01,2013-09-08 20:30:00,
2013-09-08 16:31:00,90.1,61.1,29.93,SSW,202,1.0,2.0,38,0.00,,---,0.00,VWS V14.01,2013-09-08 20:31:00,
2013-09-08 16:32:00,90.1,61.1,29.94,SSW,207,1.0,1.0,38,0.00,,---,0.00,VWS V14.01,2013-09-08 20:32:00,
2013-09-08 16:33:00,90.3,61.3,29.94,WSW,257,2.0,2.0,38,0.00,,---,0.00,VWS V14.01,2013-09-08 20:33:00,
2013-09-08 16:34:00,90.3,62.0,29.94,WSW,255,1.0,1.0,39,0.00,,---,0.00,VWS V14.01,2013-09-08 20:34:00,
2013-09-08 16:35:00,90.2,61.9,29.94,NW,315,3.0,3.0,39,0.00,,---,0.00,VWS V14.01,2013-09-08 20:35:00,
2013-09-08 16:36:00,90.0,61.0,29.94,WNW,295,2.0,4.0,38,0.00,,---,0.00,VWS V14.01,2013-09-08 20:36:00,
2013-09-08 16:37:00,89.7,60.7,29.94,West,265,2.0,3.0,38,0.00,,---,0.00,VWS V14.01,2013-09-08 20:37:00,
2013-09-08 16:38:00,89.4,61.2,29.94,West,265,1.0,2.0,39,0.00,,---,0.00,VWS V14.01,2013-09-08 20:38:00,
2013-09-08 16:39:00,89.2,60.3,29.93,West,265,0.0,0.0,38,0.00,,---,0.00,VWS V14.01,2013-09-08 20:39:00,
2013-09-08 16:40:00,89.2,61.7,29.93,East,99,3.0,3.0,40,0.00,,---,0.00,VWS V14.01,2013-09-08 20:40:00,
2013-09-08 16:41:00,89.2,61.7,29.93,NE,43,1.0,3.0,40,0.00,,---,0.00,VWS V14.01,2013-09-08 20:41:00,
2013-09-08 16:42:00,89.1,61.7,29.93,NW,323,0.0,2.0,40,0.00,,---,0.00,VWS V14.01,2013-09-08 20:42:00,
2013-09-08 16:43:00,89.1,62.3,29.93,East,89,2.0,2.0,41,0.00,,---,0.00,VWS V14.01,2013-09-08 20:43:00,
2013-09-08 16:44:00,89.0,61.6,29.93,East,82,2.0,3.0,40,0.00,,---,0.00,VWS V14.01,2013-09-08 20:44:00,
2013-09-08 16:45:00,88.9,60.8,29.93,East,82,1.0,3.0,39,0.00,,---,0.00,VWS V14.01,2013-09-08 20:45:00,
2013-09-08 16:46:00,88.7,61.3,29.94,ENE,73,5.0,5.0,40,0.00,,---,0.00,VWS V14.01,2013-09-08 20:46:00,
2013-09-08 16:47:00,88.5,60.4,29.94,ENE,70,2.0,5.0,39,0.00,,---,0.00,VWS V14.01,2013-09-08 20:47:00,
2013-09-08 16:48:00,88.2,60.1,29.94,ENE,70,0.0,2.0,39,0.00,,---,0.00,VWS V14.01,2013-09-08 20:48:00,
2013-09-08 16:49:00,88.1,60.0,29.93,ENE,70,0.0,0.0,39,0.00,,---,0.00,VWS V14.01,2013-09-08 20:49:00,
2013-09-08 16:50:00,88.1,60.8,29.93,ENE,70,1.0,1.0,40,0.00,,---,0.00,VWS V14.01,2013-09-08 20:50:00,
2013-09-08 16:51:00,88.2,60.1,29.93,ENE,70,1.0,1.0,39,0.00,,---,0.00,VWS V14.01,2013-09-08 20:51:00,
2013-09-08 16:52:00,88.2,61.5,29.93,ENE,70,1.0,1.0,41,0.00,,---,0.00,VWS V14.01,2013-09-08 20:52:00,
2013-09-08 16:53:00,88.2,60.8,29.93,ENE,69,2.0,2.0,40,0.00,,---,0.00,VWS V14.01,2013-09-08 20:53:00,
2013-09-08 16:54:00,88.2,60.8,29.94,ENE,69,1.0,1.0,40,0.00,,---,0.00,VWS V14.01,2013-09-08 20:54:00,
2013-09-08 16:55:00,88.2,60.8,29.94,ENE,69,1.0,1.0,40,0.00,,---,0.00,VWS V14.01,2013-09-08 20:55:00,
2013-09-08 16:56:00,88.3,61.6,29.94,ENE,68,1.0,1.0,41,0.00,,---,0.00,VWS V14.01,2013-09-08 20:56:00,
2013-09-08 16:57:00,88.3,60.9,29.93,East,98,6.0,6.0,40,0.00,,---,0.00,VWS V14.01,2013-09-08 20:57:00,
2013-09-08 16:58:00,88.1,60.8,29.94,East,82,1.0,6.0,40,0.00,,---,0.00,VWS V14.01,2013-09-08 20:58:00,
2013-09-08 16:59:00,87.9,60.6,29.94,East,90,5.0,5.0,40,0.00,,---,0.00,VWS V14.01,2013-09-08 20:59:00,
2013-09-08 17:00:00,87.8,61.2,29.94,East,88,1.0,5.0,41,0.00,,---,0.00,VWS V14.01,2013-09-08 21:00:00,
2013-09-08 17:01:00,87.7,61.1,29.93,East,97,3.0,3.0,41,0.00,,---,0.00,VWS V14.01,2013-09-08 21:01:00,
2013-09-08 17:02:00,87.6,61.0,29.94,East,93,2.0,4.0,41,0.00,,---,0.00,VWS V14.01,2013-09-08 21:02:00,
2013-09-08 17:03:00,87.6,61.0,29.94,ENE,71,4.0,6.0,41,0.00,,---,0.00,VWS V14.01,2013-09-08 21:03:00,
2013-09-08 17:04:00,87.5,62.3,29.94,ESE,115,1.0,2.0,43,0.00,,---,0.00,VWS V14.01,2013-09-08 21:04:00,
2013-09-08 17:05:00,87.5,62.3,29.94,ENE,67,2.0,4.0,43,0.00,,---,0.00,VWS V14.01,2013-09-08 21:05:00,
2013-09-08 17:06:00,87.5,61.6,29.94,ENE,71,1.0,2.0,42,0.00,,---,0.00,VWS V14.01,2013-09-08 21:06:00,
2013-09-08 17:07:00,87.5,62.3,29.93,ENE,59,3.0,3.0,43,0.00,,---,0.00,VWS V14.01,2013-09-08 21:07:00,
2013-09-08 17:08:00,87.4,61.5,29.94,ENE,63,3.0,4.0,42,0.00,,---,0.00,VWS V14.01,2013-09-08 21:08:00,
2013-09-08 17:09:00,87.3,61.4,29.94,ENE,77,3.0,3.0,42,0.00,,---,0.00,VWS V14.01,2013-09-08 21:09:00,
2013-09-08 17:10:00,87.2,62.0,29.94,ENE,76,4.0,6.0,43,0.00,,---,0.00,VWS V14.01,2013-09-08 21:10:00,
2013-09-08 17:11:00,87.2,61.3,29.94,East,86,2.0,5.0,42,0.00,,---,0.00,VWS V14.01,2013-09-08 21:11:00,
2013-09-08 17:12:00,87.1,62.6,29.94,NE,50,2.0,2.0,44,0.00,,---,0.00,VWS V14.01,2013-09-08 21:12:00,
2013-09-08 17:13:00,87.1,61.9,29.94,ENE,57,3.0,3.0,43,0.00,,---,0.00,VWS V14.01,2013-09-08 21:13:00,
2013-09-08 17:14:00,87.1,61.9,29.94,ENE,73,4.0,5.0,43,0.00,,---,0.00,VWS V14.01,2013-09-08 21:14:00,
2013-09-08 17:15:00,87.1,61.9,29.94,ENE,73,3.0,5.0,43,0.00,,---,0.00,VWS V14.01,2013-09-08 21:15:00,
2013-09-08 17:16:00,87.1,62.6,29.94,ENE,69,3.0,4.0,44,0.00,,---,0.00,VWS V14.01,2013-09-08 21:16:00,
2013-09-08 17:17:00,87.0,61.8,29.94,ENE,61,5.0,5.0,43,0.00,,---,0.00,VWS V14.01,2013-09-08 21:17:00,
2013-09-08 17:18:00,87.0,61.8,29.94,ENE,59,2.0,5.0,43,0.00,,---,0.00,VWS V14.01,2013-09-08 21:18:00,
2013-09-08 17:19:00,86.9,61.7,29.94,ENE,59,2.0,2.0,43,0.00,,---,0.00,VWS V14.01,2013-09-08 21:19:00,
2013-09-08 17:20:00,86.8,61.6,29.94,ENE,71,2.0,3.0,43,0.00,,---,0.00,VWS V14.01,2013-09-08 21:20:00,
2013-09-08 17:21:00,86.7,61.5,29.94,East,84,6.0,6.0,43,0.00,,---,0.00,VWS V14.01,2013-09-08 21:21:00,
2013-09-08 17:22:00,86.6,61.5,29.94,ENE,70,3.0,6.0,43,0.00,,---,0.00,VWS V14.01,2013-09-08 21:22:00,
2013-09-08 17:23:00,86.6,62.1,29.94,ENE,70,3.0,3.0,44,0.00,,---,0.00,VWS V14.01,2013-09-08 21:23:00,
2013-09-08 17:24:00,86.6,62.1,29.94,ENE,62,3.0,4.0,44,0.00,,---,0.00,VWS V14.01,2013-09-08 21:24:00,
2013-09-08 17:25:00,86.6,62.1,29.94,ENE,69,3.0,4.0,44,0.00,,---,0.00,VWS V14.01,2013-09-08 21:25:00,
2013-09-08 17:26:00,86.6,62.8,29.94,East,80,6.0,6.0,45,0.00,,---,0.00,VWS V14.01,2013-09-08 21:26:00,
2013-09-08 17:27:00,86.5,62.0,29.94,ENE,75,2.0,6.0,44,0.00,,---,0.00,VWS V14.01,2013-09-08 21:27:00,
2013-09-08 17:28:00,86.5,62.7,29.94,ENE,69,7.0,7.0,45,0.00,,---,0.00,VWS V14.01,2013-09-08 21:28:00,
2013-09-08 17:29:00,86.4,62.6,29.94,ENE,70,3.0,3.0,45,0.00,,---,0.00,VWS V14.01,2013-09-08 21:29:00,
2013-09-08 17:30:00,86.3,62.5,29.94,ENE,66,4.0,5.0,45,0.00,,---,0.00,VWS V14.01,2013-09-08 21:30:00,
2013-09-08 17:31:00,86.3,62.5,29.94,ENE,63,5.0,5.0,45,0.00,,---,0.00,VWS V14.01,2013-09-08 21:31:00,
2013-09-08 17:32:00,86.2,62.4,29.94,ENE,70,8.0,8.0,45,0.00,,---,0.00,VWS V14.01,2013-09-08 21:32:00,
2013-09-08 17:33:00,86.1,62.9,29.94,ENE,59,5.0,8.0,46,0.00,,---,0.00,VWS V14.01,2013-09-08 21:33:00,
2013-09-08 17:34:00,86.0,61.6,29.94,ENE,69,4.0,4.0,44,0.00,,---,0.00,VWS V14.01,2013-09-08 21:34:00,
2013-09-08 17:35:00,86.0,60.9,29.94,ENE,67,7.0,9.0,43,0.00,,---,0.00,VWS V14.01,2013-09-08 21:35:00,
2013-09-08 17:36:00,85.9,61.5,29.94,ENE,70,4.0,7.0,44,0.00,,---,0.00,VWS V14.01,2013-09-08 21:36:00,
2013-09-08 17:37:00,85.8,62.0,29.94,ENE,66,7.0,7.0,45,0.00,,---,0.00,VWS V14.01,2013-09-08 21:37:00,
2013-09-08 17:38:00,85.8,61.4,29.94,ENE,71,4.0,7.0,44,0.00,,---,0.00,VWS V14.01,2013-09-08 21:38:00,
2013-09-08 17:39:00,85.6,61.8,29.94,ENE,63,4.0,5.0,45,0.00,,---,0.00,VWS V14.01,2013-09-08 21:39:00,
2013-09-08 17:40:00,85.6,61.8,29.94,East,80,5.0,5.0,45,0.00,,---,0.00,VWS V14.01,2013-09-08 21:40:00,
2013-09-08 17:41:00,85.5,61.8,29.94,East,80,3.0,5.0,45,0.00,,---,0.00,VWS V14.01,2013-09-08 21:41:00,
2013-09-08 17:42:00,85.5,61.8,29.94,ENE,75,2.0,3.0,45,0.00,,---,0.00,VWS V14.01,2013-09-08 21:42:00,
2013-09-08 17:43:00,85.5,62.4,29.94,ENE,69,4.0,4.0,46,0.00,,---,0.00,VWS V14.01,2013-09-08 21:43:00,
2013-09-08 17:44:00,85.5,62.4,29.94,ENE,67,2.0,2.0,46,0.00,,---,0.00,VWS V14.01,2013-09-08 21:44:00,
2013-09-08 17:45:00,85.5,63.0,29.94,ENE,74,2.0,3.0,47,0.00,,---,0.00,VWS V14.01,2013-09-08 21:45:00,
2013-09-08 17:46:00,85.6,62.5,29.94,ENE,74,1.0,2.0,46,0.00,,---,0.00,VWS V14.01,2013-09-08 21:46:00,
2013-09-08 17:47:00,85.6,61.8,29.94,ENE,74,1.0,2.0,45,0.00,,---,0.00,VWS V14.01,2013-09-08 21:47:00,
2013-09-08 17:48:00,85.7,61.9,29.94,ENE,74,1.0,1.0,45,0.00,,---,0.00,VWS V14.01,2013-09-08 21:48:00,
2013-09-08 17:49:00,85.9,62.1,29.94,NE,52,2.0,2.0,45,0.00,,---,0.00,VWS V14.01,2013-09-08 21:49:00,
2013-09-08 17:50:00,85.9,61.5,29.94,NE,47,4.0,4.0,44,0.00,,---,0.00,VWS V14.01,2013-09-08 21:50:00,
2013-09-08 17:51:00,86.0,61.6,29.94,NE,40,4.0,4.0,44,0.00,,---,0.00,VWS V14.01,2013-09-08 21:51:00,
2013-09-08 17:52:00,86.0,59.6,29.94,NE,36,2.0,4.0,41,0.00,,---,0.00,VWS V14.01,2013-09-08 21:52:00,
2013-09-08 17:53:00,86.0,59.6,29.94,NE,34,2.0,4.0,41,0.00,,---,0.00,VWS V14.01,2013-09-08 21:53:00,
2013-09-08 17:54:00,85.9,59.5,29.94,ENE,67,5.0,5.0,41,0.00,,---,0.00,VWS V14.01,2013-09-08 21:54:00,
2013-09-08 17:55:00,85.9,60.2,29.94,East,84,5.0,7.0,42,0.00,,---,0.00,VWS V14.01,2013-09-08 21:55:00,
2013-09-08 17:56:00,85.9,60.2,29.94,ENE,65,4.0,6.0,42,0.00,,---,0.00,VWS V14.01,2013-09-08 21:56:00,
2013-09-08 17:57:00,85.9,60.8,29.94,ENE,67,5.0,5.0,43,0.00,,---,0.00,VWS V14.01,2013-09-08 21:57:00,
2013-09-08 17:58:00,85.9,60.8,29.94,East,86,3.0,5.0,43,0.00,,---,0.00,VWS V14.01,2013-09-08 21:58:00,
2013-09-08 17:59:00,85.8,60.7,29.94,NE,56,4.0,4.0,43,0.00,,---,0.00,VWS V14.01,2013-09-08 21:59:00,
2013-09-08 18:00:00,85.8,60.7,29.94,ENE,67,7.0,7.0,43,0.00,,---,0.00,VWS V14.01,2013-09-08 22:00:00,
2013-09-08 18:01:00,85.8,60.7,29.94,ENE,69,7.0,7.0,43,0.00,,---,0.00,VWS V14.01,2013-09-08 22:01:00,
2013-09-08 18:02:00,85.7,61.3,29.94,East,81,3.0,7.0,44,0.00,,---,0.00,VWS V14.01,2013-09-08 22:02:00,
2013-09-08 18:03:00,85.6,61.2,29.94,ENE,61,3.0,4.0,44,0.00,,---,0.00,VWS V14.01,2013-09-08 22:03:00,
2013-09-08 18:04:00,85.6,61.2,29.94,ENE,66,4.0,4.0,44,0.00,,---,0.00,VWS V14.01,2013-09-08 22:04:00,
2013-09-08 18:05:00,85.6,61.2,29.94,ENE,61,4.0,5.0,44,0.00,,---,0.00,VWS V14.01,2013-09-08 22:05:00,
2013-09-08 18:06:00,85.5,61.8,29.94,ENE,76,4.0,5.0,45,0.00,,---,0.00,VWS V14.01,2013-09-08 22:06:00,
2013-09-08 18:07:00,85.5,61.8,29.94,ENE,77,5.0,5.0,45,0.00,,---,0.00,VWS V14.01,2013-09-08 22:07:00,
2013-09-08 18:08:00,85.4,61.7,29.94,ENE,68,5.0,7.0,45,0.00,,---,0.00,VWS V14.01,2013-09-08 22:08:00,
2013-09-08 18:09:00,85.3,61.6,29.94,ENE,70,5.0,5.0,45,0.00,,---,0.00,VWS V14.01,2013-09-08 22:09:00,
2013-09-08 18:10:00,85.3,62.2,29.94,ENE,70,3.0,5.0,46,0.00,,---,0.00,VWS V14.01,2013-09-08 22:10:00,
2013-09-08 18:11:00,85.2,62.1,29.94,ENE,70,3.0,3.0,46,0.00,,---,0.00,VWS V14.01,2013-09-08 22:11:00,
2013-09-08 18:12:00,85.2,62.1,29.94,ENE,68,4.0,5.0,46,0.00,,---,0.00,VWS V14.01,2013-09-08 22:12:00,
2013-09-08 18:13:00,85.2,62.1,29.94,ENE,70,2.0,5.0,46,0.00,,---,0.00,VWS V14.01,2013-09-08 22:13:00,
2013-09-08 18:14:00,85.2,62.1,29.94,ENE,71,3.0,5.0,46,0.00,,---,0.00,VWS V14.01,2013-09-08 22:14:00,
2013-09-08 18:15:00,85.2,62.7,29.94,ENE,71,3.0,4.0,47,0.00,,---,0.00,VWS V14.01,2013-09-08 22:15:00,
2013-09-08 18:16:00,85.2,62.1,29.94,ENE,65,4.0,4.0,46,0.00,,---,0.00,VWS V14.01,2013-09-08 22:16:00,
2013-09-08 18:17:00,85.2,62.1,29.94,NE,55,3.0,4.0,46,0.00,,---,0.00,VWS V14.01,2013-09-08 22:17:00,
2013-09-08 18:18:00,85.1,62.0,29.94,ENE,59,3.0,4.0,46,0.00,,---,0.00,VWS V14.01,2013-09-08 22:18:00,
2013-09-08 18:19:00,85.1,62.6,29.94,ENE,69,2.0,3.0,47,0.00,,---,0.00,VWS V14.01,2013-09-08 22:19:00,
2013-09-08 18:20:00,85.2,62.7,29.94,NE,43,2.0,4.0,47,0.00,,---,0.00,VWS V14.01,2013-09-08 22:20:00,
2013-09-08 18:21:00,85.2,62.7,29.94,East,87,2.0,2.0,47,0.00,,---,0.00,VWS V14.01,2013-09-08 22:21:00,
2013-09-08 18:22:00,85.2,62.7,29.94,ENE,59,3.0,4.0,47,0.00,,---,0.00,VWS V14.01,2013-09-08 22:22:00,
2013-09-08 18:23:00,85.2,62.1,29.94,ENE,73,3.0,5.0,46,0.00,,---,0.00,VWS V14.01,2013-09-08 22:23:00,
2013-09-08 18:24:00,85.2,62.7,29.94,NE,55,2.0,4.0,47,0.00,,---,0.00,VWS V14.01,2013-09-08 22:24:00,
2013-09-08 18:25:00,85.2,62.7,29.94,ENE,74,3.0,3.0,47,0.00,,---,0.00,VWS V14.01,2013-09-08 22:25:00,
2013-09-08 18:26:00,85.2,62.7,29.94,ENE,75,2.0,3.0,47,0.00,,---,0.00,VWS V14.01,2013-09-08 22:26:00,
2013-09-08 18:27:00,85.2,63.3,29.94,East,80,5.0,5.0,48,0.00,,---,0.00,VWS V14.01,2013-09-08 22:27:00,
2013-09-08 18:28:00,85.2,63.3,29.94,East,82,1.0,5.0,48,0.00,,---,0.00,VWS V14.01,2013-09-08 22:28:00,
2013-09-08 18:29:00,85.2,63.3,29.94,East,82,2.0,2.0,48,0.00,,---,0.00,VWS V14.01,2013-09-08 22:29:00,
2013-09-08 18:30:00,85.2,63.3,29.94,ESE,105,2.0,2.0,48,0.00,,---,0.00,VWS V14.01,2013-09-08 22:30:00,
2013-09-08 18:31:00,85.2,63.3,29.94,ENE,75,2.0,3.0,48,0.00,,---,0.00,VWS V14.01,2013-09-08 22:31:00,
2013-09-08 18:32:00,85.2,63.3,29.94,NE,55,3.0,3.0,48,0.00,,---,0.00,VWS V14.01,2013-09-08 22:32:00,
2013-09-08 18:33:00,85.2,62.7,29.94,East,94,2.0,3.0,47,0.00,,---,0.00,VWS V14.01,2013-09-08 22:33:00,
2013-09-08 18:34:00,85.2,63.3,29.94,ENE,65,3.0,3.0,48,0.00,,---,0.00,VWS V14.01,2013-09-08 22:34:00,
2013-09-08 18:35:00,85.2,62.7,29.94,ENE,65,2.0,4.0,47,0.00,,---,0.00,VWS V14.01,2013-09-08 22:35:00,
2013-09-08 18:36:00,85.2,63.3,29.94,ENE,68,2.0,3.0,48,0.00,,---,0.00,VWS V14.01,2013-09-08 22:36:00,
2013-09-08 18:37:00,85.2,63.3,29.94,ENE,69,2.0,2.0,48,0.00,,---,0.00,VWS V14.01,2013-09-08 22:37:00,
2013-09-08 18:38:00,85.1,62.6,29.94,ENE,70,3.0,3.0,47,0.00,,---,0.00,VWS V14.01,2013-09-08 22:38:00,
2013-09-08 18:39:00,85.1,62.6,29.94,ENE,71,3.0,3.0,47,0.00,,---,0.00,VWS V14.01,2013-09-08 22:39:00,
2013-09-08 18:40:00,85.1,62.6,29.94,ENE,78,3.0,3.0,47,0.00,,---,0.00,VWS V14.01,2013-09-08 22:40:00,
2013-09-08 18:41:00,85.1,62.6,29.94,ENE,75,2.0,3.0,47,0.00,,---,0.00,VWS V14.01,2013-09-08 22:41:00,
2013-09-08 18:42:00,85.0,62.5,29.94,ENE,68,2.0,4.0,47,0.00,,---,0.00,VWS V14.01,2013-09-08 22:42:00,
2013-09-08 18:43:00,85.0,62.5,29.94,ENE,68,2.0,3.0,47,0.00,,---,0.00,VWS V14.01,2013-09-08 22:43:00,
2013-09-08 18:44:00,85.0,62.5,29.95,ENE,69,3.0,3.0,47,0.00,,---,0.00,VWS V14.01,2013-09-08 22:44:00,
2013-09-08 18:45:00,85.0,62.5,29.95,ENE,68,2.0,3.0,47,0.00,,---,0.00,VWS V14.01,2013-09-08 22:45:00,
2013-09-08 18:46:00,84.9,62.4,29.95,ENE,68,2.0,3.0,47,0.00,,---,0.00,VWS V14.01,2013-09-08 22:46:00,
2013-09-08 18:47:00,84.9,62.4,29.95,ENE,69,2.0,3.0,47,0.00,,---,0.00,VWS V14.01,2013-09-08 22:47:00,
2013-09-08 18:48:00,84.9,62.4,29.95,ENE,61,3.0,3.0,47,0.00,,---,0.00,VWS V14.01,2013-09-08 22:48:00,
2013-09-08 18:49:00,84.9,62.4,29.95,ENE,62,2.0,3.0,47,0.00,,---,0.00,VWS V14.01,2013-09-08 22:49:00,
2013-09-08 18:50:00,84.8,63.0,29.95,ENE,65,2.0,3.0,48,0.00,,---,0.00,VWS V14.01,2013-09-08 22:50:00,
2013-09-08 18:51:00,84.8,63.0,29.95,ENE,66,1.0,2.0,48,0.00,,---,0.00,VWS V14.01,2013-09-08 22:51:00,
2013-09-08 18:52:00,84.8,63.0,29.95,ENE,65,1.0,2.0,48,0.00,,---,0.00,VWS V14.01,2013-09-08 22:52:00,
2013-09-08 18:53:00,84.8,63.0,29.95,ENE,66,1.0,2.0,48,0.00,,---,0.00,VWS V14.01,2013-09-08 22:53:00,
2013-09-08 18:54:00,84.8,63.0,29.95,ENE,66,1.0,2.0,48,0.00,,---,0.00,VWS V14.01,2013-09-08 22:54:00,
2013-09-08 18:55:00,84.8,63.5,29.95,ENE,65,1.0,2.0,49,0.00,,---,0.00,VWS V14.01,2013-09-08 22:55:00,
2013-09-08 18:56:00,84.8,63.5,29.95,ENE,66,1.0,2.0,49,0.00,,---,0.00,VWS V14.01,2013-09-08 22:56:00,
2013-09-08 18:57:00,84.7,63.4,29.95,East,85,1.0,2.0,49,0.00,,---,0.00,VWS V14.01,2013-09-08 22:57:00,
2013-09-08 18:58:00,84.7,63.5,29.95,East,84,2.0,2.0,49,0.00,,---,0.00,VWS V14.01,2013-09-08 22:58:00,
2013-09-08 18:59:00,84.7,63.4,29.95,East,84,2.0,2.0,49,0.00,,---,0.00,VWS V14.01,2013-09-08 22:59:00,
2013-09-08 19:00:00,84.7,63.4,29.95,East,84,1.0,2.0,49,0.00,,---,0.00,VWS V14.01,2013-09-08 23:00:00,
2013-09-08 19:01:00,84.7,63.4,29.95,East,85,1.0,1.0,49,0.00,,---,0.00,VWS V14.01,2013-09-08 23:01:00,
2013-09-08 19:02:00,84.7,63.4,29.95,East,85,2.0,2.0,49,0.00,,---,0.00,VWS V14.01,2013-09-08 23:02:00,
2013-09-08 19:03:00,84.6,63.3,29.95,East,84,1.0,1.0,49,0.00,,---,0.00,VWS V14.01,2013-09-08 23:03:00,
2013-09-08 19:04:00,84.6,63.3,29.95,East,84,1.0,1.0,49,0.00,,---,0.00,VWS V14.01,2013-09-08 23:04:00,
2013-09-08 19:05:00,84.6,63.9,29.95,East,85,1.0,1.0,50,0.00,,---,0.00,VWS V14.01,2013-09-08 23:05:00,
2013-09-08 19:06:00,84.6,63.9,29.95,East,84,1.0,1.0,50,0.00,,---,0.00,VWS V14.01,2013-09-08 23:06:00,
2013-09-08 19:07:00,84.5,63.3,29.95,East,85,0.0,1.0,49,0.00,,---,0.00,VWS V14.01,2013-09-08 23:07:00,
2013-09-08 19:08:00,84.4,63.8,29.95,East,84,1.0,2.0,50,0.00,,---,0.00,VWS V14.01,2013-09-08 23:08:00,
2013-09-08 19:09:00,84.4,63.8,29.95,East,84,1.0,2.0,50,0.00,,---,0.00,VWS V14.01,2013-09-08 23:09:00,
2013-09-08 19:10:00,84.3,63.7,29.95,East,85,1.0,2.0,50,0.00,,---,0.00,VWS V14.01,2013-09-08 23:10:00,
2013-09-08 19:11:00,84.3,63.7,29.95,East,84,1.0,1.0,50,0.00,,---,0.00,VWS V14.01,2013-09-08 23:11:00,
2013-09-08 19:12:00,84.2,63.6,29.95,East,84,1.0,1.0,50,0.00,,---,0.00,VWS V14.01,2013-09-08 23:12:00,
2013-09-08 19:13:00,84.0,63.9,29.95,East,85,1.0,1.0,51,0.00,,---,0.00,VWS V14.01,2013-09-08 23:13:00,
2013-09-08 19:14:00,84.0,63.9,29.95,East,85,1.0,1.0,51,0.00,,---,0.00,VWS V14.01,2013-09-08 23:14:00,
2013-09-08 19:15:00,83.9,63.8,29.95,East,84,0.0,1.0,51,0.00,,---,0.00,VWS V14.01,2013-09-08 23:15:00,
2013-09-08 19:16:00,83.8,63.8,29.95,East,84,1.0,1.0,51,0.00,,---,0.00,VWS V14.01,2013-09-08 23:16:00,
2013-09-08 19:17:00,83.7,63.7,29.95,East,84,1.0,1.0,51,0.00,,---,0.00,VWS V14.01,2013-09-08 23:17:00,
2013-09-08 19:18:00,83.6,63.6,29.95,East,84,1.0,1.0,51,0.00,,---,0.00,VWS V14.01,2013-09-08 23:18:00,
2013-09-08 19:19:00,83.6,63.6,29.95,East,83,1.0,1.0,51,0.00,,---,0.00,VWS V14.01,2013-09-08 23:19:00,
2013-09-08 19:20:00,83.5,64.0,29.95,East,84,0.0,1.0,52,0.00,,---,0.00,VWS V14.01,2013-09-08 23:20:00,
2013-09-08 19:21:00,83.4,64.0,29.95,East,84,1.0,1.0,52,0.00,,---,0.00,VWS V14.01,2013-09-08 23:21:00,
2013-09-08 19:22:00,83.4,64.0,29.95,East,83,1.0,1.0,52,0.00,,---,0.00,VWS V14.01,2013-09-08 23:22:00,
2013-09-08 19:23:00,83.2,63.8,29.95,East,83,0.0,0.0,52,0.00,,---,0.00,VWS V14.01,2013-09-08 23:23:00,
2013-09-08 19:24:00,83.3,63.8,29.95,East,83,1.0,1.0,52,0.00,,---,0.00,VWS V14.01,2013-09-08 23:24:00,
2013-09-08 19:25:00,83.2,63.8,29.95,East,84,0.0,1.0,52,0.00,,---,0.00,VWS V14.01,2013-09-08 23:25:00,
2013-09-08 19:26:00,83.1,64.2,29.95,East,84,0.0,0.0,53,0.00,,---,0.00,VWS V14.01,2013-09-08 23:26:00,
2013-09-08 19:27:00,83.1,64.2,29.95,East,84,0.0,0.0,53,0.00,,---,0.00,VWS V14.01,2013-09-08 23:27:00,
2013-09-08 19:28:00,83.0,65.7,29.95,East,83,0.0,0.0,56,0.00,,---,0.00,VWS V14.01,2013-09-08 23:28:00,
2013-09-08 19:30:00,82.9,64.6,29.95,East,84,0.0,0.0,54,0.00,,---,0.00,VWS V14.01,2013-09-08 23:30:00,
2013-09-08 19:31:00,82.9,65.1,29.95,East,83,0.0,0.0,55,0.00,,---,0.00,VWS V14.01,2013-09-08 23:31:00,
2013-09-08 19:32:00,82.8,65.5,29.95,East,84,0.0,0.0,56,0.00,,---,0.00,VWS V14.01,2013-09-08 23:32:00,
2013-09-08 19:33:00,82.7,65.4,29.95,East,84,0.0,0.0,56,0.00,,---,0.00,VWS V14.01,2013-09-08 23:33:00,
2013-09-08 19:34:00,82.7,65.4,29.95,East,84,0.0,0.0,56,0.00,,---,0.00,VWS V14.01,2013-09-08 23:34:00,
2013-09-08 19:35:00,82.5,65.2,29.95,East,84,0.0,0.0,56,0.00,,---,0.00,VWS V14.01,2013-09-08 23:35:00,
2013-09-08 19:36:00,82.4,65.7,29.95,East,84,0.0,0.0,57,0.00,,---,0.00,VWS V14.01,2013-09-08 23:36:00,
2013-09-08 19:37:00,82.3,65.6,29.95,East,84,0.0,0.0,57,0.00,,---,0.00,VWS V14.01,2013-09-08 23:37:00,
2013-09-08 19:38:00,82.0,65.8,29.96,East,83,0.0,0.0,58,0.00,,---,0.00,VWS V14.01,2013-09-08 23:38:00,
2013-09-08 19:39:00,82.0,65.8,29.96,East,84,0.0,0.0,58,0.00,,---,0.00,VWS V14.01,2013-09-08 23:39:00,
2013-09-08 19:40:00,81.8,65.6,29.95,East,84,0.0,0.0,58,0.00,,---,0.00,VWS V14.01,2013-09-08 23:40:00,
2013-09-08 19:41:00,81.6,65.4,29.96,East,83,0.0,0.0,58,0.00,,---,0.00,VWS V14.01,2013-09-08 23:41:00,
2013-09-08 19:42:00,81.5,65.3,29.96,East,83,0.0,0.0,58,0.00,,---,0.00,VWS V14.01,2013-09-08 23:42:00,
2013-09-08 19:43:00,81.2,65.5,29.96,East,83,0.0,0.0,59,0.00,,---,0.00,VWS V14.01,2013-09-08 23:43:00,
2013-09-08 19:44:00,81.1,65.9,29.96,East,84,0.0,0.0,60,0.00,,---,0.00,VWS V14.01,2013-09-08 23:44:00,
2013-09-08 19:45:00,81.0,65.8,29.96,East,84,0.0,0.0,60,0.00,,---,0.00,VWS V14.01,2013-09-08 23:45:00,
2013-09-08 19:46:00,80.9,65.7,29.95,East,83,0.0,0.0,60,0.00,,---,0.00,VWS V14.01,2013-09-08 23:46:00,
2013-09-08 19:47:00,80.7,65.5,29.96,East,83,0.0,0.0,60,0.00,,---,0.00,VWS V14.01,2013-09-08 23:47:00,
2013-09-08 19:48:00,80.5,65.8,29.96,East,84,0.0,0.0,61,0.00,,---,0.00,VWS V14.01,2013-09-08 23:48:00,
2013-09-08 19:49:00,80.5,65.8,29.96,East,83,0.0,0.0,61,0.00,,---,0.00,VWS V14.01,2013-09-08 23:49:00,
2013-09-08 19:50:00,80.4,65.7,29.96,East,84,0.0,0.0,61,0.00,,---,0.00,VWS V14.01,2013-09-08 23:50:00,
2013-09-08 19:51:00,80.3,65.6,29.96,East,84,0.0,0.0,61,0.00,,---,0.00,VWS V14.01,2013-09-08 23:51:00,
2013-09-08 19:52:00,80.2,66.0,29.96,East,84,0.0,0.0,62,0.00,,---,0.00,VWS V14.01,2013-09-08 23:52:00,
2013-09-08 19:53:00,80.0,66.3,29.96,East,84,0.0,0.0,63,0.00,,---,0.00,VWS V14.01,2013-09-08 23:53:00,
2013-09-08 19:54:00,80.0,66.3,29.96,East,84,0.0,0.0,63,0.00,,---,0.00,VWS V14.01,2013-09-08 23:54:00,
2013-09-08 19:55:00,79.9,66.2,29.96,East,84,0.0,0.0,63,0.00,,---,0.00,VWS V14.01,2013-09-08 23:55:00,
2013-09-08 19:56:00,79.8,66.1,29.96,East,84,0.0,0.0,63,0.00,,---,0.00,VWS V14.01,2013-09-08 23:56:00,
2013-09-08 19:57:00,79.6,65.9,29.96,East,84,0.0,0.0,63,0.00,,---,0.00,VWS V14.01,2013-09-08 23:57:00,
2013-09-08 19:58:00,79.5,66.3,29.96,East,84,0.0,0.0,64,0.00,,---,0.00,VWS V14.01,2013-09-08 23:58:00,
2013-09-08 19:59:00,79.4,66.2,29.96,East,84,0.0,0.0,64,0.00,,---,0.00,VWS V14.01,2013-09-08 23:59:00,
2013-09-08 20:00:00,79.3,66.1,29.96,East,84,0.0,0.0,64,0.00,,---,0.00,VWS V14.01,2013-09-09 00:00:00,
2013-09-08 20:01:00,79.2,66.0,29.96,East,83,0.0,0.0,64,0.00,,---,0.00,VWS V14.01,2013-09-09 00:01:00,
2013-09-08 20:02:00,79.1,65.9,29.96,East,84,0.0,0.0,64,0.00,,---,0.00,VWS V14.01,2013-09-09 00:02:00,
2013-09-08 20:03:00,78.9,66.2,29.96,East,83,0.0,0.0,65,0.00,,---,0.00,VWS V14.01,2013-09-09 00:03:00,
2013-09-08 20:04:00,78.9,66.2,29.96,East,84,0.0,0.0,65,0.00,,---,0.00,VWS V14.01,2013-09-09 00:04:00,
2013-09-08 20:05:00,78.8,65.6,29.96,East,84,0.0,0.0,64,0.00,,---,0.00,VWS V14.01,2013-09-09 00:05:00,
2013-09-08 20:06:00,78.7,65.5,29.96,East,83,0.0,0.0,64,0.00,,---,0.00,VWS V14.01,2013-09-09 00:06:00,
2013-09-08 20:07:00,78.6,65.4,29.96,East,84,0.0,0.0,64,0.00,,---,0.00,VWS V14.01,2013-09-09 00:07:00,
2013-09-08 20:08:00,78.5,65.3,29.96,East,84,0.0,0.0,64,0.00,,---,0.00,VWS V14.01,2013-09-09 00:08:00,
2013-09-08 20:09:00,78.5,65.3,29.96,East,84,0.0,0.0,64,0.00,,---,0.00,VWS V14.01,2013-09-09 00:09:00,
2013-09-08 20:10:00,78.4,65.2,29.96,East,84,0.0,0.0,64,0.00,,---,0.00,VWS V14.01,2013-09-09 00:10:00,
2013-09-08 20:11:00,78.3,65.1,29.96,East,84,0.0,0.0,64,0.00,,---,0.00,VWS V14.01,2013-09-09 00:11:00,
2013-09-08 20:12:00,78.3,65.1,29.96,East,84,0.0,0.0,64,0.00,,---,0.00,VWS V14.01,2013-09-09 00:12:00,
2013-09-08 20:13:00,78.1,65.4,29.96,East,84,0.0,0.0,65,0.00,,---,0.00,VWS V14.01,2013-09-09 00:13:00,
2013-09-08 20:14:00,78.1,65.4,29.96,East,83,0.0,0.0,65,0.00,,---,0.00,VWS V14.01,2013-09-09 00:14:00,
2013-09-08 20:16:00,78.0,65.7,29.97,East,84,0.0,0.0,66,0.00,,---,0.00,VWS V14.01,2013-09-09 00:16:00,
2013-09-08 20:17:00,77.9,65.6,29.97,East,84,0.0,0.0,66,0.00,,---,0.00,VWS V14.01,2013-09-09 00:17:00,
2013-09-08 20:18:00,77.8,65.5,29.97,East,84,0.0,0.0,66,0.00,,---,0.00,VWS V14.01,2013-09-09 00:18:00,
2013-09-08 20:19:00,77.7,65.4,29.97,East,83,0.0,0.0,66,0.00,,---,0.00,VWS V14.01,2013-09-09 00:19:00,
2013-09-08 20:20:00,77.7,65.4,29.97,East,83,0.0,0.0,66,0.00,,---,0.00,VWS V14.01,2013-09-09 00:20:00,
2013-09-08 20:21:00,77.6,65.8,29.97,East,84,0.0,0.0,67,0.00,,---,0.00,VWS V14.01,2013-09-09 00:21:00,
2013-09-08 20:22:00,77.5,65.7,29.97,East,84,0.0,0.0,67,0.00,,---,0.00,VWS V14.01,2013-09-09 00:22:00,
2013-09-08 20:23:00,77.4,65.6,29.97,East,83,0.0,0.0,67,0.00,,---,0.00,VWS V14.01,2013-09-09 00:23:00,
2013-09-08 20:24:00,77.3,65.1,29.97,East,84,0.0,0.0,66,0.00,,---,0.00,VWS V14.01,2013-09-09 00:24:00,
2013-09-08 20:25:00,77.2,65.4,29.97,East,84,0.0,0.0,67,0.00,,---,0.00,VWS V14.01,2013-09-09 00:25:00,
2013-09-08 20:26:00,77.2,65.0,29.97,East,84,0.0,0.0,66,0.00,,---,0.00,VWS V14.01,2013-09-09 00:26:00,
2013-09-08 20:27:00,77.1,65.3,29.97,East,84,0.0,0.0,67,0.00,,---,0.00,VWS V14.01,2013-09-09 00:27:00,
2013-09-08 20:28:00,77.0,65.2,29.97,East,84,0.0,0.0,67,0.00,,---,0.00,VWS V14.01,2013-09-09 00:28:00,
2013-09-08 20:29:00,77.0,65.2,29.97,East,84,0.0,0.0,67,0.00,,---,0.00,VWS V14.01,2013-09-09 00:29:00,
2013-09-08 20:30:00,76.9,65.5,29.97,East,84,0.0,0.0,68,0.00,,---,0.00,VWS V14.01,2013-09-09 00:30:00,
2013-09-08 20:31:00,76.9,65.5,29.97,East,84,0.0,0.0,68,0.00,,---,0.00,VWS V14.01,2013-09-09 00:31:00,
2013-09-08 20:32:00,76.8,65.4,29.97,East,84,0.0,0.0,68,0.00,,---,0.00,VWS V14.01,2013-09-09 00:32:00,
2013-09-08 20:33:00,76.7,65.8,29.97,East,84,0.0,0.0,69,0.00,,---,0.00,VWS V14.01,2013-09-09 00:33:00,
2013-09-08 20:34:00,76.7,65.8,29.97,East,83,0.0,0.0,69,0.00,,---,0.00,VWS V14.01,2013-09-09 00:34:00,
2013-09-08 20:35:00,76.7,66.2,29.97,East,83,0.0,0.0,70,0.00,,---,0.00,VWS V14.01,2013-09-09 00:35:00,
2013-09-08 20:36:00,76.6,66.5,29.97,East,84,0.0,0.0,71,0.00,,---,0.00,VWS V14.01,2013-09-09 00:36:00,
2013-09-08 20:37:00,76.6,66.9,29.97,East,84,0.0,0.0,72,0.00,,---,0.00,VWS V14.01,2013-09-09 00:37:00,
2013-09-08 20:38:00,76.5,67.2,29.97,East,84,0.0,0.0,73,0.00,,---,0.00,VWS V14.01,2013-09-09 00:38:00,
2013-09-08 20:39:00,76.5,67.2,29.97,East,83,0.0,0.0,73,0.00,,---,0.00,VWS V14.01,2013-09-09 00:39:00,
2013-09-08 20:40:00,76.4,67.1,29.97,East,83,0.0,0.0,73,0.00,,---,0.00,VWS V14.01,2013-09-09 00:40:00,
2013-09-08 20:41:00,76.4,67.5,29.97,East,84,0.0,0.0,74,0.00,,---,0.00,VWS V14.01,2013-09-09 00:41:00,
2013-09-08 20:42:00,76.3,67.4,29.97,East,84,0.0,0.0,74,0.00,,---,0.00,VWS V14.01,2013-09-09 00:42:00,
2013-09-08 20:43:00,76.2,67.7,29.97,East,84,0.0,0.0,75,0.00,,---,0.00,VWS V14.01,2013-09-09 00:43:00,
2013-09-08 20:44:00,76.1,67.6,29.97,East,84,0.0,0.0,75,0.00,,---,0.00,VWS V14.01,2013-09-09 00:44:00,
2013-09-08 20:45:00,76.1,67.2,29.97,East,83,0.0,0.0,74,0.00,,---,0.00,VWS V14.01,2013-09-09 00:45:00,
2013-09-08 20:46:00,76.0,67.1,29.97,East,83,0.0,0.0,74,0.00,,---,0.00,VWS V14.01,2013-09-09 00:46:00,
2013-09-08 20:47:00,75.9,67.0,29.97,East,83,0.0,0.0,74,0.00,,---,0.00,VWS V14.01,2013-09-09 00:47:00,
2013-09-08 20:48:00,75.7,66.4,29.97,East,84,0.0,0.0,73,0.00,,---,0.00,VWS V14.01,2013-09-09 00:48:00,
2013-09-08 20:49:00,75.7,66.4,29.97,East,83,0.0,0.0,73,0.00,,---,0.00,VWS V14.01,2013-09-09 00:49:00,
2013-09-08 20:50:00,75.6,66.7,29.97,East,83,0.0,0.0,74,0.00,,---,0.00,VWS V14.01,2013-09-09 00:50:00,
2013-09-08 20:51:00,75.6,66.7,29.97,East,84,0.0,0.0,74,0.00,,---,0.00,VWS V14.01,2013-09-09 00:51:00,
2013-09-08 20:52:00,75.5,66.6,29.97,East,83,0.0,0.0,74,0.00,,---,0.00,VWS V14.01,2013-09-09 00:52:00,
2013-09-08 20:53:00,75.4,66.5,29.97,East,83,0.0,0.0,74,0.00,,---,0.00,VWS V14.01,2013-09-09 00:53:00,
2013-09-08 20:55:00,75.3,66.4,29.97,East,84,0.0,0.0,74,0.00,,---,0.00,VWS V14.01,2013-09-09 00:55:00,
2013-09-08 20:56:00,75.3,66.4,29.97,East,83,0.0,0.0,74,0.00,,---,0.00,VWS V14.01,2013-09-09 00:56:00,
2013-09-08 20:57:00,75.2,66.3,29.97,East,84,0.0,0.0,74,0.00,,---,0.00,VWS V14.01,2013-09-09 00:57:00,
2013-09-08 20:58:00,75.1,66.2,29.98,East,84,0.0,0.0,74,0.00,,---,0.00,VWS V14.01,2013-09-09 00:58:00,
2013-09-08 20:59:00,75.1,66.2,29.98,East,84,0.0,0.0,74,0.00,,---,0.00,VWS V14.01,2013-09-09 00:59:00,
2013-09-08 21:00:00,75.0,66.2,29.98,East,83,0.0,0.0,74,0.00,,---,0.00,VWS V14.01,2013-09-09 01:00:00,
2013-09-08 21:01:00,74.9,66.1,29.98,East,83,0.0,0.0,74,0.00,,---,0.00,VWS V14.01,2013-09-09 01:01:00,
2013-09-08 21:02:00,74.9,66.4,29.98,East,83,0.0,0.0,75,0.00,,---,0.00,VWS V14.01,2013-09-09 01:02:00,
2013-09-08 21:03:00,74.8,66.3,29.98,East,84,0.0,0.0,75,0.00,,---,0.00,VWS V14.01,2013-09-09 01:03:00,
2013-09-08 21:04:00,74.8,66.3,29.98,East,83,0.0,0.0,75,0.00,,---,0.00,VWS V14.01,2013-09-09 01:04:00,
2013-09-08 21:05:00,74.7,66.3,29.98,East,84,0.0,0.0,75,0.00,,---,0.00,VWS V14.01,2013-09-09 01:05:00,
2013-09-08 21:06:00,74.7,66.3,29.98,East,83,0.0,0.0,75,0.00,,---,0.00,VWS V14.01,2013-09-09 01:06:00,
2013-09-08 21:07:00,74.6,66.2,29.98,East,83,0.0,0.0,75,0.00,,---,0.00,VWS V14.01,2013-09-09 01:07:00,
2013-09-08 21:08:00,74.5,66.4,29.98,East,84,0.0,0.0,76,0.00,,---,0.00,VWS V14.01,2013-09-09 01:08:00,
2013-09-08 21:09:00,74.5,66.4,29.98,East,84,0.0,0.0,76,0.00,,---,0.00,VWS V14.01,2013-09-09 01:09:00,
2013-09-08 21:10:00,74.5,66.1,29.98,East,83,0.0,0.0,75,0.00,,---,0.00,VWS V14.01,2013-09-09 01:10:00,
2013-09-08 21:11:00,74.5,66.1,29.98,East,83,0.0,0.0,75,0.00,,---,0.00,VWS V14.01,2013-09-09 01:11:00,
2013-09-08 21:12:00,74.4,66.0,29.98,East,84,0.0,0.0,75,0.00,,---,0.00,VWS V14.01,2013-09-09 01:12:00,
2013-09-08 21:13:00,74.4,66.0,29.98,East,84,0.0,0.0,75,0.00,,---,0.00,VWS V14.01,2013-09-09 01:13:00,
2013-09-08 21:14:00,74.4,66.0,29.98,East,84,0.0,0.0,75,0.00,,---,0.00,VWS V14.01,2013-09-09 01:14:00,
2013-09-08 21:15:00,74.4,66.0,29.98,East,84,0.0,0.0,75,0.00,,---,0.00,VWS V14.01,2013-09-09 01:15:00,
2013-09-08 21:16:00,74.3,66.2,29.98,East,84,0.0,0.0,76,0.00,,---,0.00,VWS V14.01,2013-09-09 01:16:00,
2013-09-08 21:17:00,74.3,66.2,29.99,East,83,0.0,0.0,76,0.00,,---,0.00,VWS V14.01,2013-09-09 01:17:00,
2013-09-08 21:18:00,74.3,66.2,29.99,East,83,0.0,0.0,76,0.00,,---,0.00,VWS V14.01,2013-09-09 01:18:00,
2013-09-08 21:19:00,74.2,66.2,29.99,East,84,0.0,0.0,76,0.00,,---,0.00,VWS V14.01,2013-09-09 01:19:00,
2013-09-08 21:20:00,74.2,66.2,29.99,East,84,0.0,0.0,76,0.00,,---,0.00,VWS V14.01,2013-09-09 01:20:00,
2013-09-08 21:21:00,74.2,66.2,29.99,East,83,0.0,0.0,76,0.00,,---,0.00,VWS V14.01,2013-09-09 01:21:00,
2013-09-08 21:22:00,74.2,66.2,29.99,East,84,0.0,0.0,76,0.00,,---,0.00,VWS V14.01,2013-09-09 01:22:00,
2013-09-08 21:23:00,74.1,66.1,29.99,East,83,0.0,0.0,76,0.00,,---,0.00,VWS V14.01,2013-09-09 01:23:00,
2013-09-08 21:24:00,74.1,66.4,29.99,East,83,0.0,0.0,77,0.00,,---,0.00,VWS V14.01,2013-09-09 01:24:00,
2013-09-08 21:25:00,74.1,66.4,29.99,East,84,0.0,0.0,77,0.00,,---,0.00,VWS V14.01,2013-09-09 01:25:00,
2013-09-08 21:26:00,74.1,66.4,29.99,East,83,0.0,0.0,77,0.00,,---,0.00,VWS V14.01,2013-09-09 01:26:00,
2013-09-08 21:27:00,74.1,66.4,29.99,East,83,0.0,0.0,77,0.00,,---,0.00,VWS V14.01,2013-09-09 01:27:00,
2013-09-08 21:28:00,74.1,66.4,29.99,East,84,0.0,0.0,77,0.00,,---,0.00,VWS V14.01,2013-09-09 01:28:00,
2013-09-08 21:29:00,74.0,66.7,29.99,East,84,0.0,0.0,78,0.00,,---,0.00,VWS V14.01,2013-09-09 01:29:00,
2013-09-08 21:30:00,74.0,66.3,29.99,East,83,0.0,0.0,77,0.00,,---,0.00,VWS V14.01,2013-09-09 01:30:00,
2013-09-08 21:31:00,74.0,66.3,29.99,East,84,0.0,0.0,77,0.00,,---,0.00,VWS V14.01,2013-09-09 01:31:00,
2013-09-08 21:32:00,74.0,66.3,29.99,East,84,0.0,0.0,77,0.00,,---,0.00,VWS V14.01,2013-09-09 01:32:00,
2013-09-08 21:33:00,74.0,66.3,29.99,East,83,0.0,0.0,77,0.00,,---,0.00,VWS V14.01,2013-09-09 01:33:00,
2013-09-08 21:34:00,74.0,66.3,29.99,East,84,0.0,0.0,77,0.00,,---,0.00,VWS V14.01,2013-09-09 01:34:00,
2013-09-08 21:35:00,73.9,66.2,29.99,East,84,0.0,0.0,77,0.00,,---,0.00,VWS V14.01,2013-09-09 01:35:00,
2013-09-08 21:36:00,73.9,66.6,29.99,East,84,0.0,0.0,78,0.00,,---,0.00,VWS V14.01,2013-09-09 01:36:00,
2013-09-08 21:37:00,73.9,66.6,29.99,East,84,0.0,0.0,78,0.00,,---,0.00,VWS V14.01,2013-09-09 01:37:00,
2013-09-08 21:38:00,73.8,66.5,29.99,East,83,0.0,0.0,78,0.00,,---,0.00,VWS V14.01,2013-09-09 01:38:00,
2013-09-08 21:39:00,73.8,66.5,29.99,East,84,0.0,0.0,78,0.00,,---,0.00,VWS V14.01,2013-09-09 01:39:00,
2013-09-08 21:40:00,73.8,66.5,29.99,East,83,0.0,0.0,78,0.00,,---,0.00,VWS V14.01,2013-09-09 01:40:00,
2013-09-08 21:41:00,73.7,66.4,29.99,East,84,0.0,0.0,78,0.00,,---,0.00,VWS V14.01,2013-09-09 01:41:00,
2013-09-08 21:42:00,73.7,66.4,29.99,East,84,0.0,0.0,78,0.00,,---,0.00,VWS V14.01,2013-09-09 01:42:00,
2013-09-08 21:43:00,73.7,66.8,30.00,East,84,0.0,0.0,79,0.00,,---,0.00,VWS V14.01,2013-09-09 01:43:00,
2013-09-08 21:44:00,73.6,66.7,30.00,East,83,0.0,0.0,79,0.00,,---,0.00,VWS V14.01,2013-09-09 01:44:00,
2013-09-08 21:45:00,73.6,66.7,30.00,East,83,0.0,0.0,79,0.00,,---,0.00,VWS V14.01,2013-09-09 01:45:00,
2013-09-08 21:46:00,73.6,66.7,30.00,East,84,0.0,0.0,79,0.00,,---,0.00,VWS V14.01,2013-09-09 01:46:00,
2013-09-08 21:47:00,73.5,66.6,30.00,East,84,0.0,0.0,79,0.00,,---,0.00,VWS V14.01,2013-09-09 01:47:00,
2013-09-08 21:48:00,73.5,67.0,30.00,East,84,0.0,0.0,80,0.00,,---,0.00,VWS V14.01,2013-09-09 01:48:00,
2013-09-08 21:49:00,73.5,67.0,30.00,East,83,0.0,0.0,80,0.00,,---,0.00,VWS V14.01,2013-09-09 01:49:00,
2013-09-08 21:50:00,73.5,67.3,30.00,East,84,0.0,0.0,81,0.00,,---,0.00,VWS V14.01,2013-09-09 01:50:00,
2013-09-08 21:51:00,73.5,67.3,30.00,East,84,0.0,0.0,81,0.00,,---,0.00,VWS V14.01,2013-09-09 01:51:00,
2013-09-08 21:52:00,73.5,67.7,30.00,East,83,0.0,0.0,82,0.00,,---,0.00,VWS V14.01,2013-09-09 01:52:00,
2013-09-08 21:53:00,73.4,67.6,30.00,East,83,0.0,0.0,82,0.00,,---,0.00,VWS V14.01,2013-09-09 01:53:00,
2013-09-08 21:54:00,73.4,67.6,30.00,East,83,0.0,0.0,82,0.00,,---,0.00,VWS V14.01,2013-09-09 01:54:00,
2013-09-08 21:55:00,73.3,67.5,30.00,East,84,0.0,0.0,82,0.00,,---,0.00,VWS V14.01,2013-09-09 01:55:00,
2013-09-08 21:56:00,73.3,67.5,30.00,East,83,0.0,0.0,82,0.00,,---,0.00,VWS V14.01,2013-09-09 01:56:00,
2013-09-08 21:58:00,73.1,67.3,30.00,East,83,0.0,0.0,82,0.00,,---,0.00,VWS V14.01,2013-09-09 01:58:00,
2013-09-08 21:59:00,73.1,67.3,30.00,East,83,0.0,0.0,82,0.00,,---,0.00,VWS V14.01,2013-09-09 01:59:00,
2013-09-08 22:00:00,73.1,67.3,30.00,East,83,0.0,0.0,82,0.00,,---,0.00,VWS V14.01,2013-09-09 02:00:00,
2013-09-08 22:01:00,73.0,67.2,30.00,East,84,0.0,0.0,82,0.00,,---,0.00,VWS V14.01,2013-09-09 02:01:00,
2013-09-08 22:02:00,73.0,67.5,30.00,East,83,0.0,0.0,83,0.00,,---,0.00,VWS V14.01,2013-09-09 02:02:00,
2013-09-08 22:03:00,72.9,67.4,30.00,East,83,0.0,0.0,83,0.00,,---,0.00,VWS V14.01,2013-09-09 02:03:00,
2013-09-08 22:04:00,72.9,67.4,30.00,East,83,0.0,0.0,83,0.00,,---,0.00,VWS V14.01,2013-09-09 02:04:00,
2013-09-08 22:05:00,72.8,67.3,30.00,East,83,0.0,0.0,83,0.00,,---,0.00,VWS V14.01,2013-09-09 02:05:00,
2013-09-08 22:06:00,72.7,66.9,30.00,East,84,0.0,0.0,82,0.00,,---,0.00,VWS V14.01,2013-09-09 02:06:00,
2013-09-08 22:07:00,72.7,66.9,30.00,East,83,0.0,0.0,82,0.00,,---,0.00,VWS V14.01,2013-09-09 02:07:00,
2013-09-08 22:08:00,72.6,67.2,30.00,East,84,0.0,0.0,83,0.00,,---,0.00,VWS V14.01,2013-09-09 02:08:00,
2013-09-08 22:09:00,72.6,67.2,30.00,East,83,0.0,0.0,83,0.00,,---,0.00,VWS V14.01,2013-09-09 02:09:00,
2013-09-08 22:10:00,72.6,67.2,30.00,East,84,0.0,0.0,83,0.00,,---,0.00,VWS V14.01,2013-09-09 02:10:00,
2013-09-08 22:11:00,72.5,67.1,30.00,East,84,0.0,0.0,83,0.00,,---,0.00,VWS V14.01,2013-09-09 02:11:00,
2013-09-08 22:12:00,72.5,67.1,30.00,East,84,0.0,0.0,83,0.00,,---,0.00,VWS V14.01,2013-09-09 02:12:00,
2013-09-08 22:13:00,72.5,67.1,30.00,East,84,0.0,0.0,83,0.00,,---,0.00,VWS V14.01,2013-09-09 02:13:00,
2013-09-08 22:14:00,72.4,66.9,30.00,East,84,0.0,0.0,83,0.00,,---,0.00,VWS V14.01,2013-09-09 02:14:00,
2013-09-08 22:15:00,72.4,66.9,29.99,East,83,0.0,0.0,83,0.00,,---,0.00,VWS V14.01,2013-09-09 02:15:00,
2013-09-08 22:16:00,72.4,66.9,29.99,East,84,0.0,0.0,83,0.00,,---,0.00,VWS V14.01,2013-09-09 02:16:00,
2013-09-08 22:17:00,72.4,66.9,30.00,East,84,0.0,0.0,83,0.00,,---,0.00,VWS V14.01,2013-09-09 02:17:00,
2013-09-08 22:18:00,72.3,66.8,30.00,East,84,0.0,0.0,83,0.00,,---,0.00,VWS V14.01,2013-09-09 02:18:00,
2013-09-08 22:19:00,72.3,66.8,30.00,East,84,0.0,0.0,83,0.00,,---,0.00,VWS V14.01,2013-09-09 02:19:00,
2013-09-08 22:20:00,72.3,67.2,30.00,East,83,0.0,0.0,84,0.00,,---,0.00,VWS V14.01,2013-09-09 02:20:00,
2013-09-08 22:21:00,72.3,67.2,30.00,East,84,0.0,0.0,84,0.00,,---,0.00,VWS V14.01,2013-09-09 02:21:00,
2013-09-08 22:22:00,72.3,67.2,30.00,East,84,0.0,0.0,84,0.00,,---,0.00,VWS V14.01,2013-09-09 02:22:00,
2013-09-08 22:23:00,72.4,67.6,30.00,East,84,0.0,0.0,85,0.00,,---,0.00,VWS V14.01,2013-09-09 02:23:00,
2013-09-08 22:24:00,72.3,67.5,30.00,East,84,0.0,0.0,85,0.00,,---,0.00,VWS V14.01,2013-09-09 02:24:00,
2013-09-08 22:25:00,72.3,67.5,30.00,East,83,0.0,0.0,85,0.00,,---,0.00,VWS V14.01,2013-09-09 02:25:00,
2013-09-08 22:26:00,72.3,67.5,30.00,East,83,0.0,0.0,85,0.00,,---,0.00,VWS V14.01,2013-09-09 02:26:00,
2013-09-08 22:27:00,72.3,67.2,30.00,East,83,0.0,0.0,84,0.00,,---,0.00,VWS V14.01,2013-09-09 02:27:00,
2013-09-08 22:28:00,72.2,67.1,30.00,East,83,0.0,0.0,84,0.00,,---,0.00,VWS V14.01,2013-09-09 02:28:00,
2013-09-08 22:29:00,72.2,67.1,30.00,East,83,0.0,0.0,84,0.00,,---,0.00,VWS V14.01,2013-09-09 02:29:00,
2013-09-08 22:30:00,72.2,67.1,30.00,East,83,0.0,0.0,84,0.00,,---,0.00,VWS V14.01,2013-09-09 02:30:00,
2013-09-08 22:31:00,72.1,67.0,30.00,East,84,0.0,0.0,84,0.00,,---,0.00,VWS V14.01,2013-09-09 02:31:00,
2013-09-08 22:32:00,72.1,67.0,30.00,East,84,0.0,0.0,84,0.00,,---,0.00,VWS V14.01,2013-09-09 02:32:00,
2013-09-08 22:33:00,72.1,67.0,30.00,East,83,0.0,0.0,84,0.00,,---,0.00,VWS V14.01,2013-09-09 02:33:00,
2013-09-08 22:34:00,72.1,67.0,30.00,East,84,0.0,0.0,84,0.00,,---,0.00,VWS V14.01,2013-09-09 02:34:00,
2013-09-08 22:35:00,72.1,67.0,30.00,East,84,0.0,0.0,84,0.00,,---,0.00,VWS V14.01,2013-09-09 02:35:00,
2013-09-08 22:36:00,72.2,67.1,30.00,East,83,0.0,0.0,84,0.00,,---,0.00,VWS V14.01,2013-09-09 02:36:00,
2013-09-08 22:37:00,72.2,67.1,30.00,East,83,0.0,0.0,84,0.00,,---,0.00,VWS V14.01,2013-09-09 02:37:00,
2013-09-08 22:38:00,72.3,67.2,30.00,East,84,0.0,0.0,84,0.00,,---,0.00,VWS V14.01,2013-09-09 02:38:00,
2013-09-08 22:39:00,72.4,67.3,30.00,East,84,0.0,0.0,84,0.00,,---,0.00,VWS V14.01,2013-09-09 02:39:00,
2013-09-08 22:40:00,72.4,67.3,30.00,East,83,0.0,0.0,84,0.00,,---,0.00,VWS V14.01,2013-09-09 02:40:00,
2013-09-08 22:41:00,72.5,67.4,30.00,East,84,0.0,0.0,84,0.00,,---,0.00,VWS V14.01,2013-09-09 02:41:00,
2013-09-08 22:42:00,72.5,67.4,30.00,East,83,0.0,0.0,84,0.00,,---,0.00,VWS V14.01,2013-09-09 02:42:00,
2013-09-08 22:43:00,72.6,67.5,30.00,East,83,0.0,0.0,84,0.00,,---,0.00,VWS V14.01,2013-09-09 02:43:00,
2013-09-08 22:44:00,72.6,67.5,30.00,East,84,0.0,0.0,84,0.00,,---,0.00,VWS V14.01,2013-09-09 02:44:00,
2013-09-08 22:45:00,72.6,67.2,30.00,East,84,0.0,0.0,83,0.00,,---,0.00,VWS V14.01,2013-09-09 02:45:00,
2013-09-08 22:46:00,72.7,67.2,30.00,East,84,0.0,0.0,83,0.00,,---,0.00,VWS V14.01,2013-09-09 02:46:00,
2013-09-08 22:47:00,72.7,67.2,30.00,East,84,0.0,0.0,83,0.00,,---,0.00,VWS V14.01,2013-09-09 02:47:00,
2013-09-08 22:48:00,72.6,67.2,30.00,East,84,0.0,0.0,83,0.00,,---,0.00,VWS V14.01,2013-09-09 02:48:00,
2013-09-08 22:49:00,72.6,67.2,30.00,East,84,0.0,0.0,83,0.00,,---,0.00,VWS V14.01,2013-09-09 02:49:00,
2013-09-08 22:50:00,72.6,67.2,30.00,East,84,0.0,0.0,83,0.00,,---,0.00,VWS V14.01,2013-09-09 02:50:00,
2013-09-08 22:51:00,72.6,67.2,30.01,East,83,0.0,0.0,83,0.00,,---,0.00,VWS V14.01,2013-09-09 02:51:00,
2013-09-08 22:52:00,72.6,67.5,30.01,East,84,0.0,0.0,84,0.00,,---,0.00,VWS V14.01,2013-09-09 02:52:00,
2013-09-08 22:53:00,72.6,67.5,30.01,East,83,0.0,0.0,84,0.00,,---,0.00,VWS V14.01,2013-09-09 02:53:00,
2013-09-08 22:54:00,72.6,67.5,30.01,East,84,0.0,0.0,84,0.00,,---,0.00,VWS V14.01,2013-09-09 02:54:00,
2013-09-08 22:55:00,72.6,67.5,30.01,East,83,0.0,0.0,84,0.00,,---,0.00,VWS V14.01,2013-09-09 02:55:00,
2013-09-08 22:56:00,72.6,67.5,30.01,East,83,0.0,0.0,84,0.00,,---,0.00,VWS V14.01,2013-09-09 02:56:00,
2013-09-08 22:57:00,72.6,67.8,30.01,East,83,0.0,0.0,85,0.00,,---,0.00,VWS V14.01,2013-09-09 02:57:00,
2013-09-08 22:58:00,72.5,67.7,30.01,East,83,0.0,0.0,85,0.00,,---,0.00,VWS V14.01,2013-09-09 02:58:00,
2013-09-08 22:59:00,72.5,67.4,30.01,East,83,0.0,0.0,84,0.00,,---,0.00,VWS V14.01,2013-09-09 02:59:00,
2013-09-08 23:00:00,72.4,67.3,30.01,East,83,0.0,0.0,84,0.00,,---,0.00,VWS V14.01,2013-09-09 03:00:00,
2013-09-08 23:01:00,72.3,67.2,30.01,East,83,0.0,0.0,84,0.00,,---,0.00,VWS V14.01,2013-09-09 03:01:00,
2013-09-08 23:02:00,72.3,67.2,30.01,East,83,0.0,0.0,84,0.00,,---,0.00,VWS V14.01,2013-09-09 03:02:00,
2013-09-08 23:03:00,72.2,67.1,30.01,East,83,0.0,0.0,84,0.00,,---,0.00,VWS V14.01,2013-09-09 03:03:00,
2013-09-08 23:04:00,72.2,67.1,30.01,East,84,0.0,0.0,84,0.00,,---,0.00,VWS V14.01,2013-09-09 03:04:00,
2013-09-08 23:05:00,72.1,67.3,30.01,East,83,0.0,0.0,85,0.00,,---,0.00,VWS V14.01,2013-09-09 03:05:00,
2013-09-08 23:07:00,72.0,67.2,30.01,East,84,0.0,0.0,85,0.00,,---,0.00,VWS V14.01,2013-09-09 03:07:00,
2013-09-08 23:08:00,72.0,67.2,30.01,East,84,0.0,0.0,85,0.00,,---,0.00,VWS V14.01,2013-09-09 03:08:00,
2013-09-08 23:09:00,72.0,67.2,30.01,East,83,0.0,0.0,85,0.00,,---,0.00,VWS V14.01,2013-09-09 03:09:00,
2013-09-08 23:10:00,72.0,67.2,30.01,East,84,0.0,0.0,85,0.00,,---,0.00,VWS V14.01,2013-09-09 03:10:00,
2013-09-08 23:11:00,71.9,67.2,30.01,East,84,0.0,0.0,85,0.00,,---,0.00,VWS V14.01,2013-09-09 03:11:00,
2013-09-08 23:12:00,71.9,67.2,30.01,East,83,0.0,0.0,85,0.00,,---,0.00,VWS V14.01,2013-09-09 03:12:00,
2013-09-08 23:13:00,71.8,67.1,30.01,East,83,0.0,0.0,85,0.00,,---,0.00,VWS V14.01,2013-09-09 03:13:00,
2013-09-08 23:14:00,71.8,67.1,30.01,East,83,0.0,0.0,85,0.00,,---,0.00,VWS V14.01,2013-09-09 03:14:00,
2013-09-08 23:15:00,71.7,67.0,30.01,East,83,0.0,0.0,85,0.00,,---,0.00,VWS V14.01,2013-09-09 03:15:00,
2013-09-08 23:16:00,71.7,67.0,30.01,East,84,0.0,0.0,85,0.00,,---,0.00,VWS V14.01,2013-09-09 03:16:00,
2013-09-08 23:17:00,71.7,67.0,30.01,East,84,0.0,0.0,85,0.00,,---,0.00,VWS V14.01,2013-09-09 03:17:00,
2013-09-08 23:18:00,71.6,66.9,30.01,East,83,0.0,0.0,85,0.00,,---,0.00,VWS V14.01,2013-09-09 03:18:00,
2013-09-08 23:19:00,71.6,66.9,30.01,East,84,0.0,0.0,85,0.00,,---,0.00,VWS V14.01,2013-09-09 03:19:00,
2013-09-08 23:20:00,71.5,66.8,30.01,East,83,0.0,0.0,85,0.00,,---,0.00,VWS V14.01,2013-09-09 03:20:00,
2013-09-08 23:21:00,71.5,66.8,30.01,East,83,0.0,0.0,85,0.00,,---,0.00,VWS V14.01,2013-09-09 03:21:00,
2013-09-08 23:22:00,71.4,66.7,30.01,East,83,0.0,0.0,85,0.00,,---,0.00,VWS V14.01,2013-09-09 03:22:00,
2013-09-08 23:23:00,71.4,66.7,30.01,East,84,0.0,0.0,85,0.00,,---,0.00,VWS V14.01,2013-09-09 03:23:00,
2013-09-08 23:24:00,71.4,66.7,30.01,East,84,0.0,0.0,85,0.00,,---,0.00,VWS V14.01,2013-09-09 03:24:00,
2013-09-08 23:25:00,71.4,67.0,30.01,East,84,0.0,0.0,86,0.00,,---,0.00,VWS V14.01,2013-09-09 03:25:00,
2013-09-08 23:26:00,71.4,67.3,30.01,East,84,0.0,0.0,87,0.00,,---,0.00,VWS V14.01,2013-09-09 03:26:00,
2013-09-08 23:27:00,71.4,67.3,30.01,East,84,0.0,0.0,87,0.00,,---,0.00,VWS V14.01,2013-09-09 03:27:00,
2013-09-08 23:28:00,71.4,67.3,30.01,East,84,0.0,0.0,87,0.00,,---,0.00,VWS V14.01,2013-09-09 03:28:00,
2013-09-08 23:29:00,71.4,67.3,30.01,East,84,0.0,0.0,87,0.00,,---,0.00,VWS V14.01,2013-09-09 03:29:00,
2013-09-08 23:30:00,71.3,67.2,30.01,East,83,0.0,0.0,87,0.00,,---,0.00,VWS V14.01,2013-09-09 03:30:00,
2013-09-08 23:31:00,71.3,67.2,30.01,East,83,0.0,0.0,87,0.00,,---,0.00,VWS V14.01,2013-09-09 03:31:00,
2013-09-08 23:32:00,71.2,67.1,30.01,East,83,0.0,0.0,87,0.00,,---,0.00,VWS V14.01,2013-09-09 03:32:00,
2013-09-08 23:33:00,71.2,67.1,30.01,East,83,0.0,0.0,87,0.00,,---,0.00,VWS V14.01,2013-09-09 03:33:00,
2013-09-08 23:34:00,71.1,67.0,30.01,East,84,0.0,0.0,87,0.00,,---,0.00,VWS V14.01,2013-09-09 03:34:00,
2013-09-08 23:35:00,71.1,67.0,30.01,East,84,0.0,0.0,87,0.00,,---,0.00,VWS V14.01,2013-09-09 03:35:00,
2013-09-08 23:36:00,71.1,67.0,30.01,East,83,0.0,0.0,87,0.00,,---,0.00,VWS V14.01,2013-09-09 03:36:00,
2013-09-08 23:37:00,71.0,67.3,30.01,East,84,0.0,0.0,88,0.00,,---,0.00,VWS V14.01,2013-09-09 03:37:00,
2013-09-08 23:38:00,70.9,67.2,30.01,East,84,0.0,0.0,88,0.00,,---,0.00,VWS V14.01,2013-09-09 03:38:00,
2013-09-08 23:39:00,70.9,67.2,30.01,East,83,0.0,0.0,88,0.00,,---,0.00,VWS V14.01,2013-09-09 03:39:00,
2013-09-08 23:40:00,70.8,66.7,30.01,East,84,0.0,0.0,87,0.00,,---,0.00,VWS V14.01,2013-09-09 03:40:00,
2013-09-08 23:41:00,70.8,66.7,30.01,East,83,0.0,0.0,87,0.00,,---,0.00,VWS V14.01,2013-09-09 03:41:00,
2013-09-08 23:42:00,70.7,66.7,30.01,East,84,0.0,0.0,87,0.00,,---,0.00,VWS V14.01,2013-09-09 03:42:00,
2013-09-08 23:43:00,70.7,67.0,30.01,East,84,0.0,0.0,88,0.00,,---,0.00,VWS V14.01,2013-09-09 03:43:00,
2013-09-08 23:44:00,70.8,67.1,30.01,East,83,0.0,0.0,88,0.00,,---,0.00,VWS V14.01,2013-09-09 03:44:00,
2013-09-08 23:45:00,70.7,67.0,30.01,East,83,0.0,0.0,88,0.00,,---,0.00,VWS V14.01,2013-09-09 03:45:00,
2013-09-08 23:46:00,70.8,67.1,30.01,East,83,0.0,0.0,88,0.00,,---,0.00,VWS V14.01,2013-09-09 03:46:00,
2013-09-08 23:47:00,70.8,67.1,30.01,East,84,0.0,0.0,88,0.00,,---,0.00,VWS V14.01,2013-09-09 03:47:00,
2013-09-08 23:48:00,70.8,67.1,30.01,East,83,0.0,0.0,88,0.00,,---,0.00,VWS V14.01,2013-09-09 03:48:00,
2013-09-08 23:49:00,70.9,67.2,30.01,East,84,0.0,0.0,88,0.00,,---,0.00,VWS V14.01,2013-09-09 03:49:00,
2013-09-08 23:50:00,70.9,67.2,30.01,East,84,0.0,0.0,88,0.00,,---,0.00,VWS V14.01,2013-09-09 03:50:00,
2013-09-08 23:51:00,70.9,66.8,30.01,East,84,0.0,0.0,87,0.00,,---,0.00,VWS V14.01,2013-09-09 03:51:00,
2013-09-08 23:52:00,70.9,66.8,30.01,East,84,0.0,0.0,87,0.00,,---,0.00,VWS V14.01,2013-09-09 03:52:00,
2013-09-08 23:53:00,71.0,66.9,30.01,East,83,0.0,0.0,87,0.00,,---,0.00,VWS V14.01,2013-09-09 03:53:00,
2013-09-08 23:54:00,71.0,66.9,30.02,East,83,0.0,0.0,87,0.00,,---,0.00,VWS V14.01,2013-09-09 03:54:00,
2013-09-08 23:55:00,71.1,67.0,30.02,East,83,0.0,0.0,87,0.00,,---,0.00,VWS V14.01,2013-09-09 03:55:00,
2013-09-08 23:56:00,71.1,67.0,30.02,East,84,0.0,0.0,87,0.00,,---,0.00,VWS V14.01,2013-09-09 03:56:00,
2013-09-08 23:57:00,71.1,67.0,30.02,East,84,0.0,0.0,87,0.00,,---,0.00,VWS V14.01,2013-09-09 03:57:00,
2013-09-08 23:58:00,71.1,67.0,30.02,East,83,0.0,0.0,87,0.00,,---,0.00,VWS V14.01,2013-09-09 03:58:00,
2013-09-08 23:59:00,71.2,67.1,30.02,East,84,0.0,0.0,87,0.00,,---,0.00,VWS V14.01,2013-09-09 03:59:00,